Date StartTime U_cm/s V_cm/s W_cm/s Ustd_cm/s Vstd_cm/s Wstd_cm/s Uvar_(cm/s)^2 Vvar_(cm/s)^2 Wvar_(cm/s)^2 KE_(m/s)^2 TurbulentKE_(m/s)^2 HorizWindSpeed_cm/s FrictionSpeec_cm/s DragCoef SpeedOfSound_m/s SonicTemperature_C Pressure_mb 
07/03/2013  00:00:00      -78.305      -30.247       -5.039       23.346       20.222        9.441      545.014      408.936       89.125        0.406        0.052       83.944        7.821        0.009      345.545       23.152      866.360
07/03/2013  00:01:00      -85.890      -28.010       -2.256       16.332       15.464       15.057      266.718      239.124      226.706        0.445        0.037       90.342        8.649        0.009      345.549       23.161      866.358
07/03/2013  00:02:00      -68.919      -38.604        1.252       25.818       18.878       14.159      666.546      356.396      200.472        0.373        0.061       78.995       12.707        0.026      345.553       23.165      866.365
07/03/2013  00:03:00      -58.633      -38.279       -1.817       15.165       10.517       11.157      229.992      110.606      124.480        0.269        0.023       70.022        5.937        0.007      345.618       23.279      866.382
07/03/2013  00:04:00      -54.545      -47.184       -4.500       22.448       16.413       15.028      503.912      269.385      225.826        0.311        0.050       72.121        9.875        0.019      345.627       23.293      866.410
07/03/2013  00:05:00      -27.011      -52.401       -6.063       33.697       17.971       13.873     1135.477      322.974      192.460        0.258        0.083       58.953        8.167        0.019      345.610       23.262      866.429
07/03/2013  00:06:00      -26.650      -91.577       -2.533       38.752       30.651       23.384     1501.699      939.464      546.794        0.604        0.149       95.376       18.043        0.036      345.784       23.561      866.430
07/03/2013  00:07:00        0.582      -53.995       -1.593       18.693       26.508       13.450      349.443      702.651      180.912        0.208        0.062       53.998        7.315        0.018      345.805       23.598      866.433
07/03/2013  00:08:00      -15.798      -55.546        3.947       28.248       27.998       18.013      797.930      783.865      324.457        0.263        0.095       57.749       18.020        0.097      345.774       23.544      866.443
07/03/2013  00:09:00       -4.206       -1.352       16.130       11.246       19.037       11.672      126.481      362.396      136.246        0.045        0.031        4.418       10.148        5.276      345.710       23.435      866.449
07/03/2013  00:10:00      -27.351      -12.621        2.316       24.844       13.427       10.013      617.209      180.297      100.258        0.091        0.045       30.123        8.917        0.088      345.664       23.355      866.461
07/03/2013  00:11:00      -92.633      -65.705       -8.146       23.273       22.300       19.617      541.624      497.274      384.829        0.719        0.071      113.569       12.823        0.013      345.691       23.403      866.456
07/03/2013  00:12:00      -90.680      -60.396        1.539       48.008       31.785       21.729     2304.793     1010.276      472.133        0.783        0.189      108.952       16.917        0.024      345.626       23.290      866.434
07/03/2013  00:13:00     -105.308      -98.420        7.627       58.546       42.592       32.986     3427.640     1814.039     1088.090        1.358        0.316      144.139       25.267        0.031      345.505       23.081      866.395
07/03/2013  00:14:00     -110.724      -89.102        5.734       59.082       58.388       35.738     3490.644     3409.212     1277.204        1.420        0.409      142.123       33.244        0.055      345.447       22.981      866.364
07/03/2013  00:15:00     -106.218      -89.884        8.031       81.096       56.202       40.904     6576.547     3158.698     1673.123        1.541        0.570      139.145       47.829        0.118      345.458       23.001      866.355
07/03/2013  00:16:00      -74.530      -73.737        6.266       53.813       46.285       31.140     2895.891     2142.269      969.675        0.852        0.300      104.842       33.198        0.100      345.472       23.025      866.354
07/03/2013  00:17:00     -119.732      -66.465       -5.715       37.094       30.674       20.302     1375.973      940.875      412.164        1.076        0.136      136.943       17.875        0.017      345.456       23.001      866.365
07/03/2013  00:18:00     -107.311      -64.781        1.911       56.295       41.770       30.791     3169.084     1744.771      948.065        1.079        0.293      125.348       35.156        0.079      345.394       22.892      866.379
07/03/2013  00:19:00      -96.879      -89.453       -3.727       48.872       49.824       27.527     2388.462     2482.477      757.757        1.151        0.281      131.861       30.389        0.053      345.366       22.845      866.402
07/03/2013  00:20:00      -80.156      -81.584      -11.593       41.171       34.604       25.797     1695.049     1197.465      665.461        0.839        0.178      114.372        9.096        0.006      345.379       22.866      866.410
07/03/2013  00:21:00      -73.251      -84.073       -2.904       45.189       33.861       19.217     2042.002     1146.568      369.310        0.800        0.178      111.508        9.003        0.007      345.330       22.783      866.418
07/03/2013  00:22:00     -102.549      -84.961       -5.535       44.854       52.562       17.782     2011.862     2762.728      316.182        1.143        0.255      133.172       16.885        0.016      345.292       22.717      866.416
07/03/2013  00:23:00      -97.013      -67.518       -1.671       66.465       37.402       20.933     4417.599     1398.881      438.174        1.011        0.313      118.195       15.310        0.017      345.258       22.659      866.428
07/03/2013  00:24:00     -156.949     -121.528       -5.176       43.958       35.965       29.886     1932.348     1293.510      893.158        2.177        0.206      198.499       22.936        0.013      345.235       22.618      866.438
07/03/2013  00:25:00     -128.999      -96.352        3.911       74.976       42.710       33.590     5621.345     1824.124     1128.264        1.725        0.429      161.011       39.032        0.059      345.194       22.547      866.458
07/03/2013  00:26:00     -109.245      -81.869        2.273       69.747       45.229       28.984     4864.622     2045.654      840.055        1.319        0.388      136.517       31.679        0.054      345.182       22.530      866.473
07/03/2013  00:27:00      -83.330      -59.321       10.430       71.765       47.425       37.118     5150.163     2249.156     1377.753        0.967        0.439      102.288       38.789        0.144      345.153       22.479      866.492
07/03/2013  00:28:00     -101.482      -79.412        2.061       46.988       40.759       31.432     2207.904     1661.334      987.960        1.073        0.243      128.859       21.228        0.027      345.136       22.452      866.523
07/03/2013  00:29:00      -59.169      -77.049        6.050       37.633       35.198       32.853     1416.206     1238.919     1079.338        0.660        0.187       97.147       28.427        0.086      345.158       22.488      866.538
07/03/2013  00:30:00      -91.039      -59.045        6.441       51.454       45.811       28.382     2647.557     2098.653      805.514        0.868        0.278      108.510       24.296        0.050      345.067       22.334      866.531
07/03/2013  00:31:00     -109.490     -102.538       -8.320       59.945       45.890       35.775     3593.419     2105.888     1279.855        1.477        0.349      150.007       34.337        0.052      345.046       22.298      866.525
07/03/2013  00:32:00     -123.716      -72.179       10.039       71.723       62.319       39.840     5144.246     3883.632     1587.255        1.561        0.531      143.233       37.529        0.069      344.981       22.184      866.509
07/03/2013  00:33:00     -134.138      -93.378        8.985       81.429       53.339       48.722     6630.666     2845.038     2373.851        1.932        0.592      163.439       46.112        0.080      344.894       22.034      866.476
07/03/2013  00:34:00     -118.241      -92.871        1.883       97.786       61.621       42.452     9562.047     3797.111     1802.130        1.888        0.758      150.353       50.256        0.112      344.893       22.033      866.450
07/03/2013  00:35:00     -178.520     -136.200      -24.827       44.542       53.616       29.868     1983.949     2874.692      892.122        2.839        0.288      224.543       17.419        0.006      344.877       22.004      866.432
07/03/2013  00:36:00     -136.825     -112.811        1.864       61.123       54.667       36.236     3736.041     2988.474     1313.046        1.974        0.402      177.334       30.295        0.029      344.874       22.001      866.407
07/03/2013  00:37:00     -128.168     -107.367        0.359       53.003       49.575       26.506     2809.334     2457.652      702.547        1.696        0.298      167.197       28.389        0.029      344.874       22.002      866.404
07/03/2013  00:38:00     -114.770      -81.154       -7.868       49.789       37.588       30.495     2478.897     1412.864      929.972        1.232        0.241      140.564       32.512        0.053      344.864       21.986      866.401
07/03/2013  00:39:00      -94.831      -62.015       -1.163       44.264       32.373       31.687     1959.298     1048.024     1004.069        0.843        0.201      113.309       26.542        0.055      344.861       21.982      866.388
07/03/2013  00:40:00      -99.651      -42.042       -0.886       64.982       40.460       27.361     4222.692     1637.051      748.599        0.915        0.330      108.157       29.977        0.077      344.894       22.038      866.385
07/03/2013  00:41:00     -149.794      -52.468        1.900       62.655       44.267       29.808     3925.644     1959.535      888.498        1.598        0.339      158.717       31.190        0.039      344.877       22.007      866.371
07/03/2013  00:42:00     -114.944      -50.102       -0.008       52.757       40.053       25.112     2783.330     1604.227      630.605        1.037        0.251      125.388       22.131        0.031      344.889       22.027      866.365
07/03/2013  00:43:00     -102.124      -47.243       -1.402       38.039       40.001       26.148     1446.979     1600.082      683.729        0.820        0.187      112.522       22.084        0.039      344.897       22.042      866.358
07/03/2013  00:44:00     -130.243     -108.526       -2.124       51.062       38.763       28.385     2607.334     1502.601      805.685        1.683        0.246      169.532       24.792        0.021      344.880       22.012      866.352
07/03/2013  00:45:00     -112.016     -118.916        3.047       60.755       48.738       34.401     3691.133     2375.366     1183.453        1.697        0.362      163.367       32.570        0.040      344.833       21.933      866.342
07/03/2013  00:46:00     -126.718     -120.044        7.080       74.252       57.927       42.618     5513.372     3355.577     1816.328        2.060        0.534      174.551       43.421        0.062      344.800       21.874      866.339
07/03/2013  00:47:00     -181.775     -119.397       -1.720       75.126       49.218       38.326     5643.970     2422.449     1468.865        2.842        0.477      217.481       41.430        0.036      344.765       21.813      866.337
07/03/2013  00:48:00     -157.265     -109.789        2.930       73.647       53.522       40.238     5423.948     2864.569     1619.062        2.335        0.495      191.797       38.796        0.041      344.775       21.832      866.324
07/03/2013  00:49:00     -131.991     -104.487       -7.408       51.755       47.729       27.485     2678.595     2278.058      755.423        1.705        0.286      168.342       25.462        0.023      344.818       21.904      866.326
07/03/2013  00:50:00     -110.437      -41.980       -2.916       40.994       45.895       22.676     1680.546     2106.377      514.209        0.913        0.215      118.146       21.595        0.033      344.777       21.838      866.337
07/03/2013  00:51:00     -123.496      -80.605       -1.321       43.128       31.190       22.305     1860.020      972.794      497.522        1.254        0.167      147.474       17.056        0.013      344.794       21.866      866.339
07/03/2013  00:52:00     -102.257      -68.122       -2.865       48.506       36.346       23.948     2352.870     1321.055      573.505        0.968        0.212      122.870       27.785        0.051      344.766       21.819      866.332
07/03/2013  00:53:00      -95.371      -59.436       -4.696       48.669       34.455       19.916     2368.627     1187.139      396.646        0.830        0.198      112.376       14.895        0.018      344.775       21.834      866.332
07/03/2013  00:54:00     -129.854      -53.955       -5.883       48.982       39.295       20.052     2399.217     1544.094      402.067        1.208        0.217      140.618       21.604        0.024      344.758       21.804      866.335
07/03/2013  00:55:00     -141.861      -33.450        0.134       41.930       46.119       23.953     1758.155     2126.967      573.725        1.285        0.223      145.751       22.172        0.023      344.647       21.615      866.326
07/03/2013  00:56:00     -120.480      -58.921       -4.420       54.120       29.920       25.088     2928.975      895.199      629.420        1.123        0.223      134.116       10.052        0.006      344.629       21.584      866.321
07/03/2013  00:57:00     -122.817      -51.722       -2.498       60.652       37.394       26.603     3678.630     1398.275      707.735        1.177        0.289      133.264       27.937        0.044      344.655       21.629      866.314
07/03/2013  00:58:00     -100.535      -48.104        4.054       45.874       30.677       20.109     2104.442      941.050      404.354        0.794        0.172      111.451       19.522        0.031      344.641       21.605      866.307
07/03/2013  00:59:00      -73.736      -51.220        4.787       32.552       27.454       21.052     1059.628      753.712      443.193        0.517        0.113       89.780       15.795        0.031      344.658       21.633      866.309
07/03/2013  01:00:00     -106.889      -45.918       -8.498       45.371       29.900       15.876     2058.553      894.010      252.036        0.840        0.160      116.334       18.722        0.026      344.697       21.701      866.310
07/03/2013  01:01:00     -120.939      -65.826       -2.888       34.077       23.871       17.080     1161.223      569.819      291.730        1.049        0.101      137.693       18.336        0.018      344.719       21.738      866.301
07/03/2013  01:02:00     -150.690      -46.109       -9.991       32.920       22.236       12.591     1083.727      494.443      158.524        1.333        0.087      157.587        9.177        0.003      344.752       21.792      866.300
07/03/2013  01:03:00     -171.784      -58.604       -7.072       14.804       24.565       12.066      219.147      603.458      145.579        1.698        0.048      181.505       11.285        0.004      344.765       21.814      866.309
07/03/2013  01:04:00     -146.614      -70.318       -2.326       38.392       30.912       22.912     1473.964      955.542      524.961        1.470        0.148      162.605       19.361        0.014      344.815       21.901      866.314
07/03/2013  01:05:00     -120.768      -61.591       -9.417       30.384       24.045       15.115      923.211      578.177      228.456        1.010        0.086      135.567       10.824        0.006      344.790       21.860      866.314
07/03/2013  01:06:00     -104.468      -82.065       -6.441       25.249       21.471       16.153      637.524      461.006      260.915        0.952        0.068      132.846       11.456        0.007      344.823       21.914      866.327
07/03/2013  01:07:00      -93.868      -30.924       -3.375       27.308       23.238       17.946      745.710      540.026      322.042        0.569        0.080       98.831       15.554        0.025      344.745       21.780      866.331
07/03/2013  01:08:00      -80.988      -26.474       -4.008       35.899       18.800       12.483     1288.757      353.436      155.817        0.454        0.090       85.205       12.973        0.023      344.668       21.649      866.321
07/03/2013  01:09:00     -122.233       -5.638       -8.473       38.119       19.295       18.587     1453.047      372.302      345.489        0.861        0.109      122.363       21.137        0.030      344.717       21.734      866.325
07/03/2013  01:10:00     -103.360      -23.063       -2.071       40.415       27.027       17.505     1633.345      730.483      306.426        0.694        0.134      105.901       18.592        0.031      344.709       21.720      866.328
07/03/2013  01:11:00      -99.614       -0.008       -8.267       29.564       30.919       15.505      874.014      956.014      240.392        0.603        0.104       99.614       12.665        0.016      344.721       21.741      866.329
07/03/2013  01:12:00     -125.202        3.113       -7.227       36.304       34.646       22.663     1318.016     1200.316      513.613        0.938        0.152      125.241       18.887        0.023      344.729       21.754      866.327
07/03/2013  01:13:00     -112.705       -3.427       -8.020       43.257       41.227       23.100     1871.187     1699.673      533.588        0.844        0.205      112.758       22.151        0.039      344.689       21.685      866.327
07/03/2013  01:14:00     -115.621      -40.763       -2.742       41.718       37.373       20.778     1740.430     1396.776      431.738        0.930        0.178      122.596       15.229        0.015      344.610       21.552      866.324
07/03/2013  01:15:00      -96.557      -54.112      -12.726       25.566       35.044       18.152      653.629     1228.059      329.498        0.731        0.111      110.686       13.420        0.015      344.581       21.501      866.303
07/03/2013  01:16:00     -115.267      -34.610       -8.360       41.453       31.530       23.923     1718.327      994.144      572.302        0.892        0.164      120.351       21.987        0.033      344.540       21.432      866.284
07/03/2013  01:17:00     -103.347      -22.031       -6.041       29.364       31.517       23.494      862.230      993.308      551.977        0.680        0.120      105.669       20.367        0.037      344.528       21.410      866.272
07/03/2013  01:18:00     -133.716      -35.530      -11.256       24.037       26.509       15.723      577.763      702.717      247.213        1.040        0.076      138.356        8.601        0.004      344.586       21.510      866.247
07/03/2013  01:19:00     -114.915       -5.725       -2.064       41.679       26.153       22.347     1737.174      683.979      499.378        0.808        0.146      115.058       23.674        0.042      344.569       21.482      866.220
07/03/2013  01:20:00     -152.865       24.855       -8.933       43.851       42.162       20.371     1922.866     1777.601      414.957        1.409        0.206      154.872       18.440        0.014      344.708       21.719      866.202
07/03/2013  01:21:00      -96.946       -3.900      -10.004       51.211       36.555       23.531     2622.597     1336.300      553.690        0.701        0.226       97.024       20.686        0.045      344.714       21.730      866.195
07/03/2013  01:22:00     -114.727        4.592       -9.341       34.834       38.389       23.571     1213.406     1473.687      555.577        0.826        0.162      114.819       15.278        0.018      344.698       21.701      866.189
07/03/2013  01:23:00     -153.388      -35.277       -6.898       38.617       29.622       18.567     1491.309      877.482      344.741        1.377        0.136      157.393        7.051        0.002      344.718       21.734      866.174
07/03/2013  01:24:00     -182.988      -34.183       -7.256       38.806       36.603       24.547     1505.878     1339.773      602.536        1.908        0.172      186.154       21.775        0.014      344.644       21.607      866.166
07/03/2013  01:25:00     -202.759      -22.744       -9.517       55.197       36.293       27.866     3046.697     1317.184      776.524        2.343        0.257      204.030       27.388        0.018      344.634       21.589      866.168
07/03/2013  01:26:00     -144.723      -80.179       -1.244       55.817       49.432       34.641     3115.578     2443.555     1199.983        1.707        0.338      165.449       30.091        0.033      344.649       21.617      866.168
07/03/2013  01:27:00     -146.477      -32.215       -5.044       41.608       38.872       25.706     1731.192     1511.071      660.797        1.321        0.195      149.977       24.080        0.026      344.660       21.636      866.154
07/03/2013  01:28:00     -179.017      -49.733       -9.034       74.473       41.281       27.431     5546.227     1704.133      752.452        2.130        0.400      185.797       30.880        0.028      344.677       21.662      866.138
07/03/2013  01:29:00     -170.551      -30.004       -0.827       62.599       37.484       28.428     3918.653     1405.085      808.143        1.806        0.307      173.170       29.018        0.028      344.635       21.591      866.130
07/03/2013  01:30:00     -211.279      -12.611      -16.894       36.381       41.121       22.861     1323.554     1690.971      522.633        2.431        0.177      211.655       17.747        0.007      344.669       21.650      866.151
07/03/2013  01:31:00     -142.628      -29.536       -5.973       45.572       43.943       20.888     2076.807     1930.986      436.302        1.285        0.222      145.654       17.840        0.015      344.679       21.669      866.157
07/03/2013  01:32:00      -98.736      -32.918       -1.318       44.213       33.226       24.060     1954.805     1103.995      578.862        0.724        0.182      104.079       21.234        0.042      344.664       21.644      866.156
07/03/2013  01:33:00     -122.564      -41.708       -7.955       38.499       29.851       21.639     1482.196      891.074      468.247        0.983        0.142      129.467       13.931        0.012      344.636       21.598      866.155
07/03/2013  01:34:00      -40.451      -44.046        5.117       54.666       30.973       25.049     2988.368      959.353      627.438        0.409        0.229       59.802       28.035        0.220      344.709       21.719      866.168
07/03/2013  01:35:00      -53.676      -82.334        7.601       49.681       34.358       23.213     2468.242     1180.445      538.854        0.695        0.209       98.285       26.558        0.073      344.765       21.815      866.167
07/03/2013  01:36:00      -73.931      -65.749        9.365       48.264       39.167       28.296     2329.420     1534.063      800.646        0.727        0.233       98.938       23.298        0.055      344.724       21.746      866.161
07/03/2013  01:37:00     -114.465      -84.658       -7.688       41.019       43.285       32.199     1682.528     1873.606     1036.776        1.246        0.230      142.370       28.054        0.039      344.671       21.655      866.165
07/03/2013  01:38:00      -89.360      -71.712       -2.820       64.586       39.256       30.029     4171.347     1541.010      901.766        0.987        0.331      114.577       30.522        0.071      344.588       21.514      866.149
07/03/2013  01:39:00     -134.709      -96.087       -0.680       56.100       51.387       34.219     3147.194     2640.637     1170.972        1.717        0.348      165.467       32.440        0.038      344.570       21.483      866.123
07/03/2013  01:40:00      -89.808      -79.930        5.284       70.177       40.652       27.124     4924.841     1652.558      735.730        1.090        0.366      120.226       36.271        0.091      344.598       21.531      866.098
07/03/2013  01:41:00     -147.724     -105.440        4.360       38.734       38.339       26.409     1500.299     1469.889      697.456        1.831        0.183      181.494       18.730        0.011      344.604       21.542      866.104
07/03/2013  01:42:00     -117.676      -77.233        5.342       57.653       47.187       33.400     3323.914     2226.590     1115.561        1.325        0.333      140.757       31.192        0.049      344.557       21.458      866.109
07/03/2013  01:43:00     -132.344      -87.293        2.888       48.734       45.316       27.615     2375.002     2053.553      762.604        1.517        0.260      158.540       24.000        0.023      344.564       21.470      866.121
07/03/2013  01:44:00     -102.785      -87.029        6.214       45.206       42.725       22.798     2043.583     1825.400      519.743        1.128        0.219      134.680       23.207        0.030      344.582       21.504      866.148
07/03/2013  01:45:00      -92.290     -118.332       -0.058       43.625       38.417       26.861     1903.111     1475.855      721.509        1.331        0.205      150.066       23.258        0.024      344.548       21.445      866.178
07/03/2013  01:46:00      -82.496      -87.525       -6.836       31.298       59.216       25.585      979.559     3506.501      654.572        0.983        0.257      120.276       23.205        0.037      344.518       21.393      866.204
07/03/2013  01:47:00      -92.667      -28.156      -10.762       28.131       21.810       18.294      791.367      475.690      334.666        0.555        0.080       96.850        7.408        0.006      344.530       21.416      866.220
07/03/2013  01:48:00      -50.180      -16.827        9.274       30.075       43.140       19.529      904.512     1861.092      381.393        0.302        0.157       52.927       22.549        0.182      344.529       21.413      866.233
07/03/2013  01:49:00      -46.618      -88.875       -5.799       36.966       77.653       23.752     1366.461     6030.045      564.148        0.903        0.398      100.359       26.939        0.072      344.510       21.381      866.257
07/03/2013  01:50:00      -77.592     -115.632       -8.340       50.743       57.826       24.441     2574.806     3343.847      597.362        1.299        0.326      139.253       24.094        0.030      344.460       21.293      866.261
07/03/2013  01:51:00     -112.709      -74.095        8.116       66.641       32.923       36.198     4441.025     1083.928     1310.277        1.255        0.342      134.883       35.564        0.070      344.416       21.219      866.253
07/03/2013  01:52:00     -130.120      -69.169       -6.921       61.102       39.659       43.658     3733.512     1572.856     1906.052        1.449        0.361      147.363       36.788        0.062      344.371       21.142      866.244
07/03/2013  01:53:00      -74.557      -49.608        4.484       73.629       46.195       36.871     5421.241     2133.963     1359.473        0.848        0.446       89.553       34.897        0.152      344.346       21.100      866.245
07/03/2013  01:54:00      -68.167      -47.241       12.089       65.034       45.615       35.647     4229.484     2080.743     1270.744        0.730        0.379       82.937       27.435        0.109      344.373       21.146      866.254
07/03/2013  01:55:00      -61.280      -46.718       11.720       59.210       46.074       29.747     3505.813     2122.804      884.871        0.629        0.326       77.057       29.602        0.148      344.368       21.136      866.259
07/03/2013  01:56:00     -149.028      -89.959       -2.064       63.037       51.205       29.990     3973.711     2621.970      899.405        1.890        0.375      174.075       29.256        0.028      344.301       21.019      866.263
07/03/2013  01:57:00     -105.215      -73.977        8.059       56.882       50.258       27.707     3235.606     2525.826      767.696        1.157        0.326      128.619       33.058        0.066      344.285       20.994      866.261
07/03/2013  01:58:00      -86.335      -74.610        9.293       56.306       39.615       28.003     3170.322     1569.377      784.161        0.931        0.276      114.106       27.894        0.060      344.311       21.040      866.265
07/03/2013  01:59:00     -115.153      -55.281        3.543       55.453       34.883       27.842     3075.058     1216.825      775.195        1.070        0.253      127.734       28.078        0.048      344.331       21.072      866.260
07/03/2013  02:00:00      -65.750      -48.829        4.876       59.654       30.857       24.173     3558.612      952.134      584.325        0.591        0.255       81.899       19.704        0.058      344.370       21.139      866.258
07/03/2013  02:01:00      -47.173      -36.227        3.886       29.409       26.806       19.041      864.868      718.578      362.554        0.275        0.097       59.478       14.419        0.059      344.350       21.108      866.254
07/03/2013  02:02:00      -62.651      -45.345      -11.208       29.781       19.232       12.674      886.879      369.853      160.632        0.376        0.071       77.339        7.736        0.010      344.378       21.153      866.260
07/03/2013  02:03:00      -41.217      -37.479       -6.685       27.447       17.768       15.447      753.323      315.687      238.617        0.223        0.065       55.709       12.596        0.051      344.382       21.160      866.262
07/03/2013  02:04:00      -45.188      -64.104        0.706       28.401       29.377       15.008      806.628      862.980      225.251        0.402        0.095       78.430       13.803        0.031      344.367       21.134      866.268
07/03/2013  02:05:00      -32.491      -50.618       -6.192       23.878       23.526       17.841      570.169      553.484      318.313        0.255        0.072       60.149       16.271        0.073      344.424       21.233      866.277
07/03/2013  02:06:00      -29.442      -82.748        8.369       42.058       30.909       22.394     1768.855      955.393      501.498        0.550        0.161       87.830       29.658        0.114      344.373       21.146      866.274
07/03/2013  02:07:00      -45.868      -76.790       -9.435       19.674       17.079       10.150      387.069      291.704      103.013        0.444        0.039       89.446        8.085        0.008      344.335       21.081      866.261
07/03/2013  02:08:00      -44.868      -82.882       -5.732       24.146       38.039       15.505      583.047     1446.942      240.404        0.559        0.114       94.247       15.333        0.026      344.380       21.158      866.239
07/03/2013  02:09:00      -37.777     -110.989        3.328       23.088       43.496       22.024      533.038     1891.925      485.062        0.833        0.146      117.242       16.874        0.021      344.329       21.072      866.206
07/03/2013  02:10:00      -51.338      -54.012        7.715       38.292       35.687       25.776     1466.278     1273.569      664.403        0.451        0.170       74.518       24.335        0.107      344.392       21.178      866.167
07/03/2013  02:11:00      -55.483      -66.216       -7.603       40.371       39.711       25.181     1629.822     1576.946      634.080        0.568        0.192       86.388       19.886        0.053      344.357       21.119      866.141
07/03/2013  02:12:00      -52.221      -48.896        9.526       67.380       52.794       31.641     4540.031     2787.205     1001.161        0.677        0.416       71.539       31.532        0.194      344.325       21.065      866.138
07/03/2013  02:13:00      -63.628      -56.826       19.643       65.772       44.277       33.447     4325.943     1960.467     1118.679        0.753        0.370       85.309       34.420        0.163      344.265       20.960      866.144
07/03/2013  02:14:00      -10.065      -31.553        6.809       31.658       28.849       24.857     1002.204      832.285      617.846        0.180        0.123       33.119       19.551        0.348      344.340       21.090      866.162
07/03/2013  02:15:00      -18.343        7.931        4.691       21.101       15.573       13.140      445.252      242.505      172.662        0.064        0.043       19.984       14.062        0.495      344.268       20.965      866.192
07/03/2013  02:16:00        0.825      -14.926       -2.480       27.880       38.037       16.928      777.268     1446.797      286.572        0.137        0.126       14.949       14.386        0.926      344.267       20.964      866.196
07/03/2013  02:17:00      -82.063      -93.171       -6.899       29.106       33.543       22.494      847.169     1125.117      505.977        0.897        0.124      124.158       15.420        0.015      344.246       20.929      866.194
07/03/2013  02:18:00      -20.267      -27.889       14.141       35.766       36.392       29.132     1279.220     1324.412      848.684        0.242        0.173       34.476       24.560        0.507      344.238       20.916      866.183
07/03/2013  02:19:00      -48.527      -40.098        1.244       51.332       25.912       25.072     2635.012      671.448      628.616        0.395        0.197       62.950       15.283        0.059      344.259       20.950      866.154
07/03/2013  02:20:00      -26.843      -28.583       -9.887       24.037       30.871       19.203      577.761      953.033      368.744        0.177        0.095       39.211       14.132        0.130      344.257       20.946      866.145
07/03/2013  02:21:00      -60.889       -0.563        4.333       46.301       17.539       19.978     2143.822      307.607      399.118        0.329        0.143       60.891       20.629        0.115      344.203       20.854      866.153
07/03/2013  02:22:00      -97.402       -8.403      -16.162       23.590       22.771       15.562      556.494      518.539      242.176        0.557        0.066       97.764       10.996        0.013      344.179       20.812      866.153
07/03/2013  02:23:00     -104.030      -29.542      -10.370       25.237       36.321       20.920      636.899     1319.202      437.631        0.710        0.120      108.143       11.758        0.012      344.198       20.849      866.138
07/03/2013  02:24:00      -90.984      -57.806       -1.612       40.530       35.670       24.008     1642.693     1272.373      576.380        0.756        0.175      107.795       24.571        0.052      344.210       20.866      866.113
07/03/2013  02:25:00      -75.522      -83.452        5.741       62.554       51.563       30.831     3912.967     2658.789      950.562        1.011        0.376      112.551       32.452        0.083      344.184       20.822      866.094
07/03/2013  02:26:00      -91.122      -87.662        7.927       51.836       47.502       30.390     2686.943     2256.412      923.582        1.096        0.293      126.443       29.732        0.055      344.130       20.731      866.085
07/03/2013  02:27:00      -80.730      -70.267       -2.546       54.323       32.206       23.778     2951.003     1037.195      565.392        0.801        0.228      107.027       23.568        0.048      344.164       20.788      866.091
07/03/2013  02:28:00      -62.852      -21.674        7.093       61.816       25.044       23.498     3821.263      627.218      552.175        0.473        0.250       66.484       30.696        0.213      344.151       20.765      866.116
07/03/2013  02:29:00      -93.100      -29.163       -9.258       27.964       28.367       15.922      781.982      804.708      253.526        0.572        0.092       97.561       15.459        0.025      344.128       20.725      866.134
07/03/2013  02:30:00     -111.754       -7.689       -6.309       45.141       27.125       19.739     2037.717      735.759      389.624        0.787        0.158      112.018       20.691        0.034      344.021       20.546      866.143
07/03/2013  02:31:00      -68.100       -8.592        6.105       41.459       35.409       26.222     1718.848     1253.792      687.568        0.420        0.183       68.640       21.744        0.100      343.938       20.403      866.157
07/03/2013  02:32:00     -110.481       -6.930       -5.132       35.352       31.931       18.718     1249.793     1019.594      350.353        0.745        0.131      110.698       14.889        0.018      343.918       20.367      866.175
07/03/2013  02:33:00      -96.848      -17.008       -7.429       25.208       30.845       16.352      635.458      951.412      267.399        0.579        0.093       98.330       11.845        0.015      343.897       20.332      866.182
07/03/2013  02:34:00      -85.053      -66.199       -1.253       41.917       41.676       25.086     1757.055     1736.921      629.314        0.787        0.206      107.779       29.312        0.074      343.940       20.405      866.173
07/03/2013  02:35:00      -56.802      -39.231        2.887       37.094       21.919       19.150     1376.000      480.444      366.739        0.350        0.111       69.033       18.015        0.068      343.918       20.368      866.144
07/03/2013  02:36:00      -36.656      -21.996        5.770       34.543       25.380       21.268     1193.189      644.146      452.337        0.207        0.114       42.749       11.992        0.079      343.949       20.420      866.103
07/03/2013  02:37:00      -84.665      -55.801       -2.648       35.847       28.203       18.165     1285.027      795.393      329.976        0.635        0.121      101.400       16.846        0.028      343.886       20.314      866.068
07/03/2013  02:38:00     -102.743      -45.882       -3.224       28.597       20.075       16.363      817.762      403.008      267.747        0.708        0.074      112.522       12.616        0.013      343.899       20.335      866.043
07/03/2013  02:39:00     -116.096      -42.169       -8.231       31.389       26.607       21.045      985.259      707.926      442.887        0.873        0.107      123.517       19.991        0.026      343.932       20.392      866.032
07/03/2013  02:40:00     -115.365      -32.170       -3.842       25.833       18.953       16.142      667.329      359.230      260.567        0.782        0.064      119.766        8.565        0.005      343.918       20.367      866.029
07/03/2013  02:41:00     -116.914      -25.606       -3.645       34.483       20.617       18.738     1189.107      425.069      351.102        0.815        0.098      119.686       19.797        0.027      343.905       20.347      866.039
07/03/2013  02:42:00     -101.604      -17.173       -3.304       47.106       24.962       18.953     2218.991      623.080      359.206        0.691        0.160      103.045       22.140        0.046      343.884       20.310      866.064
07/03/2013  02:43:00     -130.824      -25.662       -6.127       31.371       21.900       18.524      984.118      479.594      343.127        0.981        0.090      133.317       15.129        0.013      343.894       20.328      866.066
07/03/2013  02:44:00     -108.581      -15.541       -4.975       43.639       29.727       18.088     1904.323      883.672      327.164        0.758        0.156      109.687       15.976        0.021      343.884       20.311      866.073
07/03/2013  02:45:00     -112.381       15.979       -7.404       43.191       30.062       17.347     1865.473      903.745      300.914        0.800        0.154      113.512       13.985        0.015      343.917       20.365      866.084
07/03/2013  02:46:00     -148.280       23.457      -12.508       36.100       33.095       19.814     1303.245     1095.261      392.583        1.274        0.140      150.123       13.570        0.008      343.936       20.398      866.102
07/03/2013  02:47:00     -133.035      -13.458       -5.081       52.199       51.222       26.008     2724.734     2623.707      676.409        1.196        0.301      133.714       26.603        0.040      343.966       20.450      866.100
07/03/2013  02:48:00     -115.001      -28.808        1.173       43.678       38.830       24.654     1907.762     1507.777      607.814        0.904        0.201      118.555       22.663        0.037      343.930       20.387      866.096
07/03/2013  02:49:00     -121.380       -8.181       -7.944       29.702       26.184       20.618      882.234      685.579      425.098        0.843        0.100      121.655       18.416        0.023      343.967       20.451      866.093
07/03/2013  02:50:00     -112.528       -9.213       -4.855       33.895       27.293       22.884     1148.842      744.887      523.692        0.759        0.121      112.904       20.366        0.033      343.954       20.429      866.090
07/03/2013  02:51:00      -94.835      -15.468       -6.044       35.513       27.829       18.858     1261.168      774.468      355.621        0.583        0.120       96.088       13.523        0.020      343.999       20.507      866.089
07/03/2013  02:52:00     -122.850      -39.489       -5.440       47.287       30.961       15.776     2236.030      958.592      248.894        1.006        0.172      129.040        8.908        0.005      344.027       20.555      866.077
07/03/2013  02:53:00     -121.216      -23.533       -8.517       30.888       32.675       17.469      954.046     1067.679      305.153        0.882        0.116      123.480       15.559        0.016      343.989       20.489      866.073
07/03/2013  02:54:00     -116.899      -16.593       -6.218       32.893       18.685       15.374     1081.919      349.112      236.369        0.782        0.083      118.070       15.905        0.018      343.927       20.383      866.085
07/03/2013  02:55:00      -82.849      -41.773       -7.304       20.074       26.586       12.173      402.956      706.794      148.185        0.496        0.063       92.784       12.424        0.018      343.962       20.444      866.087
07/03/2013  02:56:00      -99.072      -24.127      -11.039       33.767       18.695       13.590     1140.177      349.515      184.677        0.610        0.084      101.967       15.281        0.022      344.034       20.566      866.089
07/03/2013  02:57:00      -83.200      -37.170       -6.840       31.164       23.588       19.450      971.168      556.382      378.306        0.513        0.095       91.126       20.363        0.050      344.058       20.608      866.084
07/03/2013  02:58:00      -94.282      -52.676       -0.072       33.360       38.564       18.510     1112.879     1487.205      342.612        0.730        0.147      108.000       13.456        0.016      344.085       20.654      866.091
07/03/2013  02:59:00     -108.790      -66.459        0.599       34.190       26.994       16.905     1168.931      728.679      285.767        0.922        0.109      127.484       15.160        0.014      344.142       20.752      866.100
07/03/2013  03:00:00     -110.763      -41.176       -4.397       34.747       33.353       19.545     1207.329     1112.414      382.003        0.834        0.135      118.169       12.996        0.012      344.177       20.809      866.096
07/03/2013  03:01:00     -100.195      -45.780       -3.951       20.821       23.840       15.076      433.525      568.355      227.288        0.669        0.061      110.158        6.215        0.003      344.142       20.752      866.093
07/03/2013  03:02:00      -52.908      -45.573        4.539       36.297       26.373       21.869     1317.446      695.526      478.236        0.369        0.125       69.829       21.559        0.095      344.215       20.875      866.090
07/03/2013  03:03:00      -56.624      -38.457        6.104       44.568       33.750       22.421     1986.268     1139.071      502.689        0.417        0.181       68.448       25.163        0.135      344.216       20.876      866.092
07/03/2013  03:04:00      -43.805      -47.980        6.262       45.553       30.851       20.187     2075.037      951.779      407.508        0.385        0.172       64.968       24.175        0.138      344.215       20.877      866.086
07/03/2013  03:05:00      -34.197      -42.248        4.899       30.301       23.518       19.359      918.128      553.119      374.772        0.241        0.092       54.354       17.353        0.102      344.251       20.937      866.088
07/03/2013  03:06:00      -12.526      -20.233        1.706       21.241       16.094       11.258      451.169      259.026      126.750        0.070        0.042       23.797       10.481        0.194      344.247       20.929      866.085
07/03/2013  03:07:00      -11.903      -27.596       -2.079       15.765       21.597       12.728      248.528      466.419      162.005        0.089        0.044       30.054        9.160        0.093      344.320       21.056      866.085
07/03/2013  03:08:00      -41.509      -34.248       10.540       33.369       30.099       16.923     1113.466      905.942      286.391        0.266        0.115       53.814       20.441        0.144      344.292       21.008      866.077
07/03/2013  03:09:00      -73.408      -43.091        1.651       35.796       26.991       19.326     1281.321      728.528      373.492        0.482        0.119       85.121       12.477        0.021      344.270       20.970      866.067
07/03/2013  03:10:00     -116.672      -62.709       -4.315       42.623       29.454       14.116     1816.688      867.552      199.273        1.022        0.144      132.457       10.045        0.006      344.222       20.888      866.053
07/03/2013  03:11:00      -94.328      -65.574        4.124       57.417       37.074       20.823     3296.664     1374.485      433.606        0.916        0.255      114.881       24.395        0.045      344.172       20.801      866.033
07/03/2013  03:12:00      -94.455      -60.852        9.629       59.831       36.299       28.744     3579.732     1317.652      826.204        0.922        0.286      112.360       30.031        0.071      344.122       20.716      866.026
07/03/2013  03:13:00      -83.801      -67.765        5.693       46.392       31.678       27.272     2152.226     1003.513      743.762        0.777        0.195      107.771       26.319        0.060      344.098       20.676      866.026
07/03/2013  03:14:00      -70.702      -25.596       -9.763       34.753       30.035       15.763     1207.785      902.109      248.479        0.405        0.118       75.192       14.101        0.035      344.087       20.660      866.033
07/03/2013  03:15:00      -33.805      -19.798        1.934       22.330       17.216       13.936      498.621      296.384      194.222        0.126        0.049       39.175       12.042        0.094      344.033       20.566      866.034
07/03/2013  03:16:00      -53.012      -28.962       -1.458       30.713       21.728       14.489      943.264      472.091      209.926        0.264        0.081       60.408       17.891        0.088      344.065       20.619      866.034
07/03/2013  03:17:00      -26.479      -21.561        1.969       20.858       22.045       16.868      435.068      485.967      284.522        0.119        0.060       34.147       11.300        0.110      344.088       20.661      866.033
07/03/2013  03:18:00      -34.614      -50.330        1.682       27.328       18.538       14.279      746.799      343.661      203.877        0.251        0.065       61.084        6.297        0.011      344.216       20.877      866.040
07/03/2013  03:19:00      -75.040      -54.247      -12.902       35.189       22.943       15.594     1238.298      526.383      243.162        0.537        0.100       92.594       11.285        0.015      344.153       20.770      866.032
07/03/2013  03:20:00      -65.629      -49.308        0.270       37.876       28.450       27.804     1434.574      809.399      773.074        0.488        0.151       82.088       11.310        0.019      344.120       20.713      866.033
07/03/2013  03:21:00     -112.571     -109.114       -1.772       29.836       41.133       26.377      890.204     1691.888      695.730        1.393        0.164      156.774       17.947        0.013      344.097       20.675      866.033
07/03/2013  03:22:00      -88.752      -69.408        1.362       38.941       43.493       28.017     1516.436     1891.672      784.928        0.844        0.210      112.669       22.884        0.041      344.021       20.544      866.034
07/03/2013  03:23:00      -67.343      -43.714        7.843       64.812       34.844       33.747     4200.637     1214.121     1138.891        0.653        0.328       80.287       30.476        0.144      343.911       20.357      866.034
07/03/2013  03:24:00     -125.769      -65.534      -12.778       52.044       45.819       35.927     2708.548     2099.355     1290.722        1.319        0.305      141.819       24.522        0.030      343.904       20.343      866.039
07/03/2013  03:25:00     -128.586      -70.247        4.096       60.731       45.732       37.060     3688.220     2091.460     1373.458        1.432        0.358      146.523       29.347        0.040      343.788       20.145      866.047
07/03/2013  03:26:00     -144.509     -103.937      -10.705       62.621       52.209       33.555     3921.352     2725.793     1125.954        1.979        0.389      178.005       27.084        0.023      343.719       20.027      866.057
07/03/2013  03:27:00     -163.299     -122.896        1.795       62.702       61.360       37.732     3931.529     3765.060     1423.726        2.544        0.456      204.377       37.276        0.033      343.738       20.057      866.053
07/03/2013  03:28:00     -126.961     -107.520       -6.496       81.113       54.824       35.317     6579.388     3005.687     1247.297        1.928        0.542      166.372       39.957        0.058      343.720       20.027      866.050
07/03/2013  03:29:00     -142.657      -92.466        2.049       84.840       72.243       35.620     7197.780     5219.003     1268.800        2.129        0.684      170.002       43.231        0.065      343.612       19.845      866.029
07/03/2013  03:30:00     -157.074      -91.886        7.578       81.858       54.247       36.914     6700.740     2942.687     1362.634        2.209        0.550      181.976       31.974        0.031      343.579       19.787      866.016
07/03/2013  03:31:00     -136.205      -84.367       -2.166       73.402       54.242       39.441     5387.852     2942.186     1555.625        1.778        0.494      160.218       34.258        0.046      343.556       19.750      865.997
07/03/2013  03:32:00     -131.968     -130.019       -6.751       54.226       49.944       34.480     2940.425     2494.364     1188.869        2.049        0.331      185.258       32.385        0.031      343.543       19.725      865.995
07/03/2013  03:33:00      -77.422      -75.232        7.514       53.340       41.012       31.526     2845.183     1681.976      993.900        0.861        0.276      107.953       19.959        0.034      343.536       19.717      865.996
07/03/2013  03:34:00      -59.182      -37.217       13.569       69.353       46.421       32.769     4809.898     2154.908     1073.839        0.655        0.402       69.912       33.742        0.233      343.504       19.661      866.008
07/03/2013  03:35:00     -101.301      -53.205        6.902       48.876       45.937       30.685     2388.831     2110.202      941.576        0.929        0.272      114.423       28.928        0.064      343.488       19.635      866.011
07/03/2013  03:36:00      -89.525      -71.315        5.501       83.144       48.632       35.224     6912.852     2365.029     1240.703        1.182        0.526      114.458       44.104        0.148      343.469       19.603      866.016
07/03/2013  03:37:00      -74.902      -56.154       13.082       76.244       47.704       38.339     5813.143     2275.716     1469.844        0.924        0.478       93.614       40.732        0.189      343.435       19.545      866.014
07/03/2013  03:38:00      -82.673      -32.570       14.919       66.744       44.381       28.993     4454.699     1969.691      840.609        0.769        0.363       88.858       26.233        0.087      343.433       19.540      866.010
07/03/2013  03:39:00     -122.505      -68.010        4.679       61.781       51.317       34.750     3816.845     2633.451     1207.583        1.365        0.383      140.117       37.039        0.070      343.378       19.447      866.004
07/03/2013  03:40:00     -129.464      -98.489       -5.664       56.004       51.883       34.413     3136.430     2691.805     1184.276        1.675        0.351      162.668       29.282        0.032      343.415       19.508      866.007
07/03/2013  03:41:00     -121.740     -131.811       -5.925       55.000       43.709       28.492     3025.046     1910.454      811.817        1.899        0.287      179.429       27.094        0.023      343.416       19.511      866.003
07/03/2013  03:42:00     -122.164      -86.692        0.828       49.720       41.008       33.251     2472.103     1681.679     1105.631        1.385        0.263      149.798       24.620        0.027      343.440       19.552      865.981
07/03/2013  03:43:00     -104.257      -75.395       -4.198       54.130       35.633       24.047     2930.048     1269.721      578.240        1.067        0.239      128.662       28.031        0.047      343.476       19.614      865.976
07/03/2013  03:44:00     -109.757      -59.520        1.714       50.853       42.273       28.076     2586.023     1787.009      788.240        1.038        0.258      124.857       26.461        0.045      343.470       19.603      865.978
07/03/2013  03:45:00      -94.625      -61.387        5.077       40.569       37.099       27.672     1645.817     1376.366      765.729        0.827        0.189      112.793       24.360        0.047      343.455       19.578      865.974
07/03/2013  03:46:00      -45.804      -39.610        5.564       40.615       30.409       19.814     1649.608      924.682      392.608        0.333        0.148       60.556       22.120        0.133      343.530       19.707      865.957
07/03/2013  03:47:00     -117.383      -45.135      -11.781       23.440       34.826       19.854      549.445     1212.872      394.176        0.906        0.108      125.762       14.306        0.013      343.436       19.541      865.946
07/03/2013  03:48:00      -82.238      -31.876       -6.450       39.704       27.926       17.819     1576.372      779.866      317.524        0.525        0.134       88.200       20.410        0.054      343.451       19.570      865.944
07/03/2013  03:49:00      -58.869       -4.396        1.707       36.803       20.381       17.644     1354.462      415.389      311.299        0.278        0.104       59.033       16.721        0.080      343.369       19.433      865.935
07/03/2013  03:50:00      -83.696      -38.106        3.160       26.446       23.709       16.906      699.399      562.096      285.798        0.501        0.077       91.962       15.346        0.028      343.355       19.407      865.936
07/03/2013  03:51:00      -93.570      -19.195        1.036       39.323       25.838       16.739     1546.307      667.601      280.205        0.581        0.125       95.518       20.419        0.046      343.455       19.578      865.945
07/03/2013  03:52:00     -113.788      -36.027       -2.934       31.848       34.060       18.361     1014.280     1160.100      337.114        0.838        0.126      119.355       18.859        0.025      343.453       19.577      865.947
07/03/2013  03:53:00     -135.582      -47.545       -3.725       34.358       32.201       25.867     1180.471     1036.933      669.127        1.177        0.144      143.677       21.081        0.022      343.386       19.461      865.966
07/03/2013  03:54:00     -117.137      -63.330       -2.891       55.232       43.527       29.144     3050.625     1894.605      849.368        1.177        0.290      133.160       29.383        0.049      343.429       19.532      865.994
07/03/2013  03:55:00     -107.434      -32.444       -3.240       52.508       29.877       21.084     2757.082      892.613      444.533        0.835        0.205      112.226       15.392        0.019      343.431       19.539      866.003
07/03/2013  03:56:00      -67.168      -34.135       -6.188       44.311       23.598       22.419     1963.494      556.878      502.589        0.437        0.151       75.344        9.868        0.017      343.475       19.612      866.004
07/03/2013  03:57:00      -46.878      -30.362       -0.941       33.311       26.365       20.937     1109.617      695.113      438.363        0.268        0.112       55.852       12.705        0.052      343.491       19.638      866.001
07/03/2013  03:58:00      -58.735      -46.547        2.560       35.937       37.446       18.248     1291.436     1402.198      332.984        0.432        0.151       74.943       17.170        0.052      343.489       19.636      866.003
07/03/2013  03:59:00     -109.185      -50.953       -4.569       21.578       16.057       15.023      465.597      257.824      225.702        0.774        0.047      120.489       10.504        0.008      343.426       19.529      866.006
07/03/2013  04:00:00      -83.112      -32.934        0.992       27.300       17.504       15.778      745.277      306.406      248.931        0.465        0.065       89.400       15.532        0.030      343.406       19.495      865.993
07/03/2013  04:01:00      -64.202      -22.858       -0.639       31.545       14.532       15.793      995.098      211.171      249.430        0.305        0.073       68.150       19.595        0.083      343.412       19.506      865.988
07/03/2013  04:02:00      -79.512      -28.578       -8.405       22.230       27.883       14.723      494.156      777.435      216.759        0.435        0.074       84.492       14.187        0.028      343.447       19.565      865.990
07/03/2013  04:03:00      -94.284      -19.692      -10.810       18.159       18.352       14.734      329.746      336.807      217.098        0.514        0.044       96.319       10.559        0.012      343.467       19.599      865.992
07/03/2013  04:04:00      -93.224      -27.005       -3.401       21.705       15.816       13.657      471.126      250.141      186.524        0.517        0.045       97.056       10.028        0.011      343.506       19.666      865.986
07/03/2013  04:05:00     -126.230      -27.927       -4.226       19.445       15.846       11.806      378.103      251.090      139.382        0.875        0.038      129.283        8.772        0.005      343.537       19.718      865.979
07/03/2013  04:06:00     -115.328      -12.476       -3.225       34.549       22.258       18.013     1193.603      495.414      324.466        0.774        0.101      116.001       16.980        0.021      343.520       19.690      865.986
07/03/2013  04:07:00     -119.465      -13.033      -12.107       46.018       29.778       16.256     2117.613      886.712      264.251        0.893        0.163      120.173       20.666        0.030      343.543       19.728      865.984
07/03/2013  04:08:00      -85.954      -14.857       -1.367       28.645       24.483       16.167      820.527      599.411      261.360        0.465        0.084       87.229        8.876        0.010      343.513       19.677      865.975
07/03/2013  04:09:00     -113.100      -35.728      -10.721       32.668       21.484       16.426     1067.204      461.565      269.828        0.799        0.090      118.609       11.987        0.010      343.524       19.697      865.959
07/03/2013  04:10:00     -138.609      -29.756       -8.611       31.021       22.901       14.081      962.310      524.454      198.287        1.093        0.084      141.767       12.729        0.008      343.516       19.683      865.956
07/03/2013  04:11:00     -107.180       -5.514       -4.060       35.800       26.769       19.441     1281.607      716.564      377.971        0.695        0.119      107.322       17.278        0.026      343.523       19.692      865.953
07/03/2013  04:12:00      -71.438      -15.935       -4.682       25.561       19.946       13.184      653.359      397.827      173.830        0.330        0.061       73.194       14.113        0.037      343.547       19.736      865.945
07/03/2013  04:13:00     -111.663      -31.731      -12.404       36.637       28.657       20.488     1342.260      821.199      419.744        0.811        0.129      116.083       14.651        0.016      343.631       19.879      865.942
07/03/2013  04:14:00     -126.086      -10.514       -5.629       30.267       32.693       20.650      916.108     1068.826      426.428        0.923        0.121      126.523       14.355        0.013      343.679       19.960      865.949
07/03/2013  04:15:00     -115.715      -15.922       -3.321       42.089       32.368       24.264     1771.458     1047.674      588.757        0.853        0.170      116.806       19.072        0.027      343.708       20.009      865.968
07/03/2013  04:16:00      -62.549      -24.558       -7.097       37.830       27.306       17.219     1431.078      745.594      296.477        0.352        0.124       67.197       20.843        0.096      343.684       19.969      865.981
07/03/2013  04:17:00      -10.777        3.934        4.400       24.536       10.800       11.298      602.021      116.640      127.646        0.050        0.042       11.473        9.356        0.665      343.758       20.093      865.992
07/03/2013  04:18:00        2.257      -14.008        4.511       12.209       13.536       12.393      149.049      183.211      153.587        0.035        0.024       14.189       11.338        0.639      343.836       20.228      866.006
07/03/2013  04:19:00      -30.410      -22.985       -6.469       13.265       19.857       10.573      175.962      394.310      111.798        0.109        0.034       38.120        8.942        0.055      343.869       20.286      866.024
07/03/2013  04:20:00      -40.022       -5.000        0.693       10.043        8.535        7.420      100.858       72.845       55.060        0.093        0.011       40.333        5.403        0.018      343.930       20.386      866.031
07/03/2013  04:21:00      -78.173      -24.940       -3.319       18.704       23.679       10.915      349.852      560.685      119.133        0.389        0.051       82.055        6.021        0.005      343.845       20.243      866.024
07/03/2013  04:22:00      -66.935      -51.651        4.891       22.708       17.725       16.666      515.656      314.180      277.745        0.414        0.055       84.547        7.494        0.008      343.746       20.075      866.012
07/03/2013  04:23:00      -59.579      -48.554        2.920       41.747       26.615       19.163     1742.802      708.350      367.216        0.437        0.141       76.858       17.739        0.053      343.634       19.884      866.003
07/03/2013  04:24:00      -97.024      -82.525       -7.994       25.438       22.422       14.324      647.110      502.764      205.190        0.882        0.068      127.373        9.791        0.006      343.605       19.834      865.997
07/03/2013  04:25:00      -81.812      -59.381        4.897       37.846       44.689       25.709     1432.319     1997.104      660.941        0.717        0.205      101.091       18.453        0.033      343.461       19.589      866.001
07/03/2013  04:26:00      -55.650      -64.414        7.073       44.875       30.937       25.804     2013.801      957.092      665.861        0.547        0.182       85.124       27.725        0.106      343.511       19.674      866.007
07/03/2013  04:27:00      -95.148      -87.283        4.223       41.509       39.827       26.770     1723.028     1586.176      716.641        1.036        0.201      129.118       25.528        0.039      343.479       19.620      866.010
07/03/2013  04:28:00      -88.071      -81.658        6.556       55.146       40.429       29.729     3041.067     1634.492      883.824        1.001        0.278      120.103       32.428        0.073      343.478       19.618      866.011
07/03/2013  04:29:00     -119.395      -64.200       -2.698       36.019       25.008       19.422     1297.363      625.377      377.223        1.034        0.115      135.561       11.329        0.007      343.538       19.719      866.012
07/03/2013  04:30:00      -82.182      -82.826        6.164       32.007       30.125       21.959     1024.471      907.498      482.190        0.803        0.121      116.679       17.866        0.023      343.520       19.688      866.023
07/03/2013  04:31:00      -71.736      -62.159        4.012       38.418       23.730       21.171     1475.910      563.125      448.202        0.576        0.124       94.920       15.649        0.027      343.501       19.657      866.030
07/03/2013  04:32:00      -58.828      -54.480        6.997       48.825       27.562       22.435     2383.925      759.640      503.340        0.506        0.182       80.179       23.132        0.083      343.491       19.640      866.040
07/03/2013  04:33:00      -98.296      -54.176       -6.469       26.253       27.483       15.001      689.224      755.302      225.025        0.715        0.083      112.237       12.490        0.012      343.487       19.630      866.042
07/03/2013  04:34:00      -90.680      -52.154       -5.286       25.565       19.967       13.798      653.578      398.700      190.382        0.611        0.062      104.608        7.987        0.006      343.515       19.680      866.038
07/03/2013  04:35:00      -71.584      -51.655        8.615       37.221       22.698       20.665     1385.426      515.216      427.047        0.510        0.116       88.275       23.950        0.074      343.516       19.683      866.030
07/03/2013  04:36:00      -87.152      -46.723        2.138       29.300       22.441       21.027      858.482      503.586      442.155        0.579        0.090       98.887       19.208        0.038      343.507       19.666      866.009
07/03/2013  04:37:00      -72.617      -39.637       -2.677       26.041       38.608       19.806      678.149     1490.552      392.284        0.471        0.128       82.730       19.240        0.054      343.532       19.710      865.995
07/03/2013  04:38:00      -48.337      -32.043       -0.627       44.834       25.564       15.562     2010.126      653.543      242.191        0.313        0.145       57.993       12.408        0.046      343.538       19.720      865.983
07/03/2013  04:39:00      -26.890      -50.741       11.674       41.947       36.887       23.766     1759.543     1360.624      564.836        0.356        0.184       57.426       23.820        0.172      343.492       19.641      865.992
07/03/2013  04:40:00      -73.392      -86.087       -2.657       44.659       30.975       28.177     1994.417      959.469      793.949        0.828        0.187      113.126       25.597        0.051      343.444       19.559      865.999
07/03/2013  04:41:00      -81.516      -95.260      -10.115       45.712       32.750       26.661     2089.618     1072.583      710.829        0.985        0.194      125.376       16.362        0.017      343.446       19.563      866.004
07/03/2013  04:42:00     -117.333      -98.617       -9.591       47.584       29.545       24.677     2264.208      872.929      608.944        1.366        0.187      153.273       17.833        0.014      343.407       19.498      866.004
07/03/2013  04:43:00     -140.053      -96.888      -22.829       38.265       37.968       23.318     1464.193     1441.563      543.735        1.649        0.172      170.300        9.821        0.003      343.375       19.442      865.999
07/03/2013  04:44:00     -109.920      -80.830      -10.448       43.920       43.284       31.246     1928.998     1873.462      976.309        1.175        0.239      136.440       25.526        0.035      343.386       19.460      866.000
07/03/2013  04:45:00      -27.112      -43.271       11.050       40.460       37.022       27.099     1637.044     1370.611      734.363        0.324        0.187       51.063       21.633        0.179      343.375       19.443      865.999
07/03/2013  04:46:00      -12.261      -30.985       17.129       42.562       38.612       25.596     1811.500     1490.862      655.142        0.268        0.198       33.323       26.571        0.636      343.302       19.318      865.998
07/03/2013  04:47:00      -63.235      -39.732       13.531       64.463       39.356       32.953     4155.457     1548.872     1085.877        0.627        0.340       74.681       32.420        0.188      343.228       19.193      865.993
07/03/2013  04:48:00     -125.105      -67.094       -0.407       62.727       43.218       33.276     3934.661     1867.807     1107.323        1.353        0.345      141.961       32.995        0.054      343.180       19.109      865.990
07/03/2013  04:49:00      -53.839      -51.913       20.388       71.674       43.503       31.129     5137.114     1892.530      969.024        0.700        0.400       74.791       29.527        0.156      343.144       19.049      865.993
07/03/2013  04:50:00      -81.600      -65.339        3.966       74.894       39.996       37.501     5609.174     1599.682     1406.300        0.978        0.431      104.536       39.815        0.145      343.155       19.068      865.981
07/03/2013  04:51:00     -130.678     -107.665       -4.588       83.284       72.979       38.184     6936.189     5326.005     1458.029        2.120        0.686      169.318       32.070        0.036      343.126       19.016      865.969
07/03/2013  04:52:00     -130.877     -120.706       -6.020       91.282       65.961       39.864     8332.494     4350.816     1589.171        2.300        0.714      178.041       30.990        0.030      343.125       19.015      865.965
07/03/2013  04:53:00     -116.140      -61.240       -3.097       71.562       58.724       38.017     5121.161     3448.466     1445.255        1.363        0.501      131.297       38.613        0.086      343.082       18.943      865.956
07/03/2013  04:54:00     -103.837      -64.560        7.548       97.750       60.127       43.998     9555.017     3615.259     1935.821        1.505        0.755      122.270       51.735        0.179      343.066       18.916      865.956
07/03/2013  04:55:00     -137.878      -84.852       -1.000       75.657       56.954       35.627     5723.975     3243.731     1269.317        1.822        0.512      161.895       31.408        0.038      343.035       18.863      865.948
07/03/2013  04:56:00      -64.160      -58.084       10.091       69.293       43.546       35.906     4801.579     1896.249     1289.271        0.779        0.399       86.546       30.936        0.128      343.012       18.823      865.942
07/03/2013  04:57:00      -84.910      -64.697        2.727       75.732       53.687       36.583     5735.277     2882.308     1338.331        1.068        0.498      106.749       27.331        0.066      342.981       18.770      865.923
07/03/2013  04:58:00     -116.045      -71.255       -4.419       78.973       52.542       34.212     6236.692     2760.651     1170.491        1.436        0.508      136.175       35.370        0.067      342.933       18.689      865.916
07/03/2013  04:59:00     -157.614     -117.065       -7.592       57.550       45.463       39.789     3312.003     2066.843     1583.167        2.278        0.348      196.333       30.311        0.024      342.908       18.645      865.920
07/03/2013  05:00:00     -131.403      -97.864        1.889       75.380       46.331       28.437     5682.102     2146.580      808.674        1.774        0.432      163.842       33.369        0.041      342.909       18.648      865.922
07/03/2013  05:01:00     -149.147     -116.835        0.727       53.881       41.125       31.784     2903.201     1691.240     1010.242        2.075        0.280      189.461       29.066        0.024      342.884       18.606      865.922
07/03/2013  05:02:00     -132.385      -80.772        6.248       59.435       53.156       36.334     3532.473     2825.568     1320.132        1.588        0.384      155.080       35.029        0.051      342.884       18.606      865.918
07/03/2013  05:03:00     -142.596     -114.686       -3.662       63.645       41.958       35.210     4050.691     1760.451     1239.717        2.027        0.353      182.993       34.491        0.036      342.888       18.613      865.914
07/03/2013  05:04:00     -124.824     -113.040       -8.929       47.465       45.588       24.690     2252.884     2078.221      609.593        1.669        0.247      168.402       25.932        0.024      342.944       18.708      865.900
07/03/2013  05:05:00      -72.522      -99.351        3.073       63.840       48.749       30.973     4075.515     2376.488      959.336        1.127        0.371      123.005       36.721        0.089      342.978       18.767      865.877
07/03/2013  05:06:00      -79.613      -66.552        4.452       48.896       31.232       31.395     2390.848      975.409      985.648        0.757        0.218      103.766       26.371        0.065      343.015       18.829      865.878
07/03/2013  05:07:00     -111.741      -80.568        7.802       66.419       36.336       29.412     4411.549     1320.298      865.049        1.282        0.330      137.758       35.626        0.067      342.993       18.793      865.867
07/03/2013  05:08:00     -131.117      -88.152       -2.473       41.793       38.077       24.694     1746.615     1449.857      609.793        1.439        0.190      157.995       22.958        0.021      342.948       18.715      865.874
07/03/2013  05:09:00      -98.571      -69.515        1.387       46.132       42.240       28.497     2128.186     1784.229      812.079        0.964        0.236      120.617       30.325        0.063      342.945       18.710      865.903
07/03/2013  05:10:00      -80.788      -70.794       -3.725       37.197       22.726       20.303     1383.602      516.492      412.227        0.693        0.116      107.417       19.873        0.034      342.976       18.764      865.926
07/03/2013  05:11:00      -52.806      -71.066       -2.882       42.441       44.386       26.339     1801.228     1970.110      693.739        0.616        0.223       88.537       24.314        0.075      342.968       18.748      865.950
07/03/2013  05:12:00      -81.722      -47.370       -8.500       29.576       24.589       14.344      874.714      604.605      205.765        0.534        0.084       94.458       10.420        0.012      342.976       18.762      865.999
07/03/2013  05:13:00      -76.316      -27.543       -9.344       27.834       20.230       12.919      774.745      409.256      166.908        0.401        0.068       81.134        7.406        0.008      342.978       18.768      866.012
07/03/2013  05:14:00      -54.398      -12.643        1.028       24.043       29.473       11.218      578.051      868.667      125.840        0.235        0.079       55.848       13.965        0.063      342.978       18.767      866.020
07/03/2013  05:15:00      -63.826       -1.763       -7.371       21.516       22.152       11.962      462.929      490.733      143.084        0.261        0.055       63.851        4.195        0.004      343.021       18.840      866.025
07/03/2013  05:16:00      -61.125       13.963      -11.046       30.057       18.102       12.510      903.442      327.672      156.511        0.272        0.069       62.700       10.106        0.026      342.833       18.520      866.027
07/03/2013  05:17:00      -84.629       15.780       -3.511       17.327       16.892       14.581      300.236      285.344      212.592        0.411        0.040       86.087       10.476        0.015      342.855       18.555      866.021
07/03/2013  05:18:00      -74.589        4.740       -4.065       15.976       19.191        9.826      255.223      368.282       96.559        0.316        0.036       74.739        8.541        0.013      342.886       18.610      866.007
07/03/2013  05:19:00      -67.230      -11.651       -0.301       22.506       14.277       10.598      506.512      203.847      112.322        0.274        0.041       68.232       10.523        0.024      342.908       18.646      866.004
07/03/2013  05:20:00      -74.819      -30.773      -10.787       11.621        8.676        6.393      135.058       75.265       40.867        0.346        0.013       80.900        2.678        0.001      342.887       18.610      866.003
07/03/2013  05:21:00      -70.497      -26.682       -9.031       10.473       11.780        9.521      109.690      138.764       90.658        0.305        0.017       75.377        6.967        0.009      342.935       18.691      866.000
07/03/2013  05:22:00      -59.594      -38.226       -5.449       23.963        8.685        8.374      574.240       75.437       70.127        0.288        0.036       70.800        9.189        0.017      342.978       18.766      866.002
07/03/2013  05:23:00       -1.723      -20.936       15.337       15.470       24.417       16.116      239.321      596.194      259.733        0.089        0.055       21.007       12.854        0.374      343.063       18.912      866.019
07/03/2013  05:24:00      -67.862      -20.150       -4.577       28.791       16.159       14.024      828.949      261.118      196.677        0.316        0.064       70.790       16.146        0.052      342.960       18.737      866.035
07/03/2013  05:25:00      -39.155      -45.252       -0.706       20.806       18.311       14.794      432.897      335.296      218.858        0.228        0.049       59.841       10.987        0.034      342.988       18.782      866.041
07/03/2013  05:26:00      -59.874      -44.349       -1.979       23.795       20.722       17.958      566.225      429.389      322.485        0.344        0.066       74.510       17.097        0.053      342.975       18.759      866.042
07/03/2013  05:27:00      -34.177      -30.856        2.240       25.821       22.030       15.541      666.723      485.301      241.531        0.176        0.070       46.045       16.523        0.129      342.998       18.800      866.048
07/03/2013  05:28:00       -7.721      -22.233       11.007       23.758       18.887       18.354      564.435      356.715      336.862        0.097        0.063       23.535       17.209        0.535      342.990       18.787      866.060
07/03/2013  05:29:00      -22.233      -57.922       -3.923       20.907       17.661       17.399      437.111      311.920      302.717        0.246        0.053       62.043       15.424        0.062      343.014       18.828      866.062
07/03/2013  05:30:00      -35.753      -63.005       -7.791       23.046       15.430       13.262      531.107      238.082      175.875        0.313        0.047       72.442       12.052        0.028      343.034       18.861      866.065
07/03/2013  05:31:00      -47.629      -55.093       -3.173       18.519       17.998       14.515      342.967      323.938      210.693        0.310        0.044       72.827       11.100        0.023      343.038       18.868      866.065
07/03/2013  05:32:00      -40.222      -55.448       -9.732       24.095       27.312       14.176      580.588      745.939      200.961        0.316        0.076       68.501       11.333        0.027      343.096       18.967      866.062
07/03/2013  05:33:00      -50.011      -42.717       -3.859       30.759       34.832       17.336      946.106     1213.256      300.548        0.340        0.123       65.772       16.864        0.066      343.104       18.979      866.063
07/03/2013  05:34:00      -95.737      -42.127      -15.760       23.587       25.531       19.367      556.349      651.843      375.076        0.639        0.079      104.596       14.789        0.020      343.117       19.003      866.063
07/03/2013  05:35:00      -59.366      -52.465       -1.778       44.235       38.635       18.832     1956.769     1492.634      354.626        0.504        0.190       79.227       12.848        0.026      343.040       18.870      866.075
07/03/2013  05:36:00      -26.355      -39.132        5.090       32.371       31.654       22.259     1047.896     1001.950      495.482        0.240        0.127       47.179       12.656        0.072      343.025       18.846      866.083
07/03/2013  05:37:00      -58.606      -30.736        9.949       50.484       47.578       28.762     2548.680     2263.638      827.251        0.506        0.282       66.177       25.768        0.152      342.960       18.736      866.080
07/03/2013  05:38:00     -131.584      -75.052       -2.579       45.812       30.294       27.503     2098.777      917.755      756.405        1.336        0.189      151.483       22.548        0.022      342.949       18.716      866.083
07/03/2013  05:39:00     -111.253      -92.971      -12.426       41.496       33.333       26.476     1721.917     1111.090      700.991        1.235        0.177      144.986       26.596        0.034      342.924       18.675      866.092
07/03/2013  05:40:00      -89.043      -68.584       -9.973       43.801       32.544       27.024     1918.507     1059.115      730.285        0.822        0.185      112.394       26.408        0.055      342.884       18.606      866.102
07/03/2013  05:41:00     -139.510      -96.566       -9.040       39.270       26.036       22.890     1542.095      677.874      523.937        1.581        0.137      169.671       15.080        0.008      342.896       18.626      866.108
07/03/2013  05:42:00     -130.349      -93.866      -12.939       42.129       28.692       24.075     1774.816      823.206      579.615        1.457        0.159      160.629       11.161        0.005      342.883       18.603      866.108
07/03/2013  05:43:00     -107.808      -88.166       -4.464       40.787       43.699       25.919     1663.599     1909.580      671.803        1.183        0.212      139.268       24.700        0.031      342.875       18.590      866.104
07/03/2013  05:44:00     -135.094      -75.787       -2.327       32.157       35.038       22.389     1034.104     1227.672      501.275        1.338        0.138      154.901       23.262        0.023      342.875       18.590      866.096
07/03/2013  05:45:00     -103.310      -66.835       -5.792       35.700       28.539       22.188     1274.489      814.495      492.308        0.888        0.129      123.044       24.759        0.040      342.909       18.649      866.094
07/03/2013  05:46:00     -104.010      -72.187      -10.368       16.353       28.047       15.913      267.419      786.631      253.231        0.872        0.065      126.606        8.811        0.005      342.921       18.669      866.096
07/03/2013  05:47:00      -61.223      -61.607       -0.075       37.617       26.327       23.577     1415.046      693.091      555.865        0.510        0.133       86.854       26.560        0.094      342.941       18.703      866.092
07/03/2013  05:48:00      -27.401      -30.863       10.973       30.164       26.736       18.387      909.892      714.834      338.087        0.189        0.098       41.272       15.775        0.146      342.941       18.703      866.088
07/03/2013  05:49:00      -79.355      -16.408      -11.234       11.510       13.409       10.394      132.484      179.793      108.033        0.356        0.021       81.033        5.619        0.005      343.015       18.828      866.078
07/03/2013  05:50:00      -98.027      -36.334      -14.235       12.407       10.192        7.666      153.936      103.876       58.775        0.572        0.016      104.544        5.378        0.003      342.967       18.748      866.073
07/03/2013  05:51:00      -93.554      -29.928       -3.654       18.952       19.644       14.455      359.195      385.903      208.948        0.531        0.048       98.224       10.381        0.011      342.980       18.770      866.070
07/03/2013  05:52:00      -94.006      -39.687       -4.484       19.112       21.187       14.109      365.272      448.868      199.067        0.572        0.051      102.040       12.255        0.014      343.038       18.868      866.083
07/03/2013  05:53:00      -72.469      -70.881       -0.278       35.148       39.060       18.962     1235.365     1525.666      359.551        0.670        0.156      101.369       19.741        0.038      343.019       18.835      866.086
07/03/2013  05:54:00      -96.620     -115.235       -7.368       36.975       26.165       23.898     1367.143      684.632      571.113        1.265        0.131      150.381       24.516        0.027      342.988       18.786      866.096
07/03/2013  05:55:00     -117.014     -121.600      -17.066       29.828       26.324       19.030      889.713      692.954      362.139        1.536        0.097      168.756       14.942        0.008      342.988       18.784      866.097
07/03/2013  05:56:00     -130.827     -114.929       -4.640       58.027       39.803       30.075     3367.093     1584.253      904.502        1.810        0.293      174.139       32.442        0.035      342.908       18.644      866.099
07/03/2013  05:57:00     -140.590     -108.964       -2.488       56.251       47.634       30.426     3164.223     2269.038      925.718        1.900        0.318      177.873       32.525        0.033      342.875       18.588      866.102
07/03/2013  05:58:00     -122.114     -116.079       -0.993       50.086       48.585       32.264     2508.607     2360.517     1040.971        1.715        0.296      168.482       27.542        0.027      342.854       18.555      866.116
07/03/2013  05:59:00     -112.370      -80.517       -4.140       39.941       40.228       23.685     1595.277     1618.262      560.992        1.145        0.189      138.239       18.589        0.018      342.841       18.533      866.135
07/03/2013  06:00:00     -122.445     -109.535       -9.096       35.625       34.417       23.420     1269.122     1184.531      548.492        1.504        0.150      164.289       19.814        0.015      342.805       18.472      866.147
07/03/2013  06:01:00     -121.590     -123.878      -11.304       37.764       33.523       25.382     1426.105     1123.792      644.257        1.673        0.160      173.579       23.454        0.018      342.815       18.489      866.166
07/03/2013  06:02:00     -129.465     -108.572       -4.506       44.160       32.359       34.889     1950.063     1047.121     1217.227        1.639        0.211      168.965       31.546        0.035      342.802       18.468      866.176
07/03/2013  06:03:00     -117.366      -92.732       -4.838       56.621       37.573       35.821     3205.972     1411.765     1283.145        1.415        0.295      149.579       37.013        0.061      342.780       18.430      866.199
07/03/2013  06:04:00     -141.752     -113.732       -2.315       46.677       41.222       26.819     2178.773     1699.245      719.249        1.881        0.230      181.738       25.413        0.020      342.767       18.405      866.209
07/03/2013  06:05:00     -148.261     -121.911       -7.491       55.397       35.906       27.751     3068.856     1289.239      770.121        2.101        0.256      191.947       24.878        0.017      342.752       18.380      866.226
07/03/2013  06:06:00     -115.535      -63.216        3.751       60.027       43.470       32.053     3603.225     1889.600     1027.369        1.194        0.326      131.699       33.541        0.065      342.784       18.434      866.231
07/03/2013  06:07:00     -133.888      -95.444       -7.150       29.423       36.512       23.796      865.686     1333.144      566.235        1.493        0.138      164.425       20.874        0.016      342.757       18.389      866.232
07/03/2013  06:08:00     -100.304      -77.939       -6.172       42.772       29.735       23.669     1829.471      884.193      560.232        0.972        0.164      127.025       19.745        0.024      342.767       18.407      866.231
07/03/2013  06:09:00     -115.721      -86.307      -13.595       29.139       28.510       20.051      849.091      812.840      402.023        1.154        0.103      144.361       10.794        0.006      342.891       18.618      866.230
07/03/2013  06:10:00     -107.057      -65.962       -9.006       26.502       31.077       15.259      702.341      965.792      232.840        0.890        0.095      125.746       10.790        0.007      342.866       18.575      866.222
07/03/2013  06:11:00      -77.464      -41.936       -9.827       42.555       20.013       13.589     1810.941      400.538      184.662        0.513        0.120       88.087       10.949        0.015      342.927       18.677      866.207
07/03/2013  06:12:00      -77.215      -42.157       -8.228       21.646       17.308       13.038      468.560      299.555      169.978        0.437        0.047       87.974       10.968        0.016      342.943       18.710      866.199
07/03/2013  06:13:00      -15.575      -47.455       11.031       42.989       27.212       30.123     1848.045      740.518      907.423        0.306        0.175       49.946       30.812        0.381      343.038       18.870      866.183
07/03/2013  06:14:00      -45.637      -60.636       -8.226       15.720       24.897       10.417      247.122      619.840      108.504        0.340        0.049       75.891        5.361        0.005      342.976       18.763      866.183
07/03/2013  06:15:00      -36.604      -31.260        6.879       40.327       24.464       20.405     1626.235      598.471      416.351        0.250        0.132       48.136       20.923        0.189      343.077       18.935      866.189
07/03/2013  06:16:00      -12.291      -27.400       11.901       33.283       26.567       17.623     1107.740      705.796      310.586        0.158        0.106       30.030       18.425        0.376      343.123       19.014      866.197
07/03/2013  06:17:00        4.597      -12.891       11.512       25.192       17.765       20.019      634.616      315.581      400.774        0.084        0.068       13.687       16.564        1.465      343.144       19.050      866.205
07/03/2013  06:18:00      -28.038      -35.305       -0.528       29.826       24.750       16.839      889.602      612.576      283.549        0.191        0.089       45.084       18.028        0.160      343.090       18.956      866.207
07/03/2013  06:19:00      -28.481      -34.682        1.500       25.692       26.535       20.995      660.071      704.111      440.792        0.191        0.090       44.878       22.616        0.254      343.173       19.098      866.203
07/03/2013  06:20:00      -12.287      -18.979       -0.943       19.879       14.213       14.607      395.162      202.015      213.359        0.066        0.041       22.610       10.485        0.215      343.272       19.267      866.206
07/03/2013  06:21:00      -41.130      -24.431       -3.223       20.845       15.047       16.322      434.520      226.415      266.397        0.161        0.046       47.839       14.648        0.094      343.265       19.254      866.211
07/03/2013  06:22:00      -46.942      -28.259       -9.896       11.305       11.219        8.287      127.807      125.874       68.671        0.171        0.016       54.792        3.375        0.004      343.174       19.101      866.215
07/03/2013  06:23:00      -63.977      -27.506      -18.560       15.924       12.694        8.759      253.566      161.131       76.720        0.284        0.025       69.640        5.124        0.005      343.198       19.142      866.209
07/03/2013  06:24:00      -69.451      -29.292      -12.006       15.586       11.509        9.747      242.936      132.465       94.998        0.315        0.024       75.375        5.156        0.005      343.142       19.046      866.212
07/03/2013  06:25:00      -92.980      -31.630      -10.448       20.438       16.085       11.446      417.722      258.718      131.005        0.528        0.040       98.213        8.477        0.007      343.159       19.074      866.222
07/03/2013  06:26:00     -123.123      -40.712       -7.956       13.264       17.759       13.126      175.943      315.374      172.298        0.877        0.033      129.680        9.903        0.006      343.142       19.046      866.226
07/03/2013  06:27:00      -98.678      -39.676       -2.298       15.436       12.460       11.250      238.260      155.246      126.559        0.592        0.026      106.356       10.270        0.009      343.154       19.065      866.232
07/03/2013  06:28:00      -85.595      -39.674       -7.580       17.839       15.747       10.375      318.235      247.974      107.639        0.482        0.034       94.343        5.181        0.003      343.254       19.234      866.242
07/03/2013  06:29:00      -94.895      -65.543       -9.116       21.350       24.200       16.844      455.832      585.646      283.707        0.735        0.066      115.330       12.591        0.012      343.308       19.327      866.218
07/03/2013  06:30:00      -58.365      -62.095      -11.199       18.845       18.053       13.178      355.119      325.927      173.664        0.412        0.043       85.219        8.030        0.009      343.405       19.493      866.209
07/03/2013  06:31:00      -56.135      -69.200       -3.927       26.540       13.524       18.283      704.382      182.896      334.260        0.459        0.061       89.106       17.504        0.039      343.382       19.453      866.194
07/03/2013  06:32:00      -56.138      -92.701      -11.526       19.445       13.842       12.952      378.126      191.595      167.760        0.631        0.037      108.374        5.939        0.003      343.281       19.282      866.177
07/03/2013  06:33:00      -44.397      -52.547       -5.911       26.269       22.113       16.093      690.035      488.966      258.998        0.310        0.072       68.792       13.373        0.038      343.383       19.455      866.184
07/03/2013  06:34:00      -57.834      -68.126      -10.523       21.984       16.832       13.457      483.312      283.328      181.096        0.452        0.047       89.364        9.152        0.010      343.497       19.650      866.177
07/03/2013  06:35:00      -44.131      -32.411        0.917       21.584       14.143       17.387      465.875      200.025      302.323        0.198        0.048       54.754       16.423        0.090      343.451       19.571      866.177
07/03/2013  06:36:00      -24.451      -13.996        2.328       15.142       18.757       11.583      229.284      351.839      134.154        0.076        0.036       28.173        9.561        0.115      343.479       19.618      866.186
07/03/2013  06:37:00      -25.201      -34.225       -2.787       14.360       23.644        9.735      206.223      559.057       94.762        0.134        0.043       42.502       10.459        0.061      343.436       19.545      866.192
07/03/2013  06:38:00      -44.479      -17.601       -5.985       21.219       13.837        8.500      450.247      191.460       72.247        0.152        0.036       47.835        5.326        0.012      343.446       19.564      866.214
07/03/2013  06:39:00       -9.998      -12.848        1.412       16.653       11.427       10.146      277.319      130.585      102.936        0.039        0.026       16.280        9.859        0.367      343.584       19.799      866.219
07/03/2013  06:40:00      -38.772      -11.441       -2.743       21.043       14.671       14.251      442.828      215.228      203.081        0.125        0.043       40.425        8.234        0.041      343.442       19.556      866.231
07/03/2013  06:41:00      -15.222       -9.383        5.709       14.944       16.667       14.063      223.337      277.786      197.756        0.053        0.035       17.882        7.695        0.185      343.639       19.893      866.239
07/03/2013  06:42:00      -13.649        5.544        9.908       14.426       10.814       12.457      208.122      116.944      155.178        0.040        0.024       14.732       10.505        0.508      343.843       20.240      866.242
07/03/2013  06:43:00      -19.792       11.300       10.643       15.872       11.324       12.307      251.933      128.228      151.470        0.058        0.027       22.791       11.179        0.241      343.683       19.967      866.232
07/03/2013  06:44:00      -10.782        3.062       15.389       20.509       10.666       10.433      420.636      113.762      108.840        0.050        0.032       11.209       11.983        1.143      343.832       20.222      866.221
07/03/2013  06:45:00        8.996        2.480       27.586       16.679       15.272       14.607      278.204      233.232      213.376        0.079        0.036        9.332       12.197        1.708      343.961       20.441      866.201
07/03/2013  06:46:00      -21.267      -16.290        6.073       15.614       12.946       10.150      243.785      167.589      103.019        0.063        0.026       26.789        7.356        0.075      343.724       20.038      866.196
07/03/2013  06:47:00      -32.512      -16.453        5.088       17.239       14.553       11.704      297.178      211.784      136.984        0.100        0.032       36.438        4.833        0.018      343.813       20.189      866.182
07/03/2013  06:48:00      -36.604      -11.754        5.771       18.435       11.011       13.084      339.847      121.244      171.184        0.107        0.032       38.445        6.613        0.030      343.830       20.218      866.174
07/03/2013  06:49:00      -12.946       -0.400        2.946        9.935       14.064       10.530       98.709      197.786      110.873        0.029        0.020       12.952        4.917        0.144      344.040       20.577      866.169
07/03/2013  06:50:00      -26.232       -5.451        1.927       16.248       12.316       12.433      264.004      151.682      154.569        0.065        0.029       26.793       10.706        0.160      344.016       20.536      866.176
07/03/2013  06:51:00      -22.162      -14.363        4.980       23.374       14.384       11.281      546.330      206.903      127.265        0.080        0.044       26.409        8.519        0.104      343.918       20.367      866.192
07/03/2013  06:52:00      -27.035      -17.250        0.525       15.347       17.797       17.244      235.529      316.722      297.371        0.094        0.042       32.070       15.659        0.238      343.923       20.377      866.210
07/03/2013  06:53:00       -0.431        7.325       18.767       15.111       14.544       14.359      228.356      211.532      206.177        0.053        0.032        7.338       12.101        2.719      344.206       20.859      866.234
07/03/2013  06:54:00        2.981       20.355       18.480       20.751       15.260       10.979      430.616      232.869      120.539        0.077        0.039       20.572        8.025        0.152      344.091       20.664      866.259
07/03/2013  06:55:00       18.879       29.273       10.306       28.692       19.752       18.585      823.216      390.141      345.396        0.144        0.078       34.833       12.953        0.138      344.024       20.549      866.275
07/03/2013  06:56:00       -7.778       17.131       16.417       17.870       19.175       18.889      319.326      367.675      356.779        0.083        0.052       18.814       12.001        0.407      344.192       20.836      866.274
07/03/2013  06:57:00      -24.470       41.561       10.306       17.437       25.835       21.072      304.049      667.456      444.031        0.192        0.071       48.230       16.671        0.119      343.829       20.216      866.278
07/03/2013  06:58:00      -27.606       10.037        6.705       21.985       13.921        8.265      483.337      193.804       68.306        0.083        0.037       29.374        6.580        0.050      343.934       20.395      866.265
07/03/2013  06:59:00        1.207       10.272       16.125       11.463       18.883       10.256      131.401      356.558      105.181        0.048        0.030       10.342        7.404        0.512      344.554       21.454      866.265
07/03/2013  07:00:00       23.823       34.456       28.889       22.921       19.305       18.961      525.360      372.690      359.516        0.192        0.063       41.890       14.599        0.121      344.156       20.775      866.270
07/03/2013  07:01:00       51.014       32.815       22.942       34.815       23.026       24.340     1212.074      530.219      592.448        0.327        0.117       60.657       23.594        0.151      344.096       20.674      866.288
07/03/2013  07:02:00       54.087       34.756       10.686       29.199       20.432       24.020      852.592      417.469      576.975        0.305        0.092       64.291       17.086        0.071      344.153       20.769      866.295
07/03/2013  07:03:00       63.332       60.651       19.884       21.625       22.540       24.811      467.655      508.071      615.581        0.484        0.080       87.690       16.454        0.035      343.962       20.445      866.295
07/03/2013  07:04:00       67.879       47.436       -4.397       49.383       29.078       22.293     2438.673      845.531      496.990        0.533        0.189       82.812       19.070        0.053      343.972       20.461      866.295
07/03/2013  07:05:00       34.471       64.473       -1.976       21.075       22.107       20.923      444.152      488.741      437.781        0.336        0.069       73.110       12.934        0.031      343.922       20.374      866.275
07/03/2013  07:06:00       27.624       30.127       20.421       16.035       15.945       13.536      257.111      254.258      183.219        0.139        0.035       40.874        6.693        0.027      344.120       20.713      866.252
07/03/2013  07:07:00       22.476       15.697       10.443       19.721       20.311       18.404      388.904      412.535      338.708        0.100        0.057       27.415       15.810        0.333      344.302       21.024      866.245
07/03/2013  07:08:00       18.928       10.109       13.647       18.922       25.777       11.497      358.030      664.436      132.171        0.090        0.058       21.458        7.214        0.113      344.256       20.945      866.246
07/03/2013  07:09:00       15.233        2.215       17.304       21.113       23.318       14.709      445.768      543.726      216.352        0.087        0.060       15.394       13.948        0.821      344.450       21.278      866.257
07/03/2013  07:10:00        0.151        1.257       25.864       10.050       18.899       10.565      100.994      357.188      111.614        0.062        0.028        1.266       10.904       74.212      344.900       22.046      866.278
07/03/2013  07:11:00       15.595       13.853       23.270       19.788       20.734       14.183      391.559      429.907      201.164        0.100        0.051       20.859        9.120        0.191      344.589       21.516      866.299
07/03/2013  07:12:00       22.557       20.787       14.399       22.858       17.083       16.362      522.480      291.828      267.709        0.111        0.054       30.674       11.694        0.145      344.675       21.663      866.310
07/03/2013  07:13:00       52.364       35.744       26.313       31.910       19.523       19.837     1018.243      381.136      393.500        0.325        0.090       63.400       15.360        0.059      344.577       21.496      866.320
07/03/2013  07:14:00       45.736       49.655       13.607       38.815       24.612       24.278     1506.617      605.766      589.428        0.372        0.135       67.508       11.978        0.031      344.275       20.978      866.309
07/03/2013  07:15:00       35.051       45.030       10.430       20.955       25.768       23.344      439.100      663.986      544.943        0.251        0.082       57.064       12.265        0.046      344.363       21.130      866.286
07/03/2013  07:16:00       23.140       32.527       10.146       17.287       14.065       21.541      298.826      197.813      464.036        0.133        0.048       39.918       16.174        0.164      344.406       21.203      866.272
07/03/2013  07:17:00       23.534       38.141       17.242       25.534       16.580       14.124      651.995      274.889      199.491        0.172        0.056       44.817        9.334        0.043      344.415       21.217      866.263
07/03/2013  07:18:00       23.488       23.505       12.374       22.927       20.316       19.297      525.633      412.748      372.366        0.128        0.066       33.229        8.388        0.064      344.509       21.377      866.259
07/03/2013  07:19:00       39.972       25.777        9.923       21.486       17.666       17.541      461.647      312.073      307.683        0.172        0.054       47.563        4.650        0.010      344.310       21.039      866.261
07/03/2013  07:20:00       40.518       36.349       -0.802       21.159       15.565       20.227      447.700      242.269      409.133        0.203        0.055       54.433        2.672        0.002      344.216       20.876      866.272
07/03/2013  07:21:00       39.508       41.985       -5.653       18.415       20.803       12.214      339.122      432.769      149.182        0.214        0.046       57.651        7.827        0.018      344.283       20.990      866.280
07/03/2013  07:22:00       46.639       51.109        3.752       20.596       17.236       20.229      424.200      297.068      409.216        0.297        0.057       69.190       10.654        0.024      344.476       21.322      866.281
07/03/2013  07:23:00       48.767       37.765       -0.075       24.675       26.844       20.988      608.857      720.613      440.485        0.279        0.088       61.680       19.798        0.103      344.629       21.583      866.284
07/03/2013  07:24:00       38.763       41.687       14.352       29.466       35.683       18.641      868.265     1273.270      347.494        0.297        0.124       56.924       12.561        0.049      344.698       21.702      866.285
07/03/2013  07:25:00        7.624      -22.073       19.409       19.527       30.073       26.762      381.290      904.361      716.213        0.146        0.100       23.352       18.665        0.639      344.866       21.989      866.288
07/03/2013  07:26:00       12.529        7.812       32.324       22.682       14.923       16.481      514.476      222.706      271.637        0.114        0.050       14.765       12.630        0.732      345.058       22.319      866.276
07/03/2013  07:27:00        9.544        5.035       21.319       17.737       19.653       17.681      314.584      386.238      312.610        0.079        0.051       10.791       11.093        1.057      345.070       22.337      866.274
07/03/2013  07:28:00      -20.119        5.508       17.950       16.876        9.101       14.499      284.805       82.836      210.214        0.067        0.029       20.860       12.845        0.379      345.029       22.268      866.257
07/03/2013  07:29:00      -52.191       -4.813        0.395       24.463       19.797       13.257      598.414      391.920      175.753        0.196        0.058       52.412       11.632        0.049      344.403       21.196      866.248
07/03/2013  07:30:00      -51.741      -28.194       -0.769       16.715       21.297       17.712      279.387      453.575      313.729        0.226        0.052       58.924       16.803        0.081      344.369       21.138      866.246
07/03/2013  07:31:00      -26.101      -41.856        1.618        9.645       40.419       11.072       93.032     1633.688      122.595        0.214        0.092       49.327       13.922        0.080      344.379       21.157      866.241
07/03/2013  07:32:00      -12.249      -72.840       -0.590        9.219       12.901       10.651       84.991      166.448      113.452        0.291        0.018       73.863        6.901        0.009      344.343       21.096      866.250
07/03/2013  07:33:00       -2.787      -39.575      -11.522       13.070       13.566       11.040      170.813      184.047      121.879        0.109        0.024       39.673        8.652        0.048      344.409       21.209      866.250
07/03/2013  07:34:00      -11.614      -24.415       -6.593        9.247       11.070       12.800       85.507      122.538      163.845        0.057        0.019       27.037        8.278        0.094      344.511       21.382      866.248
07/03/2013  07:35:00      -15.902      -13.851        3.774       14.869       13.757       15.981      221.092      189.259      255.380        0.056        0.033       21.088       13.724        0.424      344.833       21.933      866.245
07/03/2013  07:36:00      -41.925        3.205       -1.298       19.268       14.547       11.538      371.252      211.619      133.123        0.124        0.036       42.047        7.045        0.028      344.636       21.595      866.238
07/03/2013  07:37:00      -34.252       16.833        1.039       13.699       11.901       15.302      187.654      141.629      234.159        0.101        0.028       38.165       10.853        0.081      344.764       21.814      866.236
07/03/2013  07:38:00      -32.184       10.041        1.969       22.102       15.150       17.965      488.481      229.536      322.745        0.109        0.052       33.714       16.164        0.230      344.885       22.024      866.229
07/03/2013  07:39:00      -16.939      -13.991      -12.886       16.792       18.036       22.583      281.956      325.308      509.992        0.088        0.056       21.970       16.870        0.590      344.808       21.892      866.230
07/03/2013  07:40:00      -27.503       -1.932        7.713       11.007       13.342       17.357      121.148      178.001      301.250        0.071        0.030       27.570       11.698        0.180      344.806       21.886      866.230
07/03/2013  07:41:00      -20.515        6.322        4.119        8.311        9.100       12.393       69.069       82.807      153.578        0.039        0.015       21.467        7.298        0.116      344.845       21.952      866.225
07/03/2013  07:42:00      -24.053       13.194       -2.372       11.814       13.417       10.316      139.577      180.011      106.415        0.059        0.021       27.433        4.919        0.032      344.833       21.933      866.231
07/03/2013  07:43:00      -46.423       -6.997       -7.763       13.447       17.652       12.508      180.828      311.608      156.441        0.146        0.032       46.947        7.483        0.025      344.710       21.721      866.216
07/03/2013  07:44:00      -63.208       16.517       -1.230       12.412       13.607       10.715      154.060      185.154      114.817        0.236        0.023       65.330        7.776        0.014      344.593       21.520      866.216
07/03/2013  07:45:00      -34.448       15.170       -0.233       10.341       15.211        8.746      106.934      231.377       76.496        0.092        0.021       37.640        5.772        0.024      344.651       21.620      866.211
07/03/2013  07:46:00      -28.057        1.818       -3.122        7.686        7.355        5.517       59.076       54.089       30.436        0.047        0.007       28.116        3.030        0.012      344.679       21.668      866.209
07/03/2013  07:47:00      -32.425       -1.360        0.091        7.946       11.700        8.311       63.147      136.892       69.071        0.066        0.013       32.454        1.467        0.002      344.725       21.747      866.220
07/03/2013  07:48:00      -34.580        3.478      -15.427        9.277        8.452        9.080       86.056       71.430       82.438        0.084        0.012       34.754        5.071        0.021      344.813       21.899      866.219
07/03/2013  07:49:00      -21.021        4.493        3.004       18.191       12.430       15.893      330.897      154.513      252.579        0.060        0.037       21.496        4.811        0.050      345.043       22.292      866.226
07/03/2013  07:50:00      -21.618      -12.199        3.474       13.370       11.832       11.937      178.763      140.001      142.490        0.054        0.023       24.822        8.484        0.117      345.118       22.420      866.238
07/03/2013  07:51:00      -24.766       -1.396       -0.323       12.803        7.853        9.022      163.929       61.671       81.399        0.046        0.015       24.805        6.902        0.077      344.989       22.198      866.255
07/03/2013  07:52:00      -16.835        4.836        2.910       11.876        9.191       13.396      141.030       84.467      179.442        0.036        0.020       17.516        7.954        0.206      345.188       22.541      866.273
07/03/2013  07:53:00        0.466      -18.359       16.560       17.418       34.474       23.669      303.373     1188.426      560.225        0.133        0.103       18.365       22.876        1.552      345.587       23.225      866.272
07/03/2013  07:54:00        2.446       22.349       46.622       28.806       25.830       17.850      829.806      667.178      318.622        0.225        0.091       22.482       13.119        0.341      345.696       23.411      866.284
07/03/2013  07:55:00       -9.636       31.060       47.400       18.267       30.923       18.597      333.688      956.236      345.846        0.247        0.082       32.520       19.535        0.361      345.877       23.723      866.280
07/03/2013  07:56:00       17.145      -33.839        8.821       22.095       24.083       23.957      488.184      580.004      573.955        0.158        0.082       37.934       17.099        0.203      345.334       22.790      866.277
07/03/2013  07:57:00        0.078      -15.239       16.697       21.960       22.229       15.753      482.234      494.125      248.147        0.087        0.061       15.239       12.557        0.679      345.746       23.497      866.267
07/03/2013  07:58:00        0.121       10.451       22.455       10.969       12.124       11.043      120.311      146.980      121.956        0.050        0.019       10.452        5.376        0.265      345.909       23.777      866.260
07/03/2013  07:59:00      -12.641        0.309       24.439       12.744       12.515       14.075      162.406      156.625      198.104        0.064        0.026       12.645       10.622        0.706      345.972       23.885      866.253
07/03/2013  08:00:00      -16.002       15.565       25.073       13.258       18.271       19.622      175.767      333.840      385.028        0.101        0.045       22.324       10.341        0.215      346.084       24.078      866.246
07/03/2013  08:01:00      -15.445        8.996       13.044       14.293       17.809       18.050      204.278      317.168      325.810        0.067        0.042       17.873       10.916        0.373      345.719       23.452      866.242
07/03/2013  08:02:00      -42.472       -4.898       -3.679       15.141       16.159       12.959      229.264      261.122      167.931        0.125        0.033       42.753       10.719        0.063      345.173       22.516      866.222
07/03/2013  08:03:00      -57.474      -26.173       -5.829       11.118       12.556        8.184      123.600      157.656       66.983        0.219        0.017       63.153        3.379        0.003      345.092       22.376      866.216
07/03/2013  08:04:00      -45.590      -41.995       -0.759       25.801       27.307       18.658      665.666      745.680      348.136        0.280        0.088       61.985       16.258        0.069      345.133       22.446      866.207
07/03/2013  08:05:00      -39.700      -67.780       -7.333       15.464       13.377       11.661      239.142      178.956      135.969        0.339        0.028       78.551        6.421        0.007      345.097       22.384      866.196
07/03/2013  08:06:00      -46.275      -37.895       -4.989       12.991       12.054       10.882      168.773      145.302      118.410        0.202        0.022       59.812        6.438        0.012      345.144       22.464      866.192
07/03/2013  08:07:00      -50.462      -13.333       -4.604       14.017        8.137       10.211      196.463       66.214      104.264        0.156        0.018       52.194        5.342        0.010      345.199       22.558      866.195
07/03/2013  08:08:00      -37.372        8.008      -10.401       12.457       14.766       10.607      155.177      218.046      112.503        0.103        0.024       38.221        2.665        0.005      345.228       22.608      866.192
07/03/2013  08:09:00      -18.569       15.846       10.734       18.419       16.183       18.917      339.276      261.885      357.840        0.083        0.048       24.411       14.036        0.331      345.739       23.485      866.191
07/03/2013  08:10:00      -19.663       -9.735       11.506       11.482       10.939       12.725      131.836      119.663      161.916        0.051        0.021       21.941        5.969        0.074      345.625       23.290      866.188
07/03/2013  08:11:00      -13.790        3.981       18.390       12.815       19.880       14.692      164.231      395.217      215.842        0.066        0.039       14.353        5.046        0.124      346.169       24.225      866.185
07/03/2013  08:12:00      -26.276       -6.919       -4.548        9.679       12.524       14.546       93.686      156.848      211.594        0.061        0.023       27.171       10.817        0.158      345.465       23.015      866.188
07/03/2013  08:13:00        2.074        5.714       28.074       14.409       12.377       11.010      207.607      153.188      121.222        0.065        0.024        6.079        6.944        1.305      346.699       25.136      866.181
07/03/2013  08:14:00       22.750       32.712       15.454       17.575       18.781       20.381      308.876      352.737      415.403        0.145        0.054       39.846        6.434        0.026      345.738       23.483      866.173
07/03/2013  08:15:00       30.045       30.651       11.089       21.893       21.173       20.197      479.289      448.275      407.899        0.165        0.067       42.920       11.888        0.077      345.636       23.308      866.156
07/03/2013  08:16:00       29.579       53.410       -7.046       23.441       23.341       23.002      549.484      544.804      529.085        0.270        0.081       61.054       16.469        0.073      345.723       23.458      866.144
07/03/2013  08:17:00       49.624       32.194       17.309       26.426       16.726       23.815      698.315      279.754      567.174        0.267        0.077       59.152       17.568        0.088      345.889       23.743      866.138
07/03/2013  08:18:00        0.214        3.232       24.135       24.044       20.221       18.106      578.135      408.889      327.837        0.095        0.066        3.239       11.176       11.901      346.333       24.507      866.138
07/03/2013  08:19:00      -25.960      -26.398       11.484       20.486       28.152       15.352      419.679      792.540      235.680        0.147        0.072       37.023       16.032        0.188      345.971       23.883      866.149
07/03/2013  08:20:00      -54.835        3.214       -1.580       20.923       22.173       15.922      437.778      491.644      253.513        0.210        0.059       54.929       14.620        0.071      345.692       23.405      866.144
07/03/2013  08:21:00      -52.304        0.048       -2.365       24.984       24.172       11.238      624.196      584.263      126.289        0.204        0.067       52.304       11.454        0.048      345.573       23.199      866.139
07/03/2013  08:22:00      -11.385      -12.513        3.576       20.288       12.955       12.673      411.607      167.837      160.611        0.052        0.037       16.918        7.152        0.179      345.755       23.513      866.147
07/03/2013  08:23:00       -0.679       -3.514       24.294       19.635       11.258       15.578      385.529      126.752      242.671        0.068        0.038        3.580       12.716       12.619      346.654       25.058      866.140
07/03/2013  08:24:00      -24.683       -0.783        7.418       11.181        9.066       13.129      125.009       82.200      172.379        0.052        0.019       24.695       10.542        0.182      346.044       24.008      866.136
07/03/2013  08:25:00      -14.838       12.281       17.185       16.377       15.669       16.307      268.195      245.511      265.931        0.072        0.039       19.261       11.307        0.345      346.561       24.900      866.135
07/03/2013  08:26:00        0.319       -7.259       18.346       28.233       19.934       15.150      797.087      397.353      229.518        0.091        0.071        7.266       11.730        2.606      346.303       24.453      866.127
07/03/2013  08:27:00        3.824       18.909        8.154       23.160       26.175       19.413      536.394      685.141      376.853        0.102        0.080       19.291       15.002        0.605      346.596       24.958      866.126
07/03/2013  08:28:00       16.193       12.804       24.253       26.680       24.181       20.184      711.816      584.713      407.412        0.136        0.085       20.643       14.488        0.493      347.000       25.654      866.128
07/03/2013  08:29:00       36.225       21.756       19.741       22.388       16.496       19.045      501.208      272.127      362.696        0.166        0.057       42.256       13.593        0.103      346.434       24.680      866.120
07/03/2013  08:30:00       21.080       21.602       22.904       27.518       21.167       26.176      757.255      448.039      685.171        0.166        0.095       30.183       20.937        0.481      346.749       25.221      866.118
07/03/2013  08:31:00        5.111       10.313       25.051       27.603       19.923       19.219      761.898      396.936      369.388        0.114        0.076       11.510       12.731        1.224      346.790       25.293      866.116
07/03/2013  08:32:00      -34.920       -6.208       -7.578       11.149        7.124        6.385      124.291       50.746       40.770        0.077        0.011       35.467        1.927        0.003      346.052       24.024      866.097
07/03/2013  08:33:00      -42.880       -6.606       -7.462       16.852       14.302       11.255      283.976      204.535      126.670        0.128        0.031       43.386        7.074        0.027      345.977       23.892      866.085
07/03/2013  08:34:00      -38.384      -29.779       -3.289       17.065       13.854       18.347      291.208      191.937      336.607        0.160        0.041       48.581       13.102        0.073      346.053       24.023      866.059
07/03/2013  08:35:00      -39.780      -18.013       -2.109       28.205       17.350       13.970      795.501      301.028      195.167        0.160        0.065       43.668       13.712        0.099      346.227       24.323      866.044
07/03/2013  08:36:00      -19.565      -20.402       -6.718       17.123       17.038       15.659      293.196      290.280      245.202        0.084        0.041       28.268        8.016        0.080      346.119       24.137      866.022
07/03/2013  08:37:00      -37.064      -32.904       18.264       28.189       28.132       22.157      794.642      791.434      490.922        0.243        0.104       49.562        9.176        0.034      346.403       24.625      866.014
07/03/2013  08:38:00      -16.291      -31.527       17.265       29.308       22.670       24.788      858.931      513.923      614.468        0.177        0.099       35.487       18.806        0.281      346.486       24.768      866.012
07/03/2013  08:39:00      -63.773      -35.473        7.601       30.430       16.849       17.616      925.995      283.884      310.337        0.345        0.076       72.975       14.330        0.039      346.119       24.137      866.002
07/03/2013  08:40:00      -46.245      -37.010        3.788       21.019       29.592       20.015      441.778      875.710      400.581        0.262        0.086       59.231       15.426        0.068      346.169       24.224      865.997
07/03/2013  08:41:00      -52.219      -13.597       -0.422       29.082       24.636       16.314      845.773      606.938      266.145        0.232        0.086       53.960       14.813        0.075      346.225       24.320      865.985
07/03/2013  08:42:00      -76.705      -61.974       -6.211       20.637       20.018       12.166      425.869      400.704      148.017        0.537        0.049       98.613        6.474        0.004      345.954       23.854      865.979
07/03/2013  08:43:00      -20.971      -32.232        1.047       11.987       16.750       16.079      143.689      280.565      258.525        0.108        0.034       38.454       11.869        0.095      346.099       24.104      865.972
07/03/2013  08:44:00      -19.964      -14.170       -5.441       11.602       18.516       10.122      134.612      342.835      102.451        0.060        0.029       24.482        8.861        0.131      346.127       24.152      865.956
07/03/2013  08:45:00      -18.850      -23.681       -4.749       13.863       19.207       10.468      192.185      368.910      109.581        0.080        0.034       30.268        8.547        0.080      346.096       24.098      865.943
07/03/2013  08:46:00      -23.377      -59.116       -1.147       19.077       24.113       15.709      363.938      581.443      246.759        0.262        0.060       63.570       10.555        0.028      346.041       24.004      865.944
07/03/2013  08:47:00      -36.512     -103.642       -1.578       26.687       24.518       13.858      712.208      601.115      192.046        0.679        0.075      109.885       12.947        0.014      346.002       23.937      865.942
07/03/2013  08:48:00      -30.451      -35.462      -10.705       18.110       23.552        8.667      327.988      554.686       75.120        0.163        0.048       46.742        7.760        0.028      346.074       24.061      865.948
07/03/2013  08:49:00      -23.681      -23.741        2.700       13.861       15.285       10.458      192.122      233.622      109.362        0.083        0.027       33.533        7.225        0.046      346.206       24.287      865.955
07/03/2013  08:50:00      -15.003      -12.115        8.001       17.308       17.600       24.858      299.563      309.765      617.931        0.083        0.061       19.284       19.585        1.031      347.110       25.843      865.957
07/03/2013  08:51:00       -4.688       16.616       23.202       15.290       23.522       20.440      233.788      553.269      417.806        0.102        0.060       17.265       12.250        0.503      347.240       26.067      865.951
07/03/2013  08:52:00       35.850       26.763       53.576       40.658       27.034       27.379     1653.083      730.821      749.587        0.400        0.157       44.738       19.807        0.196      347.103       25.830      865.952
07/03/2013  08:53:00       21.195       63.407       79.822       43.058       43.328       27.981     1853.977     1877.307      782.959        0.768        0.226       66.856       26.723        0.160      346.823       25.347      865.950
07/03/2013  08:54:00       31.023       30.600       57.598       45.073       44.937       40.444     2031.608     2019.330     1635.750        0.545        0.284       43.575       37.047        0.723      346.777       25.268      865.944
07/03/2013  08:55:00        9.179      -33.197       48.384       24.587       37.702       28.779      604.538     1421.412      828.241        0.319        0.143       34.443        8.825        0.066      347.011       25.672      865.936
07/03/2013  08:56:00        9.178        1.553       39.337       21.164       40.652       20.580      447.936     1652.586      423.532        0.208        0.126        9.308       17.081        3.367      347.212       26.019      865.926
07/03/2013  08:57:00        5.852        5.367       37.077       28.415       39.091       32.760      807.403     1528.100     1073.203        0.242        0.170        7.940       26.540       11.172      347.189       25.979      865.912
07/03/2013  08:58:00        1.643        0.971       35.209       20.435       36.282       31.374      417.606     1316.400      984.327        0.198        0.136        1.909       13.526       50.224      347.365       26.283      865.888
07/03/2013  08:59:00        5.069        6.765       57.553       24.695       45.047       26.512      609.841     2029.227      702.902        0.336        0.167        8.454       22.400        7.021      347.332       26.225      865.862
07/03/2013  09:00:00       -0.018      -54.583       40.727       23.199       42.832       31.288      538.181     1834.616      978.957        0.399        0.168       54.583       19.493        0.128      347.189       25.978      865.843
07/03/2013  09:01:00        3.909       -5.826       50.714       22.707       29.934       21.836      515.621      896.050      476.798        0.225        0.094        7.015       11.112        2.509      347.572       26.639      865.829
07/03/2013  09:02:00       25.332      -12.190       30.971       47.140       54.785       33.862     2222.153     3001.353     1146.644        0.406        0.319       28.113       29.897        1.131      347.087       25.803      865.820
07/03/2013  09:03:00       -7.946       58.936       73.468       27.816       27.632       23.140      773.747      763.536      535.469        0.550        0.104       59.469       16.885        0.081      347.133       25.881      865.814
07/03/2013  09:04:00       10.664       22.691       55.512       34.202       30.572       21.550     1169.797      934.641      464.413        0.314        0.128       25.072       13.544        0.292      347.334       26.229      865.809
07/03/2013  09:05:00        9.160      -16.503       50.465       25.300       40.092       24.960      640.106     1607.383      622.996        0.289        0.144       18.875       19.536        1.071      347.332       26.225      865.802
07/03/2013  09:06:00        7.471      -21.301       27.268       21.248       36.905       25.938      451.490     1361.972      672.804        0.187        0.124       22.573       16.038        0.505      347.240       26.067      865.793
07/03/2013  09:07:00        8.651       -7.265       24.062       22.510       34.409       23.131      506.692     1183.946      535.028        0.147        0.111       11.297       21.624        3.664      347.424       26.385      865.778
07/03/2013  09:08:00       -0.469      -76.608        7.324       26.779       26.562       30.168      717.134      705.553      910.113        0.413        0.117       76.609       12.313        0.026      346.552       24.881      865.749
07/03/2013  09:09:00        4.364      -21.670       42.164       22.839       35.162       22.518      521.622     1236.332      507.069        0.227        0.113       22.105       14.249        0.416      347.327       26.216      865.724
07/03/2013  09:10:00        1.610       -0.128       31.163       19.769       32.065       20.990      390.802     1028.170      440.577        0.142        0.093        1.615        6.773       17.589      347.545       26.592      865.707
07/03/2013  09:11:00       13.476       24.116       36.444       34.016       28.150       30.531     1157.114      792.419      932.169        0.249        0.144       27.626       22.621        0.671      347.757       26.959      865.696
07/03/2013  09:12:00       22.911        5.166       12.691       32.157       18.391       33.932     1034.068      338.226     1151.362        0.162        0.126       23.486       21.940        0.873      347.591       26.673      865.687
07/03/2013  09:13:00       20.436       54.403       32.399       48.848       37.804       25.535     2386.172     1429.177      652.032        0.445        0.223       58.114       19.046        0.107      347.761       26.966      865.674
07/03/2013  09:14:00       61.878       73.667        7.980       26.413       22.419       24.086      697.658      502.626      580.144        0.555        0.089       96.206       13.118        0.019      347.187       25.975      865.668
07/03/2013  09:15:00       43.801       43.932       38.963       33.710       48.050       26.811     1136.394     2308.805      718.837        0.476        0.208       62.036       14.262        0.053      347.314       26.194      865.656
07/03/2013  09:16:00        7.335        0.042       38.208       19.916       30.406       20.460      396.654      924.509      418.625        0.163        0.087        7.335        4.088        0.311      347.914       27.229      865.647
07/03/2013  09:17:00        7.841      -17.774       18.183       40.721       54.293       29.082     1658.210     2947.714      845.758        0.308        0.273       19.427       24.677        1.614      347.152       25.914      865.637
07/03/2013  09:18:00        9.588      -34.767       35.929       20.324       36.938       23.500      413.062     1364.403      552.232        0.246        0.116       36.065       18.142        0.253      347.258       26.097      865.625
07/03/2013  09:19:00        9.433        0.379       30.004       18.355       27.216       19.557      336.924      740.692      382.474        0.122        0.073        9.441       12.218        1.675      347.738       26.925      865.613
07/03/2013  09:20:00       -4.366       -7.623       40.839       11.913       19.767       18.126      141.925      390.730      328.569        0.130        0.043        8.785       12.623        2.065      348.195       27.716      865.600
07/03/2013  09:21:00        9.549       -0.372       40.590       20.840       20.363       12.588      434.311      414.636      158.462        0.137        0.050        9.557        8.551        0.801      347.941       27.275      865.598
07/03/2013  09:22:00       -9.505       -5.142       28.841       27.084       25.728       20.035      733.524      661.949      401.410        0.137        0.090       10.807       15.997        2.191      347.867       27.151      865.588
07/03/2013  09:23:00       -5.531       61.959       19.091       27.665       44.557       30.143      765.331     1985.353      908.590        0.395        0.183       62.205       30.229        0.236      347.580       26.653      865.591
07/03/2013  09:24:00       -5.879      121.738       -2.975       24.471       36.497       28.209      598.809     1332.005      795.734        0.879        0.136      121.880       25.101        0.042      347.285       26.144      865.583
07/03/2013  09:25:00       -3.684       68.503       19.150       27.433       46.482       30.253      752.585     2160.583      915.253        0.445        0.191       68.602       23.815        0.121      347.982       27.348      865.576
07/03/2013  09:26:00       10.647       33.143       29.428       33.085       46.882       29.170     1094.615     2197.883      850.876        0.311        0.207       34.811       22.534        0.419      348.057       27.475      865.559
07/03/2013  09:27:00       46.248       34.234       29.126       37.311       35.281       32.060     1392.081     1244.779     1027.859        0.391        0.183       57.540       27.259        0.224      347.651       26.775      865.552
07/03/2013  09:28:00       17.599       34.718        3.752       29.243       37.217       28.004      855.131     1385.140      784.212        0.228        0.151       38.924       23.936        0.378      347.543       26.589      865.539
07/03/2013  09:29:00        6.393        0.974       19.765       24.567       29.697       16.858      603.550      881.929      284.203        0.110        0.088        6.466       12.641        3.822      347.745       26.938      865.530
07/03/2013  09:30:00      -11.961       23.373       22.878       19.596       28.772       20.940      383.998      827.838      438.493        0.143        0.083       26.256       15.832        0.364      347.894       27.195      865.511
07/03/2013  09:31:00      -26.165       31.353      -20.769       17.792       25.229       22.288      316.545      636.516      496.752        0.177        0.072       40.836       10.274        0.063      347.159       25.926      865.494
07/03/2013  09:32:00      -39.981       19.731       -6.288       16.650       21.732       17.669      277.222      472.270      312.185        0.154        0.053       44.585       11.416        0.066      347.291       26.155      865.480
07/03/2013  09:33:00      -50.731       21.954      -10.987       12.647       17.390       17.262      159.950      302.425      297.977        0.197        0.038       55.277        7.923        0.021      347.052       25.742      865.466
07/03/2013  09:34:00      -33.318      -10.646       -0.227       14.865       12.052       16.706      220.968      145.241      279.102        0.093        0.032       34.978       14.609        0.174      347.120       25.861      865.460
07/03/2013  09:35:00      -14.165      -39.355        0.885       11.335       15.937       17.051      128.478      253.999      290.728        0.121        0.034       41.826        8.942        0.046      347.060       25.756      865.445
07/03/2013  09:36:00      -12.947      -27.548        5.814       20.209       13.081       15.921      408.400      171.117      253.493        0.090        0.042       30.439        7.230        0.056      347.176       25.956      865.437
07/03/2013  09:37:00      -55.989      -20.551       -4.651       16.269       15.364       11.901      264.685      236.046      141.630        0.211        0.032       59.641        8.111        0.018      346.978       25.614      865.418
07/03/2013  09:38:00      -16.365        4.675       17.287       25.709       26.903       17.597      660.966      723.761      309.669        0.114        0.085       17.020       15.370        0.816      348.147       27.632      865.406
07/03/2013  09:39:00      -21.780        8.983       22.318       33.298       20.026       19.888     1108.754      401.048      395.521        0.148        0.095       23.559       18.538        0.619      347.922       27.244      865.394
07/03/2013  09:40:00      -29.909       10.115       10.378       30.624       18.292       18.235      937.824      334.610      332.523        0.135        0.080       31.573       15.740        0.249      347.881       27.173      865.376
07/03/2013  09:41:00      -26.734      106.986        6.557       34.902       57.117       34.582     1218.120     3262.300     1195.931        0.894        0.284      110.276       29.083        0.070      348.012       27.399      865.361
07/03/2013  09:42:00      -14.489       54.243       15.471       27.805       47.416       25.838      773.125     2248.263      667.591        0.354        0.184       56.145       20.646        0.135      348.408       28.084      865.336
07/03/2013  09:43:00        3.187       62.747        7.733       37.780       49.973       33.760     1427.351     2497.334     1139.712        0.453        0.253       62.828       32.106        0.261      347.900       27.206      865.314
07/03/2013  09:44:00       60.163       75.515       -2.703       40.034       43.361       33.756     1602.707     1880.194     1139.447        0.697        0.231       96.551       30.238        0.098      347.581       26.655      865.276
07/03/2013  09:45:00       46.988       66.671       15.545       48.776       52.163       33.136     2379.067     2721.005     1098.006        0.655        0.310       81.565       24.966        0.094      347.921       27.241      865.271
07/03/2013  09:46:00       13.299       49.394        6.474       25.424       34.787       33.200      646.371     1210.137     1102.271        0.281        0.148       51.153       23.925        0.219      347.848       27.114      865.247
07/03/2013  09:47:00       -7.658       22.993       22.376       14.138       22.813       20.018      199.881      520.415      400.731        0.110        0.056       24.235       14.260        0.346      348.412       28.091      865.233
07/03/2013  09:48:00        8.711       25.603       20.981       20.864       20.967       22.984      435.299      439.608      528.257        0.129        0.070       27.044        9.999        0.137      348.210       27.741      865.201
07/03/2013  09:49:00       48.755       32.025       22.878       24.093       29.251       27.737      580.466      855.604      769.364        0.307        0.110       58.333       14.443        0.061      347.838       27.098      865.186
07/03/2013  09:50:00       33.666       58.227       26.437       34.872       34.758       30.176     1216.060     1208.091      910.577        0.428        0.167       67.260       25.080        0.139      348.030       27.429      865.180
07/03/2013  09:51:00        4.459       75.722       -5.669       21.915       37.878       27.344      480.265     1434.726      747.697        0.422        0.133       75.853       26.461        0.122      347.544       26.590      865.178
07/03/2013  09:52:00       26.018        5.245      -15.579       19.724       32.492       20.846      389.051     1055.741      434.564        0.141        0.094       26.542       14.862        0.314      347.465       26.453      865.177
07/03/2013  09:53:00       10.159      -42.250        9.888       35.596       31.997       27.850     1267.043     1023.780      775.598        0.253        0.153       43.455       21.104        0.236      347.622       26.724      865.167
07/03/2013  09:54:00       20.477       -5.396       22.939       42.043       31.088       17.920     1767.576      966.485      321.109        0.201        0.153       21.175       14.188        0.449      348.483       28.215      865.149
07/03/2013  09:55:00      -36.849        3.415        4.072       39.454       28.479       24.268     1556.625      811.064      588.914        0.217        0.148       37.007       29.247        0.625      347.748       26.943      865.126
07/03/2013  09:56:00      -32.640       -8.179       -1.968       19.337        7.471       17.910      373.933       55.819      320.759        0.094        0.038       33.649       12.722        0.143      347.400       26.342      865.124
07/03/2013  09:57:00      -54.162      -14.325      -11.705       10.023        9.445        7.679      100.455       89.215       58.974        0.176        0.012       56.024        4.143        0.005      347.159       25.925      865.108
07/03/2013  09:58:00      -54.934      -17.354       -6.195       19.954       11.946        9.665      398.149      142.708       93.409        0.200        0.032       57.610        7.455        0.017      347.253       26.087      865.109
07/03/2013  09:59:00      -66.643        1.119       -2.019       14.756       18.840       11.306      217.727      354.963      127.826        0.257        0.035       66.653       10.092        0.023      347.381       26.310      865.097
07/03/2013  10:00:00      -45.665        3.883        3.269       21.941       16.969       14.564      481.415      287.956      212.100        0.155        0.049       45.829       11.411        0.062      347.594       26.678      865.101
07/03/2013  10:01:00       32.880       14.475       18.569       34.516       16.766       31.857     1191.322      281.093     1014.863        0.206        0.124       35.925       15.911        0.196      348.075       27.508      865.090
07/03/2013  10:02:00       52.661       39.588        5.582       47.890       32.223       33.936     2293.408     1038.320     1151.675        0.443        0.224       65.882       31.998        0.236      347.686       26.833      865.083
07/03/2013  10:03:00       68.329       58.490       25.122       23.754       29.443       31.774      564.257      866.886     1009.608        0.558        0.122       89.944       15.090        0.028      347.733       26.918      865.065
07/03/2013  10:04:00       27.196       34.264       35.358       32.384       32.182       18.400     1048.730     1035.652      338.568        0.279        0.121       43.745       14.677        0.113      347.825       27.075      865.061
07/03/2013  10:05:00      -49.747       15.511        4.996       23.013       31.125       24.231      529.591      968.752      587.131        0.241        0.104       52.109       16.353        0.098      347.787       27.009      865.046
07/03/2013  10:06:00      -18.125       -3.798        4.341       23.582       24.167       17.958      556.130      584.045      322.490        0.091        0.073       18.519       15.209        0.674      347.749       26.945      865.036
07/03/2013  10:07:00        2.353      -37.949       -2.042       20.903       27.624       25.324      436.950      763.079      641.317        0.165        0.092       38.022       19.480        0.262      347.722       26.896      865.019
07/03/2013  10:08:00      -45.719        5.924       -1.384       26.987       21.640       18.553      728.293      468.310      344.215        0.183        0.077       46.101       16.859        0.134      347.672       26.812      864.999
07/03/2013  10:09:00      -37.498      -13.745       -2.890       17.890       13.791       11.937      320.049      190.196      142.488        0.113        0.033       39.938       11.510        0.083      347.645       26.765      864.977
07/03/2013  10:10:00      -47.180       25.185        0.413       19.366       13.493       15.907      375.036      182.071      253.025        0.184        0.041       53.481       11.195        0.044      347.728       26.908      864.955
07/03/2013  10:11:00      -36.348       24.931        4.580       33.774       14.912       31.177     1140.682      222.366      971.998        0.215        0.117       44.076       27.775        0.397      348.176       27.684      864.935
07/03/2013  10:12:00      -17.905       11.025       25.830       23.474       12.668       17.672      551.019      160.485      312.293        0.107        0.051       21.027        6.053        0.083      348.626       28.459      864.916
07/03/2013  10:13:00       -4.121       17.707       39.512       16.708       26.284       17.181      279.143      690.827      295.183        0.158        0.063       18.180        7.483        0.169      349.530       30.025      864.912
07/03/2013  10:14:00       45.539       28.012       25.187       43.019       25.028       22.161     1850.607      626.401      491.115        0.323        0.148       53.464       19.446        0.132      348.639       28.484      864.899
07/03/2013  10:15:00       40.847       60.841       20.829       47.998       35.680       32.372     2303.798     1273.052     1047.975        0.521        0.231       73.281       29.344        0.160      348.481       28.210      864.894
07/03/2013  10:16:00       81.179       70.295       15.497       32.143       28.727       27.051     1033.156      825.249      731.731        0.718        0.130      107.385       18.497        0.030      347.996       27.370      864.885
07/03/2013  10:17:00       49.567       26.856       -7.335       44.723       52.169       39.885     2000.140     2721.572     1590.833        0.477        0.316       56.375       24.248        0.185      348.216       27.752      864.884
07/03/2013  10:18:00       10.522      -32.970       22.378       38.870       58.730       44.768     1510.860     3449.232     2004.140        0.433        0.348       34.608       25.711        0.552      348.433       28.127      864.872
07/03/2013  10:19:00       36.370     -105.825      -10.806       38.007       62.023       34.143     1444.506     3846.827     1165.726        0.955        0.323      111.900       22.490        0.040      348.138       27.616      864.869
07/03/2013  10:20:00      -66.634      -58.508        8.568       43.406       37.061       31.650     1884.041     1373.521     1001.737        0.610        0.213       88.675       27.861        0.099      348.202       27.724      864.856
07/03/2013  10:21:00      -64.655      -77.616       -9.571       33.986       35.686       22.649     1155.023     1273.463      512.974        0.662        0.147      101.017       15.994        0.025      347.723       26.898      864.859
07/03/2013  10:22:00      -68.421        0.880      -15.322       12.301       11.622       12.036      151.314      135.063      144.868        0.267        0.022       68.427        6.947        0.010      347.683       26.829      864.843
07/03/2013  10:23:00      -81.267       -6.903       -6.408       27.686       14.898       13.047      766.538      221.945      170.226        0.393        0.058       81.560       14.732        0.033      347.786       27.008      864.830
07/03/2013  10:24:00      -58.444      -30.546        1.603       42.237       36.801       20.340     1783.961     1354.349      413.725        0.395        0.178       65.945       21.777        0.109      348.205       27.734      864.808
07/03/2013  10:25:00      -55.142      -17.566        7.148       40.498       50.264       25.268     1640.092     2526.492      638.473        0.410        0.240       57.872       21.434        0.137      348.342       27.970      864.798
07/03/2013  10:26:00      -66.487      -16.091       -6.626       31.862       28.291       19.234     1015.160      800.382      369.931        0.345        0.109       68.407       17.287        0.064      348.134       27.609      864.779
07/03/2013  10:27:00      -55.594       -9.713      -18.882       29.929       21.771       21.492      895.763      473.991      461.888        0.269        0.092       56.436        8.848        0.025      348.073       27.504      864.769
07/03/2013  10:28:00      -41.103       -9.457       -9.686       21.527       15.526       19.163      463.425      241.050      367.209        0.147        0.054       42.177        7.547        0.032      348.042       27.449      864.748
07/03/2013  10:29:00      -49.455        1.604        3.872       16.811       11.444       18.859      282.615      130.969      355.662        0.162        0.038       49.481       15.511        0.098      348.087       27.528      864.745
07/03/2013  10:30:00       67.186       45.395       33.967       48.658       36.142       29.444     2367.639     1306.241      866.944        0.613        0.227       81.085       12.270        0.023      348.801       28.765      864.732
07/03/2013  10:31:00       52.435       45.331       25.612       42.367       33.203       41.395     1794.961     1102.406     1713.507        0.503        0.231       69.313       30.619        0.195      348.590       28.397      864.733
07/03/2013  10:32:00       30.085       27.997       10.292       27.726       35.394       26.872      768.707     1252.741      722.088        0.227        0.137       41.097       22.544        0.301      348.507       28.255      864.726
07/03/2013  10:33:00       53.042       51.689       15.599       40.417       32.037       29.143     1633.528     1026.397      849.319        0.462        0.175       74.063       12.842        0.030      348.564       28.352      864.721
07/03/2013  10:34:00       40.514       59.908       13.729       45.285       53.659       32.442     2050.750     2879.312     1052.471        0.570        0.299       72.321       21.634        0.089      348.580       28.380      864.705
07/03/2013  10:35:00       71.120      114.958        5.428       55.536       40.239       31.016     3084.251     1619.176      962.017        1.198        0.283      135.179       16.436        0.015      348.498       28.238      864.698
07/03/2013  10:36:00       -7.687       36.903       11.024       41.677       25.035       24.767     1736.948      626.752      613.429        0.226        0.149       37.695       18.333        0.237      348.674       28.543      864.690
07/03/2013  10:37:00      -58.677       16.139        2.117       58.524       19.291       21.732     3425.024      372.159      472.268        0.399        0.213       60.856       28.608        0.221      348.486       28.218      864.680
07/03/2013  10:38:00       30.991       64.165        2.756       48.150       41.464       41.011     2318.455     1719.286     1681.903        0.540        0.286       71.257       18.464        0.067      348.678       28.549      864.672
07/03/2013  10:39:00       89.548       72.548       29.101       54.289       40.232       38.179     2947.320     1618.592     1457.614        1.008        0.301      115.248       12.081        0.011      348.457       28.169      864.659
07/03/2013  10:40:00      101.666       75.227       36.538       73.965       36.168       33.673     5470.844     1308.131     1133.896        1.262        0.396      126.472       26.625        0.044      348.305       27.905      864.637
07/03/2013  10:41:00       11.968       59.893       61.529       43.122       48.452       41.435     1859.528     2347.634     1716.822        0.672        0.296       61.077       34.439        0.318      348.904       28.941      864.615
07/03/2013  10:42:00       39.418       32.987       83.870       52.346       52.632       35.026     2740.099     2770.170     1226.809        0.821        0.337       51.400       25.280        0.242      348.708       28.602      864.604
07/03/2013  10:43:00       69.583      -86.602        8.018       36.844       47.030       43.073     1357.464     2211.852     1855.281        0.891        0.271      111.094       35.386        0.101      348.049       27.462      864.603
07/03/2013  10:44:00       48.405     -105.558       -2.564       29.198       45.691       26.947      852.525     2087.637      726.149        0.858        0.183      116.127       24.422        0.044      348.270       27.843      864.582
07/03/2013  10:45:00       -1.447       15.532       10.301       35.753       34.427       29.760     1278.242     1185.197      885.668        0.185        0.167       15.600       16.135        1.070      349.244       29.530      864.571
07/03/2013  10:46:00       57.529       47.189       37.185       40.186       37.988       40.327     1614.890     1443.070     1626.293        0.580        0.234       74.407       25.732        0.120      348.762       28.695      864.576
07/03/2013  10:47:00       62.932      105.507      106.032       80.906       49.615       45.850     6545.820     2461.619     2102.198        1.872        0.555      122.850       38.245        0.097      348.672       28.537      864.554
07/03/2013  10:48:00       64.144       77.140       85.443       56.218       80.147       56.464     3160.478     6423.486     3188.237        1.507        0.639      100.325       51.752        0.266      348.583       28.385      864.549
07/03/2013  10:49:00       63.208       95.135        0.334       45.995       67.677       43.619     2115.564     4580.124     1902.596        1.082        0.430      114.219       35.243        0.095      348.483       28.211      864.558
07/03/2013  10:50:00       -0.488       29.121       26.158       37.037       37.553       30.824     1371.745     1410.227      950.113        0.263        0.187       29.125       28.023        0.926      349.071       29.230      864.549
07/03/2013  10:51:00       -3.040        7.717       31.501       22.086       17.312       20.591      487.803      299.717      424.006        0.114        0.061        8.294        5.933        0.512      349.485       29.948      864.537
07/03/2013  10:52:00       52.851       53.437       48.574       52.243       50.604       43.751     2729.331     2560.769     1914.159        0.760        0.360       75.158       33.332        0.197      349.387       29.778      864.515
07/03/2013  10:53:00       34.006       75.678       63.606       49.920       45.253       45.191     2492.038     2047.820     2042.199        0.875        0.329       82.968       32.929        0.158      348.758       28.688      864.517
07/03/2013  10:54:00       15.496      -11.563       16.141       34.288       46.420       27.781     1175.700     2154.796      771.780        0.237        0.205       19.335       23.932        1.532      348.941       29.004      864.506
07/03/2013  10:55:00       57.561      -85.506        3.513       52.289       49.712       39.264     2734.143     2471.277     1541.700        0.869        0.337      103.076       29.745        0.083      348.295       27.888      864.504
07/03/2013  10:56:00       33.715      -84.523        2.778       35.388       51.390       38.400     1252.300     2640.959     1474.594        0.683        0.268       90.999       24.296        0.071      348.336       27.958      864.499
07/03/2013  10:57:00       46.348      -67.227       -5.904       20.932       28.936       26.311      438.135      837.291      692.244        0.433        0.098       81.656       14.878        0.033      348.351       27.984      864.496
07/03/2013  10:58:00       44.879        2.717       31.885       34.402       37.279       32.977     1183.528     1389.722     1087.510        0.335        0.183       44.961       25.421        0.320      348.802       28.764      864.486
07/03/2013  10:59:00       37.843       -5.148       52.329       55.248       43.649       44.163     3052.366     1905.243     1950.383        0.555        0.345       38.192       42.014        1.210      349.090       29.263      864.469
07/03/2013  11:00:00        8.026      -92.263       -8.227       91.765       53.584       45.921     8420.814     2871.226     2108.698        1.102        0.670       92.612       34.532        0.139      348.678       28.548      864.466
07/03/2013  11:01:00      -79.594      -37.757      -10.099       43.409       29.524       18.458     1884.353      871.690      340.698        0.548        0.155       88.095       25.357        0.083      348.386       28.045      864.467
07/03/2013  11:02:00      -95.435      -34.863       -5.881       34.986       35.157       22.557     1224.024     1236.001      508.796        0.666        0.148      101.603       17.590        0.030      348.518       28.273      864.464
07/03/2013  11:03:00      -63.655        9.052       -8.067       28.566       28.902       22.233      816.000      835.297      494.291        0.317        0.107       64.295       19.383        0.091      348.579       28.378      864.457
07/03/2013  11:04:00      -70.147       -3.846       -7.858       37.654       42.737       19.021     1417.861     1826.411      361.809        0.430        0.180       70.253       12.238        0.030      348.633       28.472      864.449
07/03/2013  11:05:00     -105.059      -17.938       -9.768       31.684       52.842       17.041     1003.890     2792.258      290.390        0.777        0.204      106.579       12.875        0.015      348.571       28.363      864.441
07/03/2013  11:06:00      -89.486        0.834        1.099       65.426       60.150       27.058     4280.506     3617.977      732.162        0.832        0.432       89.490       35.385        0.156      348.980       29.073      864.427
07/03/2013  11:07:00      -65.220       47.538      -10.435       40.140       38.651       29.541     1611.182     1493.933      872.641        0.530        0.199       80.706       25.085        0.097      348.913       28.958      864.432
07/03/2013  11:08:00       13.562       29.906       26.972       37.020       52.306       30.561     1370.475     2735.958      933.957        0.342        0.252       32.838       24.668        0.564      349.638       30.213      864.431
07/03/2013  11:09:00       57.000       42.109       37.203       41.961       40.705       33.240     1760.686     1656.908     1104.906        0.546        0.226       70.867       18.857        0.071      349.363       29.736      864.431
07/03/2013  11:10:00      162.225      127.901        9.013       46.063       56.323       46.442     2121.780     3172.316     2156.827        2.510        0.373      206.581       15.961        0.006      348.864       28.866      864.435
07/03/2013  11:11:00       83.353       60.291       31.254       64.327       58.572       39.211     4137.962     3430.709     1537.464        1.033        0.455      102.872       23.223        0.051      348.915       28.958      864.437
07/03/2013  11:12:00       40.305       47.131       13.750       48.435       67.533       43.504     2345.932     4560.713     1892.555        0.642        0.440       62.014       28.070        0.205      348.992       29.093      864.437
07/03/2013  11:13:00       96.731      114.212       29.633       72.764       67.321       52.256     5294.578     4532.107     2730.702        1.792        0.628      149.670       37.523        0.063      348.940       29.002      864.414
07/03/2013  11:14:00       99.785       48.910       25.242       67.713       63.503       46.634     4585.019     4032.656     2174.754        1.189        0.540      111.128       39.811        0.128      348.842       28.834      864.419
07/03/2013  11:15:00       39.915      -36.386      -15.299       47.342       56.336       38.276     2241.245     3173.767     1465.045        0.501        0.344       54.011       10.845        0.040      348.794       28.750      864.403
07/03/2013  11:16:00      147.794       73.850       47.477       97.083       59.908       45.306     9425.200     3588.931     2052.652        2.231        0.753      165.218       42.370        0.066      349.352       29.714      864.375
07/03/2013  11:17:00       85.936       64.416       29.534       66.055       46.650       36.705     4363.251     2176.176     1347.261        1.015        0.394      107.399       29.962        0.078      348.830       28.814      864.390
07/03/2013  11:18:00       83.704       50.856       31.507       70.320       51.268       37.219     4944.844     2628.419     1385.241        0.977        0.448       97.943       17.666        0.033      348.962       29.041      864.388
07/03/2013  11:19:00      -37.269       16.688       26.170       33.603       21.532       28.391     1129.151      463.632      806.039        0.238        0.120       40.834       19.663        0.232      349.570       30.095      864.365
07/03/2013  11:20:00      -10.681       27.920       30.853       27.039       20.545       22.856      731.115      422.084      522.418        0.176        0.084       29.894       18.842        0.397      349.583       30.117      864.345
07/03/2013  11:21:00       39.872       62.875       35.209       62.570       40.187       42.261     3915.052     1614.975     1785.972        0.705        0.366       74.452       20.924        0.079      349.364       29.738      864.338
07/03/2013  11:22:00       47.912       69.204       63.873       59.901       57.043       55.497     3588.119     3253.940     3079.907        1.054        0.496       84.171       27.241        0.105      349.406       29.812      864.332
07/03/2013  11:23:00       70.553      -94.142        0.220       62.203       78.476       42.521     3869.160     6158.428     1808.011        1.284        0.592      117.646       47.603        0.164      348.748       28.669      864.317
07/03/2013  11:24:00       31.208      -75.180        4.350       31.950       53.524       34.594     1020.818     2864.834     1196.735        0.586        0.254       81.400       26.337        0.105      348.960       29.037      864.307
07/03/2013  11:25:00        5.091      -64.572        8.842       20.663       47.443       34.840      426.976     2250.828     1213.814        0.408        0.195       64.773       33.053        0.260      349.448       29.885      864.280
07/03/2013  11:26:00       20.723       27.582       32.564       39.318       62.425       39.257     1545.937     3896.895     1541.141        0.462        0.349       34.500       29.296        0.721      349.541       30.047      864.260
07/03/2013  11:27:00       27.600       32.556       36.160       72.312       34.644       28.358     5229.009     1200.228      804.162        0.518        0.362       42.681       18.929        0.197      349.729       30.373      864.243
07/03/2013  11:28:00        8.526       44.232       27.150       29.259       43.011       31.925      856.100     1849.980     1019.235        0.325        0.186       45.046       28.057        0.388      350.086       30.992      864.226
07/03/2013  11:29:00       21.805       86.387        7.539       62.806       55.759       38.758     3944.645     3109.060     1502.192        0.827        0.428       89.096       32.743        0.135      349.511       29.994      864.213
07/03/2013  11:30:00       67.714       94.363       11.795       32.909       54.787       42.113     1082.986     3001.605     1773.493        0.974        0.293      116.145       37.554        0.105      349.579       30.112      864.195
07/03/2013  11:31:00       38.295      134.575        0.331       42.749       80.998       42.897     1827.496     6560.658     1840.184        1.490        0.511      139.918       43.106        0.095      349.514       29.997      864.186
07/03/2013  11:32:00       21.829      108.886        0.337       56.267       61.907       40.625     3165.921     3832.515     1650.415        1.049        0.432      111.052       37.861        0.116      349.791       30.480      864.180
07/03/2013  11:33:00       -8.962      134.132        0.070       38.682       82.119       40.595     1496.306     6743.584     1647.993        1.398        0.494      134.431       43.602        0.105      349.891       30.652      864.159
07/03/2013  11:34:00      -10.236       14.047       13.940       29.507       24.071       25.949      870.667      579.419      673.365        0.131        0.106       17.381       14.735        0.719      349.795       30.485      864.154
07/03/2013  11:35:00       64.566       14.153       19.600       77.715       51.393       41.927     6039.558     2641.220     1757.843        0.759        0.522       66.099        7.641        0.013      349.813       30.516      864.149
07/03/2013  11:36:00       62.396       49.172       31.556       97.571       79.555       58.936     9520.025     6329.034     3473.502        1.331        0.966       79.443       30.877        0.151      349.794       30.483      864.113
07/03/2013  11:37:00       72.953      104.294       -2.850      113.715       72.728       53.180    12931.213     5289.396     2828.093        1.862        1.052      127.277       39.601        0.097      349.450       29.885      864.119
07/03/2013  11:38:00       35.714      185.456      -16.423       45.502       78.189       46.739     2070.421     6113.554     2184.523        2.315        0.518      188.863       48.572        0.066      349.311       29.644      864.121
07/03/2013  11:39:00        5.573      144.346       -9.363       42.234       69.459       39.351     1783.687     4824.561     1548.515        1.455        0.408      144.453       38.388        0.071      349.534       30.031      864.121
07/03/2013  11:40:00       -3.890      165.777      -11.860       31.228       60.649       33.654      975.182     3678.309     1132.600        1.671        0.289      165.823       32.142        0.038      349.464       29.911      864.120
07/03/2013  11:41:00       19.956      148.270      -11.622       39.816       71.917       40.037     1585.296     5172.098     1602.939        1.544        0.418      149.607       43.543        0.085      349.367       29.741      864.111
07/03/2013  11:42:00       55.578      122.376        6.352       72.367       82.631       38.766     5236.979     6827.844     1502.800        1.583        0.678      134.405       32.576        0.059      349.806       30.505      864.112
07/03/2013  11:43:00       52.708       43.868       29.820       42.737       31.488       45.638     1826.477      991.518     2082.864        0.525        0.245       68.575       16.469        0.058      350.061       30.948      864.104
07/03/2013  11:44:00       63.299       39.847       29.220       49.880       36.899       31.374     2488.059     1361.502      984.343        0.564        0.242       74.796       20.135        0.072      349.819       30.527      864.103
07/03/2013  11:45:00       -7.713       37.861       18.044       35.137       40.925       30.471     1234.605     1674.844      928.471        0.283        0.192       38.639       26.644        0.475      350.136       31.078      864.105
07/03/2013  11:46:00     -106.675       94.880      -13.011       54.330       47.747       34.434     2951.757     2279.745     1185.713        1.348        0.321      142.764       33.248        0.054      349.334       29.687      864.090
07/03/2013  11:47:00     -154.170      -23.151       -4.392       61.865       54.431       37.034     3827.223     2962.788     1371.507        1.624        0.408      155.899       29.517        0.036      349.187       29.430      864.083
07/03/2013  11:48:00      -86.553      -11.473        3.995       48.017       48.484       25.775     2305.631     2350.671      664.351        0.648        0.266       87.310       28.825        0.109      349.659       30.249      864.064
07/03/2013  11:49:00      -16.115       20.140       17.810       35.432       46.944       24.657     1255.425     2203.705      607.974        0.252        0.203       25.794       18.230        0.500      350.407       31.550      864.057
07/03/2013  11:50:00      -92.182       -0.592       -0.786       37.311       62.852       24.497     1392.130     3950.412      600.107        0.722        0.297       92.184       26.848        0.085      349.561       30.079      864.053
07/03/2013  11:51:00      -85.986      -39.845        5.219       46.933       40.276       30.849     2202.751     1622.184      951.663        0.689        0.239       94.769       23.397        0.061      349.735       30.380      864.031
07/03/2013  11:52:00     -114.815      -50.057        3.809       88.234       44.120       35.515     7785.291     1946.574     1261.328        1.335        0.550      125.252       40.870        0.106      349.686       30.297      864.010
07/03/2013  11:53:00     -107.259       -2.890       -3.223       82.390       34.998       38.867     6788.037     1224.885     1510.647        1.052        0.476      107.298       46.322        0.186      349.815       30.520      864.004
07/03/2013  11:54:00      -76.492       42.247        4.277       60.380       32.816       27.895     3645.707     1076.893      778.120        0.658        0.275       87.383       29.177        0.111      349.903       30.674      863.981
07/03/2013  11:55:00      -37.749       25.721       25.376       49.827       30.059       32.019     2482.719      903.555     1025.236        0.357        0.221       45.679       35.114        0.591      350.142       31.090      863.972
07/03/2013  11:56:00       47.871       37.962       20.566       43.670       37.058       39.612     1907.026     1373.328     1569.146        0.450        0.242       61.096       32.774        0.288      350.294       31.353      863.967
07/03/2013  11:57:00      -15.832       31.354       12.410       36.268       41.744       32.120     1315.398     1742.602     1031.705        0.274        0.204       35.125       15.806        0.202      350.072       30.966      863.948
07/03/2013  11:58:00       28.341        2.401       10.796       63.913       63.120       44.338     4084.884     3984.082     1965.864        0.548        0.502       28.443       20.687        0.529      350.105       31.025      863.932
07/03/2013  11:59:00       52.422       35.933       75.271       84.899       69.839       36.157     7207.807     4877.434     1307.314        1.155        0.670       63.555       32.844        0.267      350.459       31.640      863.923
07/03/2013  12:00:00      102.695       88.237       61.526       84.140       56.162       55.941     7079.468     3154.192     3129.405        1.774        0.668      135.396       38.282        0.080      349.918       30.698      863.923
07/03/2013  12:01:00      141.785      105.014       60.833      109.530       70.614       65.210    11996.825     4986.364     4252.390        2.803        1.062      176.439       60.616        0.118      349.825       30.535      863.917
07/03/2013  12:02:00      118.611       82.339       50.663       90.774       61.610       56.126     8240.006     3795.748     3150.158        1.930        0.759      144.390       39.608        0.075      350.094       31.004      863.919
07/03/2013  12:03:00       70.032       79.350       53.918       53.423       67.700       43.589     2853.977     4583.324     1899.974        1.172        0.467      105.834       33.423        0.100      349.896       30.662      863.923
07/03/2013  12:04:00       96.015      112.522       75.309       66.159       48.175       47.956     4376.979     2320.783     2299.782        1.827        0.450      147.919       26.445        0.032      349.793       30.480      863.921
07/03/2013  12:05:00      103.674       68.754       11.104       74.761       76.396       44.295     5589.203     5836.362     1962.047        1.449        0.669      124.400        7.529        0.004      349.687       30.296      863.923
07/03/2013  12:06:00      146.814      101.893       23.638       42.013       40.910       32.196     1765.087     1673.651     1036.585        1.848        0.224      178.709       18.656        0.011      349.432       29.854      863.922
07/03/2013  12:07:00       38.047       73.595       11.325       56.050       53.989       32.496     3141.595     2914.769     1055.995        0.705        0.356       82.848       29.412        0.126      350.068       30.959      863.908
07/03/2013  12:08:00      100.369       87.644       25.484       85.423       64.280       42.021     7297.089     4131.942     1765.783        1.580        0.660      133.249       18.145        0.019      350.136       31.074      863.901
07/03/2013  12:09:00      101.414       45.693      -17.565       64.286       35.747       28.253     4132.689     1277.824      798.236        0.944        0.310      111.233       10.919        0.010      349.781       30.461      863.914
07/03/2013  12:10:00       34.328       38.735       25.938       36.120       34.912       25.213     1304.685     1218.817      635.680        0.325        0.158       51.757       20.003        0.149      350.436       31.601      863.908
07/03/2013  12:11:00       83.470       60.621       69.287       84.591       52.997       48.103     7155.699     2808.655     2313.870        1.386        0.614      103.161       46.079        0.200      350.140       31.083      863.901
07/03/2013  12:12:00      148.584       96.170        8.190       72.355       48.972       48.116     5235.245     2398.248     2315.170        2.067        0.497      176.991       27.043        0.023      349.896       30.659      863.910
07/03/2013  12:13:00      107.714       89.676        8.380       61.324       50.318       39.966     3760.628     2531.863     1597.266        1.380        0.394      140.158       33.057        0.056      349.918       30.700      863.912
07/03/2013  12:14:00       88.015       68.286       23.359       28.094       29.470       37.790      789.251      868.481     1428.063        0.802        0.154      111.398       17.382        0.024      349.659       30.250      863.916
07/03/2013  12:15:00       99.962       54.399       24.472       31.898       32.828       34.728     1017.461     1077.706     1206.040        0.843        0.165      113.806       17.923        0.025      349.696       30.313      863.919
07/03/2013  12:16:00       18.634       75.871        4.828       36.103       56.376       28.816     1303.392     3178.226      830.354        0.572        0.266       78.126       23.939        0.094      350.464       31.648      863.907
07/03/2013  12:17:00       17.704       75.509       29.268       47.307       53.750       37.208     2237.953     2889.076     1384.469        0.669        0.326       77.557       32.564        0.176      350.425       31.581      863.895
07/03/2013  12:18:00       -6.545      193.317      -16.190       44.165       94.168       40.838     1950.580     8867.603     1667.716        2.508        0.624      193.428       45.249        0.055      350.155       31.109      863.894
07/03/2013  12:19:00       -5.181      123.477      -10.079       66.440       82.196       38.006     4414.318     6756.150     1444.446        1.399        0.631      123.585       31.274        0.064      350.145       31.095      863.881
07/03/2013  12:20:00       72.824       83.866        1.928       59.067       38.551       30.785     3488.909     1486.210      947.722        0.913        0.296      111.071       20.105        0.033      349.847       30.575      863.881
07/03/2013  12:21:00       36.885       43.350       -4.183       39.724       49.597       28.529     1578.003     2459.823      813.914        0.405        0.243       56.919       16.048        0.079      349.797       30.489      863.881
07/03/2013  12:22:00      -26.616       20.336       -5.134       24.328       19.262       30.252      591.833      371.009      915.167        0.151        0.094       33.496       21.368        0.407      350.162       31.124      863.845
07/03/2013  12:23:00      -77.838       44.741      -16.142       29.920       20.394       19.500      895.186      415.923      380.232        0.501        0.085       89.781       14.113        0.025      349.712       30.340      863.830
07/03/2013  12:24:00      -45.925        4.874       -1.527       23.649       14.284       28.296      559.286      204.036      800.685        0.185        0.078       46.183       21.979        0.226      350.297       31.358      863.813
07/03/2013  12:25:00      -40.227       24.723        9.390       31.597       27.419       22.337      998.398      751.793      498.956        0.228        0.112       47.216        6.234        0.017      350.452       31.628      863.789
07/03/2013  12:26:00      -66.127        0.975        6.386       61.452       33.165       26.364     3776.298     1099.926      695.082        0.499        0.279       66.134       32.361        0.239      350.113       31.040      863.791
07/03/2013  12:27:00        2.563       19.256       32.527       20.144       22.740       23.105      405.800      517.115      533.845        0.145        0.073       19.425       18.272        0.885      351.263       33.041      863.779
07/03/2013  12:28:00       40.502       58.497       23.446       34.983       44.000       34.955     1223.824     1936.008     1221.882        0.500        0.219       71.150       25.002        0.123      350.552       31.801      863.769
07/03/2013  12:29:00      118.093       87.726       36.366       78.444       52.460       53.182     6153.440     2752.051     2828.283        1.735        0.587      147.111       39.993        0.074      350.260       31.291      863.755
07/03/2013  12:30:00      120.114      102.133       44.354       89.135       48.444       58.373     7945.112     2346.810     3407.427        2.026        0.685      157.666       46.410        0.087      350.298       31.357      863.728
07/03/2013  12:31:00      121.381      101.919       34.831       94.391       56.073       53.800     8909.710     3144.167     2894.393        2.064        0.747      158.495       37.978        0.057      350.316       31.389      863.711
07/03/2013  12:32:00       92.098       67.672       27.255       79.522       69.086       47.209     6323.719     4772.924     2228.653        1.356        0.666      114.287       33.033        0.084      350.338       31.428      863.698
07/03/2013  12:33:00       -1.318       57.891      101.102       45.778       64.378       51.814     2095.638     4144.583     2684.673        1.125        0.446       57.906       48.428        0.699      350.260       31.294      863.679
07/03/2013  12:34:00       -0.977       27.078       50.454       33.783       39.560       23.351     1141.271     1565.015      545.293        0.327        0.163       27.096       22.554        0.693      350.516       31.738      863.683
07/03/2013  12:35:00      -30.893      -14.840       47.893       56.992       61.716       39.843     3248.078     3808.921     1587.441        0.605        0.432       34.273       29.554        0.744      350.760       32.161      863.657
07/03/2013  12:36:00      182.476      114.758       18.701       73.865       63.053       55.113     5456.069     3975.665     3037.448        2.964        0.623      215.562       34.697        0.026      350.088       30.990      863.662
07/03/2013  12:37:00      114.797       87.532       13.549       64.767       55.079       44.476     4194.757     3033.650     1978.089        1.511        0.460      144.361       23.473        0.026      350.323       31.403      863.667
07/03/2013  12:38:00       28.311       91.356        2.993       36.098       59.943       41.399     1303.035     3593.115     1713.871        0.788        0.331       95.642       34.782        0.132      350.235       31.250      863.658
07/03/2013  12:39:00       24.472       66.799       11.744       40.634       59.765       40.253     1651.138     3571.802     1620.300        0.602        0.342       71.141       37.980        0.285      350.468       31.655      863.664
07/03/2013  12:40:00       25.158        9.808       29.644       29.820       18.653       20.855      889.218      347.934      434.942        0.164        0.084       27.003       12.962        0.230      350.886       32.383      863.657
07/03/2013  12:41:00       53.799       38.134        6.121       22.587       32.528       30.576      510.164     1058.049      934.920        0.344        0.125       65.944       13.985        0.045      350.242       31.261      863.649
07/03/2013  12:42:00       42.854       21.365       25.461       31.441       24.297       28.286      988.529      590.364      800.092        0.266        0.119       47.884       19.001        0.157      350.583       31.855      863.645
07/03/2013  12:43:00       64.241       45.687       10.461       34.726       34.581       29.609     1205.916     1195.839      876.692        0.480        0.164       78.830       23.197        0.087      350.424       31.578      863.621
07/03/2013  12:44:00       -6.687       57.972      -15.984       18.237       22.955       24.275      332.573      526.925      589.283        0.255        0.072       58.356        9.794        0.028      350.207       31.201      863.616
07/03/2013  12:45:00      -56.912       34.267      -10.125       13.451       14.579       22.232      180.927      212.540      494.245        0.270        0.044       66.432       10.908        0.027      350.013       30.863      863.613
07/03/2013  12:46:00      -40.512       12.168       13.263       24.044       23.958       23.522      578.119      573.971      553.277        0.183        0.085       42.300       18.936        0.200      350.496       31.704      863.596
07/03/2013  12:47:00      -25.031      -26.677        1.714       20.833       22.513       13.734      434.016      506.841      188.614        0.124        0.056       36.581       10.098        0.076      350.867       32.349      863.590
07/03/2013  12:48:00      -52.518       -5.240       -4.067       17.199       25.673       17.579      295.790      659.083      309.038        0.203        0.063       52.779       15.885        0.091      350.273       31.317      863.574
07/03/2013  12:49:00      -71.707      -25.313       -2.277       21.293       19.827       20.257      453.396      393.121      410.350        0.352        0.063       76.044       10.593        0.019      350.448       31.620      863.555
07/03/2013  12:50:00        0.272      -96.775      -12.525       47.281       74.378       31.109     2235.527     5532.155      967.795        0.913        0.437       96.776       36.246        0.140      350.598       31.881      863.551
07/03/2013  12:51:00       37.131       24.547       62.898       55.969       79.123       56.754     3132.525     6260.435     3220.966        0.927        0.631       44.511       56.266        1.598      350.620       31.921      863.527
07/03/2013  12:52:00       64.699      -41.432        3.191       37.075       30.896       34.350     1374.572      954.577     1179.894        0.471        0.175       76.829       24.157        0.099      349.938       30.734      863.528
07/03/2013  12:53:00       20.506       25.824        5.529       33.234       36.414       28.619     1104.510     1325.990      819.061        0.218        0.162       32.975       12.411        0.142      350.636       31.949      863.505
07/03/2013  12:54:00      -61.296       80.935       -9.277       33.669       30.856       24.767     1133.622      952.102      613.424        0.655        0.135      101.527       13.940        0.019      350.230       31.241      863.467
07/03/2013  12:55:00     -117.599       56.770      -11.190       49.987       50.703       28.578     2498.690     2570.781      816.724        1.153        0.294      130.584       29.814        0.052      350.187       31.166      863.443
07/03/2013  12:56:00     -113.251      -44.844        1.519       69.047       58.676       31.513     4767.508     3442.901      993.069        1.202        0.460      121.807       34.526        0.080      350.509       31.726      863.415
07/03/2013  12:57:00      -19.955      -35.396       34.948       59.677       71.516       49.821     3561.353     5114.605     2482.094        0.701        0.558       40.633       44.716        1.211      350.975       32.540      863.400
07/03/2013  12:58:00      -96.411      -32.774       -5.660       56.219       29.646       24.235     3160.552      878.911      587.348        0.751        0.231      101.829       22.314        0.048      350.459       31.640      863.375
07/03/2013  12:59:00      -40.421      -41.608        2.188       56.823       47.248       32.401     3228.903     2232.330     1049.841        0.494        0.326       58.009       29.799        0.264      350.609       31.901      863.376
07/03/2013  13:00:00      -23.633       -9.231       19.315       33.119       21.781       22.843     1096.897      474.402      521.810        0.155        0.105       25.372       18.476        0.530      351.289       33.086      863.350
07/03/2013  13:01:00      -21.578        4.590        8.877       22.388       19.202       26.418      501.210      368.720      697.936        0.107        0.078       22.061       15.058        0.466      351.473       33.408      863.339
07/03/2013  13:02:00        3.828       20.748       42.325       37.679       30.380       24.633     1419.711      922.950      606.788        0.259        0.147       21.098       12.585        0.356      351.108       32.771      863.333
07/03/2013  13:03:00       23.369      -31.669        4.705       42.400       35.118       32.893     1797.768     1233.295     1081.945        0.284        0.206       39.357       29.563        0.564      350.792       32.219      863.331
07/03/2013  13:04:00       51.039       29.213       14.631       52.483       43.715       33.944     2754.440     1911.016     1152.163        0.474        0.291       58.808       15.203        0.067      351.084       32.729      863.329
07/03/2013  13:05:00       89.978       76.038        7.061       56.862       66.266       47.847     3233.336     4391.224     2289.337        1.192        0.496      117.804       16.675        0.020      350.497       31.704      863.295
07/03/2013  13:06:00        7.430       67.456       35.202       44.867       46.389       39.773     2013.022     2151.897     1581.929        0.579        0.287       67.864       28.772        0.180      351.137       32.820      863.268
07/03/2013  13:07:00      -17.889       98.418       12.103       36.255       70.266       43.994     1314.423     4937.257     1935.514        0.917        0.409      100.030       43.847        0.192      350.892       32.392      863.242
07/03/2013  13:08:00      -29.526      111.319       -9.856       43.760       78.577       39.262     1914.916     6174.359     1541.544        1.149        0.482      115.168       40.229        0.122      350.984       32.552      863.231
07/03/2013  13:09:00      -71.453       96.293      -14.746       70.406       62.713       33.881     4957.017     3932.863     1147.896        1.231        0.502      119.908       30.307        0.064      350.837       32.297      863.219
07/03/2013  13:10:00      -94.743       62.260       -6.226       46.440       38.563       31.836     2156.632     1487.068     1013.515        0.877        0.233      113.369       29.000        0.065      351.002       32.585      863.207
07/03/2013  13:11:00      -94.395       29.971       -8.255       42.971       48.351       32.937     1846.489     2337.803     1084.864        0.757        0.263       99.039       29.474        0.089      351.020       32.616      863.212
07/03/2013  13:12:00      -78.075      -32.631       -9.069       65.340       51.408       23.180     4269.251     2642.801      537.317        0.734        0.372       84.620       23.389        0.076      350.308       31.376      863.197
07/03/2013  13:13:00      -21.164      -55.869        6.092       25.674       30.650       16.208      659.165      939.432      262.706        0.273        0.093       59.744       12.122        0.041      350.525       31.754      863.194
07/03/2013  13:14:00      -21.474      -43.249       -0.669       23.528       32.518       17.795      553.577     1057.415      316.652        0.213        0.096       48.287       10.825        0.050      350.609       31.900      863.182
07/03/2013  13:15:00      -10.744      196.888      -14.632       47.491      131.265       59.327     2255.412    17230.511     3519.677        3.105        1.150      197.181       75.614        0.147      350.950       32.492      863.183
07/03/2013  13:16:00      -19.060      300.694      -29.765       47.732       93.779       49.430     2278.329     8794.516     2443.358        5.259        0.676      301.297       50.387        0.028      350.689       32.036      863.180
07/03/2013  13:17:00        5.941      269.867      -29.068       34.827       47.767       27.633     1212.946     2281.727      763.557        3.898        0.213      269.932       19.948        0.005      350.375       31.490      863.179
07/03/2013  13:18:00     -109.873      202.222      -30.848       76.402       82.454       35.392     5837.313     6798.609     1252.568        3.390        0.694      230.143       35.321        0.024      350.521       31.743      863.174
07/03/2013  13:19:00      -92.396      202.381      -16.573       56.170       93.921       39.249     3155.102     8821.080     1540.520        3.164        0.676      222.475       38.234        0.030      350.799       32.230      863.163
07/03/2013  13:20:00      -58.497      276.963      -17.684       36.148       79.062       34.006     1306.699     6250.839     1156.424        4.458        0.436      283.073       31.770        0.013      350.638       31.947      863.154
07/03/2013  13:21:00      -17.110      161.771       -4.536       33.341       41.560       34.463     1111.608     1727.200     1187.726        1.525        0.201      162.673       27.459        0.028      350.860       32.339      863.150
07/03/2013  13:22:00      -26.112      124.087        2.086       35.772       58.511       40.901     1279.623     3423.533     1672.932        1.123        0.319      126.805       31.339        0.061      351.125       32.799      863.122
07/03/2013  13:23:00       -8.800       43.202       25.310       22.432       43.074       28.392      503.213     1855.403      806.086        0.287        0.158       44.089       24.662        0.313      351.885       34.126      863.102
07/03/2013  13:24:00       43.772       33.955       19.237       22.344       23.942       24.242      499.233      573.225      587.668        0.255        0.083       55.398       14.225        0.066      351.000       32.582      863.076
07/03/2013  13:25:00       -1.635        4.866       27.728       26.819       39.819       20.114      719.237     1585.549      404.585        0.175        0.135        5.133       23.205       20.434      351.340       33.175      863.049
07/03/2013  13:26:00      -65.607      -17.781        9.475       36.440       30.046       24.261     1327.880      902.774      588.578        0.376        0.141       67.973       23.556        0.120      351.376       33.238      863.035
07/03/2013  13:27:00      -98.614      -29.012       -8.080       27.076       24.907       18.259      733.103      620.381      333.404        0.616        0.084      102.793        9.210        0.008      350.589       31.866      863.020
07/03/2013  13:28:00      -24.574       19.548       15.875       23.834       17.756       23.182      568.056      315.287      537.399        0.133        0.071       31.401       14.284        0.207      351.366       33.219      862.997
07/03/2013  13:29:00      -34.378      110.556        8.570       64.832      109.779       38.274     4203.214    12051.322     1464.934        1.560        0.886      115.778       53.448        0.213      351.500       33.453      862.996
07/03/2013  13:30:00     -105.811      274.057      -31.031       62.811      116.099       43.439     3945.186    13479.077     1886.964        5.328        0.966      293.774       48.387        0.027      350.761       32.162      862.995
07/03/2013  13:31:00     -140.189      258.090      -34.861       62.371      132.222       40.445     3890.107    17482.713     1635.817        5.524        1.150      293.706       39.426        0.018      350.698       32.052      862.966
07/03/2013  13:32:00     -127.784      216.521      -34.958       78.857       77.576       40.550     6218.409     6017.984     1644.263        3.915        0.694      251.416       41.557        0.027      350.768       32.172      862.972
07/03/2013  13:33:00      -39.071      232.523      -15.109       62.269      171.475       54.929     3877.490    29403.672     3017.187        4.605        1.815      235.783       83.939        0.127      351.114       32.778      862.948
07/03/2013  13:34:00      -13.721      251.956      -20.235       61.508       70.983       44.774     3783.225     5038.614     2004.740        3.745        0.541      252.329       39.190        0.024      351.060       32.681      862.933
07/03/2013  13:35:00        6.314      240.885      -17.668       49.077      111.660       49.211     2408.518    12468.020     2421.713        3.783        0.865      240.968       57.614        0.057      351.038       32.645      862.926
07/03/2013  13:36:00       19.210       50.158      -11.393       54.635       83.258       29.926     2984.989     6931.967      895.547        0.691        0.541       53.711       21.224        0.156      351.269       33.050      862.915
07/03/2013  13:37:00      -80.151      159.413      -15.030       67.374       93.011       47.948     4539.268     8651.067     2299.016        2.377        0.774      178.429       50.713        0.081      351.013       32.601      862.909
07/03/2013  13:38:00      -46.449      135.972        8.562       59.975       96.847       52.815     3597.043     9379.393     2789.392        1.824        0.788      143.687       47.380        0.109      351.399       33.276      862.876
07/03/2013  13:39:00      -91.686      -22.392        7.993       66.364       81.200       38.076     4404.183     6593.506     1449.813        1.071        0.622       94.381       40.222        0.182      351.419       33.312      862.856
07/03/2013  13:40:00       -9.828      -19.508       28.948       93.992       86.331       53.676     8834.448     7452.987     2881.163        1.024        0.958       21.844       54.215        6.160      351.459       33.382      862.840
07/03/2013  13:41:00       16.326       -6.677       22.261       40.298       45.910       29.619     1623.944     2107.754      877.288        0.271        0.230       17.639       22.953        1.693      351.603       33.634      862.826
07/03/2013  13:42:00      -65.796      -15.595       15.573       84.890       68.602       40.998     7206.371     4706.303     1680.814        0.920        0.680       67.619       34.435        0.259      351.367       33.221      862.820
07/03/2013  13:43:00        7.640       47.629       18.765       25.553       35.106       24.813      652.968     1232.406      615.688        0.259        0.125       48.238       20.299        0.177      351.866       34.091      862.816
07/03/2013  13:44:00       21.501       25.716       36.779       77.031       47.029       40.394     5933.823     2211.711     1631.682        0.612        0.489       33.520       19.839        0.350      351.568       33.572      862.787
07/03/2013  13:45:00       -7.972       76.745       16.055       39.105       53.048       34.004     1529.221     2814.072     1156.286        0.585        0.275       77.158       28.881        0.140      351.734       33.859      862.779
07/03/2013  13:46:00      186.613      104.717        4.279       79.021       50.876       48.332     6244.341     2588.394     2336.030        2.849        0.558      213.986       32.475        0.023      351.007       32.589      862.762
07/03/2013  13:47:00      104.507       79.312       34.614       70.073       48.365       42.778     4910.178     2339.200     1829.985        1.374        0.454      131.196       26.943        0.042      351.257       33.028      862.753
07/03/2013  13:48:00       27.233      112.996        3.766       59.011       65.991       42.372     3482.329     4354.862     1795.372        1.158        0.482      116.231       43.432        0.140      351.391       33.262      862.746
07/03/2013  13:49:00      -16.736       75.910       12.625       42.174       60.083       38.216     1778.644     3609.938     1460.469        0.652        0.342       77.734       40.317        0.269      351.504       33.462      862.723
07/03/2013  13:50:00       20.007       19.731       25.760       33.834       34.849       39.680     1144.734     1214.436     1574.522        0.269        0.197       28.100       24.214        0.743      351.740       33.873      862.704
07/03/2013  13:51:00      -13.045       41.935       16.142       76.328       35.370       34.370     5826.025     1251.041     1181.280        0.522        0.413       43.917       28.882        0.433      351.748       33.885      862.688
07/03/2013  13:52:00       97.586       71.456       26.944       89.870       60.360       46.051     8076.576     3643.336     2120.684        1.459        0.692      120.950       32.379        0.072      351.576       33.583      862.680
07/03/2013  13:53:00       36.913      126.640       -3.171       69.187       48.382       40.689     4786.860     2340.816     1655.584        1.310        0.439      131.911       36.404        0.076      351.316       33.132      862.678
07/03/2013  13:54:00        5.543       95.816       14.224       75.525       70.525       48.719     5704.099     4973.797     2373.547        1.123        0.653       95.976       37.023        0.149      351.563       33.563      862.667
07/03/2013  13:55:00       29.177       25.880       19.388       75.676       56.906       38.739     5726.853     3238.297     1500.740        0.618        0.523       39.001       27.955        0.514      351.599       33.626      862.648
07/03/2013  13:56:00       39.341       28.711       35.073       66.312       44.983       33.419     4397.257     2023.437     1116.806        0.557        0.377       48.704       27.161        0.311      351.969       34.272      862.647
07/03/2013  13:57:00        7.787      306.069      -41.957       73.170      130.742       56.530     5353.812    17093.427     3195.632        6.057        1.282      306.168       63.058        0.042      351.392       33.262      862.682
07/03/2013  13:58:00      -24.230      364.959      -36.639       57.182       79.614       43.341     3269.731     6338.390     1878.442        7.330        0.574      365.762       43.129        0.014      351.143       32.825      862.683
07/03/2013  13:59:00       15.244      153.968        1.297       62.505      105.928       64.580     3906.824    11220.673     4170.588        2.162        0.965      154.721       64.380        0.173      351.337       33.168      862.689
07/03/2013  14:00:00      -70.185      180.092      -17.836       76.643       82.367       47.677     5874.220     6784.294     2273.103        2.630        0.747      193.285       38.672        0.040      351.266       33.042      862.694
07/03/2013  14:01:00      -97.490       64.232       -7.504       66.908       50.370       36.348     4476.726     2537.123     1321.141        1.101        0.417      116.748       37.371        0.102      351.445       33.355      862.689
07/03/2013  14:02:00      -81.211       76.747      -25.525       57.578       36.319       24.707     3315.280     1319.067      610.446        0.919        0.262      111.738       24.748        0.049      351.040       32.650      862.670
07/03/2013  14:03:00       -0.970       62.149       17.964       45.925       79.830       43.566     2109.109     6372.818     1897.996        0.728        0.519       62.156       42.997        0.479      351.946       34.231      862.665
07/03/2013  14:04:00       43.210      155.231       -0.321       58.294      109.281       50.463     3398.210    11942.435     2546.525        2.192        0.894      161.133       58.567        0.132      351.632       33.680      862.650
07/03/2013  14:05:00       73.574      108.882       17.103       75.796       75.332       57.526     5745.000     5674.849     3309.265        1.614        0.736      131.409       41.958        0.102      351.413       33.300      862.627
07/03/2013  14:06:00      108.323      150.658      -20.427      100.575       81.219       54.732    10115.280     6596.498     2995.568        2.727        0.985      185.558       47.305        0.065      351.559       33.552      862.588
07/03/2013  14:07:00     -116.834      204.962      -19.267       73.744       93.825       58.729     5438.145     8803.085     3449.081        3.686        0.885      235.923       48.671        0.043      351.473       33.400      862.625
07/03/2013  14:08:00     -135.360      160.080      -28.105       80.015      107.128       56.339     6402.466    11476.496     3174.085        3.289        1.053      209.637       58.420        0.078      351.440       33.345      862.587
07/03/2013  14:09:00      -74.758      166.297      -21.271       54.054       77.809       32.005     2921.838     6054.210     1024.288        2.185        0.500      182.328       34.191        0.035      351.389       33.257      862.554
07/03/2013  14:10:00     -103.374      286.920      -24.437       71.811      108.088       52.281     5156.828    11682.933     2733.275        5.659        0.979      304.974       52.844        0.030      351.325       33.142      862.525
07/03/2013  14:11:00      -48.852      113.186       -1.214       62.258       75.546       41.246     3876.091     5707.193     1701.233        1.324        0.564      123.279       37.633        0.093      351.714       33.826      862.515
07/03/2013  14:12:00      -66.174      177.312      -13.830       44.884       73.973       42.391     2014.585     5471.976     1796.960        2.264        0.464      189.258       44.380        0.055      351.341       33.172      862.493
07/03/2013  14:13:00      -96.309      203.093      -10.196       66.402      107.004       49.764     4409.219    11449.792     2476.504        3.448        0.917      224.771       53.189        0.056      351.448       33.359      862.481
07/03/2013  14:14:00     -189.644      131.685      -33.106       76.688       72.530       44.994     5881.084     5260.585     2024.487        3.378        0.658      230.880       46.534        0.041      351.215       32.954      862.458
07/03/2013  14:15:00      -59.097      119.942        2.971       84.970       71.279       44.476     7219.965     5080.628     1978.156        1.608        0.714      133.710       36.357        0.074      351.829       34.025      862.442
07/03/2013  14:16:00       64.300       75.325       31.971       91.548       61.206       60.743     8381.067     3746.226     3689.773        1.332        0.791       99.037       47.433        0.229      352.089       34.482      862.427
07/03/2013  14:17:00       87.165       50.767       21.274       76.839       57.942       35.602     5904.185     3357.263     1267.478        1.058        0.526      100.872       25.916        0.066      351.786       33.951      862.390
07/03/2013  14:18:00       58.437      160.580      -15.147       71.452       89.630       59.490     5105.364     8033.506     3539.040        2.305        0.834      170.882       53.646        0.099      351.505       33.458      862.387
07/03/2013  14:19:00      -62.509      261.916      -17.414       73.586      101.064       59.639     5414.886    10213.998     3556.837        4.599        0.959      269.272       56.943        0.045      351.450       33.362      862.390
07/03/2013  14:20:00      -60.494      275.406      -29.752       73.001      121.540       41.397     5329.126    14771.904     1713.718        5.110        1.091      281.972       53.358        0.036      351.242       33.000      862.381
07/03/2013  14:21:00       30.831       69.441       18.172       53.580       43.289       30.055     2870.776     1873.941      903.307        0.587        0.282       75.977       20.286        0.071      351.711       33.820      862.340
07/03/2013  14:22:00      108.071       81.993       12.357       38.348       50.318       36.273     1470.598     2531.945     1315.709        1.194        0.266      135.655       27.213        0.040      351.137       32.820      862.300
07/03/2013  14:23:00       27.959       25.383       18.604       51.787       31.111       27.980     2681.869      967.866      782.856        0.310        0.222       37.762        7.797        0.043      351.583       33.597      862.271
07/03/2013  14:24:00       18.243       43.395        5.626       37.206       32.215       32.641     1384.300     1037.805     1065.427        0.287        0.174       47.074       10.195        0.047      351.801       33.978      862.241
07/03/2013  14:25:00      191.187      113.860       59.201      106.088       71.244       57.498    11254.676     5075.746     3306.057        3.632        0.982      222.523       39.868        0.032      351.560       33.554      862.190
07/03/2013  14:26:00       89.928       59.125       22.923       73.437       55.496       50.673     5393.053     3079.847     2567.760        1.157        0.552      107.623       29.562        0.075      351.892       34.136      862.185
07/03/2013  14:27:00      -57.538       97.864        3.322      101.756       86.382       42.444    10354.224     7461.840     1801.453        1.625        0.981      113.525       35.415        0.097      351.951       34.239      862.166
07/03/2013  14:28:00     -192.095      112.654      -36.607       83.513       78.827       40.951     6974.424     6213.721     1676.949        3.290        0.743      222.691       42.516        0.036      351.272       33.051      862.152
07/03/2013  14:29:00     -115.784       51.692      -12.062       86.583       46.734       36.212     7496.693     2184.033     1311.316        1.361        0.550      126.799       38.913        0.094      351.551       33.541      862.118
07/03/2013  14:30:00      -65.001       47.054        7.740       81.607       44.174       36.356     6659.709     1951.345     1321.750        0.821        0.497       80.245       34.701        0.187      351.766       33.918      862.081
07/03/2013  14:31:00      -57.942      103.477      -13.967       33.460       39.428       35.010     1119.585     1554.573     1225.688        0.908        0.195      118.595       18.793        0.025      351.663       33.738      862.061
07/03/2013  14:32:00      -47.280       99.518       -7.496       66.748      113.759       39.531     4455.282    12941.221     1562.663        1.557        0.948      110.178       47.858        0.189      351.857       34.076      862.026
07/03/2013  14:33:00       83.119      268.578      -19.669       82.456      120.681       74.727     6798.913    14563.956     5584.083        5.318        1.347      281.146       71.214        0.064      352.018       34.353      862.016
07/03/2013  14:34:00      -38.069      256.939       -9.928       96.037      126.776       67.962     9223.135    16072.205     4618.877        4.873        1.496      259.744       72.730        0.078      351.859       34.078      861.996
07/03/2013  14:35:00       18.389      128.132        6.722      103.355      112.322       63.388    10682.157    12616.338     4018.016        2.205        1.366      129.445       68.406        0.279      351.972       34.274      861.979
07/03/2013  14:36:00      116.623      158.544       -7.239       87.293       93.545       70.070     7619.983     8750.750     4909.771        3.003        1.064      196.817       59.801        0.092      351.791       33.958      861.982
07/03/2013  14:37:00       53.856       89.423       15.124       82.016       81.875       60.501     6726.639     6703.576     3660.353        1.410        0.855      104.388       49.218        0.222      351.790       33.958      861.958
07/03/2013  14:38:00      162.770      124.962        6.402      106.395       79.206       67.032    11319.796     6273.538     4493.337        3.211        1.104      205.206       44.077        0.046      351.858       34.074      861.923
07/03/2013  14:39:00      110.641      141.497       -0.009      111.151       81.347       60.835    12354.616     6617.318     3700.850        2.746        1.134      179.618       62.936        0.123      351.797       33.967      861.913
07/03/2013  14:40:00      194.650      152.368       30.497      117.727       72.555       74.661    13859.659     5264.240     5574.202        4.336        1.235      247.193       46.163        0.035      351.867       34.089      861.880
07/03/2013  14:41:00      229.017      154.085       23.189      140.271       95.211       70.482    19676.064     9065.070     4967.703        5.521        1.685      276.027       27.637        0.010      351.930       34.200      861.836
07/03/2013  14:42:00       94.695      165.499        8.444      107.186      111.042       85.937    11488.850    12330.421     7385.225        3.381        1.560      190.675       67.432        0.125      352.023       34.362      861.826
07/03/2013  14:43:00      151.195      194.259       -1.729      123.616      106.513       80.249    15280.859    11345.070     6439.842        4.683        1.653      246.163       66.854        0.074      351.963       34.256      861.800
07/03/2013  14:44:00      133.270      101.229       17.222       89.602       94.732       60.331     8028.556     8974.232     3639.773        2.447        1.032      167.357       55.751        0.111      352.330       34.901      861.783
07/03/2013  14:45:00      131.899      107.792        2.231      124.915       97.855       67.433    15603.775     9575.587     4547.152        2.937        1.486      170.342       48.035        0.080      352.259       34.775      861.787
07/03/2013  14:46:00       80.381      256.619      -30.926       90.936      136.113       72.961     8269.282    18526.738     5323.319        5.269        1.606      268.913       84.436        0.099      351.834       34.032      861.767
07/03/2013  14:47:00      129.501      102.686        7.623      101.402       75.674       52.843    10282.426     5726.560     2792.365        2.308        0.940      165.272       43.954        0.071      351.976       34.282      861.762
07/03/2013  14:48:00      152.567      138.661       11.801      125.387       76.479       59.354    15721.937     5848.985     3522.849        3.386        1.255      206.164       31.348        0.023      351.862       34.083      861.722
07/03/2013  14:49:00       40.962      222.167        3.500      146.211      142.730       94.179    21377.554    20371.991     8869.688        5.082        2.531      225.911       91.474        0.164      352.078       34.459      861.698
07/03/2013  14:50:00     -147.752      224.620      -33.910       74.287      102.428       47.112     5518.510    10491.524     2219.581        4.583        0.911      268.858       43.297        0.026      351.700       33.798      861.733
07/03/2013  14:51:00       37.755      139.051       -0.366       86.542       75.553       54.085     7489.455     5708.209     2925.182        1.844        0.806      144.085       50.073        0.121      351.992       34.311      861.704
07/03/2013  14:52:00      128.248      147.456       -7.307       95.748       97.313       77.872     9167.720     9469.811     6064.037        3.147        1.235      195.425       61.111        0.098      351.963       34.258      861.675
07/03/2013  14:53:00      162.928      164.988       12.688      142.458       92.010       70.422    20294.346     8465.817     4959.278        4.382        1.686      231.876       61.619        0.071      351.955       34.242      861.652
07/03/2013  14:54:00      189.518      163.516       17.030      121.894       93.112       72.236    14858.121     8669.775     5218.076        4.584        1.437      250.308       51.253        0.042      351.883       34.116      861.638
07/03/2013  14:55:00      141.614      177.930        3.683      128.139      112.294       74.719    16419.484    12609.948     5582.901        4.316        1.731      227.406       68.296        0.090      351.954       34.242      861.614
07/03/2013  14:56:00       36.785      235.170      -35.483       57.130       99.979       44.029     3263.797     9995.816     1938.509        3.655        0.760      238.030       47.025        0.039      351.999       34.319      861.631
07/03/2013  14:57:00       30.922      126.007       -5.612       70.452       92.416       49.146     4963.478     8540.717     2415.303        1.639        0.796      129.746       44.130        0.116      352.084       34.470      861.609
07/03/2013  14:58:00       63.599       67.096       -6.525       68.790       50.741       40.279     4732.055     2574.620     1622.399        0.876        0.446       92.449       31.818        0.118      352.236       34.739      861.571
07/03/2013  14:59:00       90.701       68.065        4.319       87.524       59.278       51.275     7660.447     3513.838     2629.079        1.334        0.690      113.400       29.991        0.070      352.361       34.956      861.552
07/03/2013  15:00:00        7.811      180.482      -12.708       59.103       72.386       59.804     3493.223     5239.732     3576.510        2.255        0.615      180.651       54.272        0.090      351.914       34.171      861.535
07/03/2013  15:01:00     -136.265      152.773      -35.115      122.998       59.377       38.100    15128.492     3525.668     1451.627        3.162        1.005      204.714       38.207        0.035      352.128       34.546      861.534
07/03/2013  15:02:00     -220.183      183.244      -44.849       70.616       77.283       51.244     4986.618     5972.614     2625.957        4.883        0.679      286.459       49.677        0.030      351.856       34.070      861.531
07/03/2013  15:03:00     -148.302      168.924      -31.906       72.097       93.135       53.594     5197.924     8674.154     2872.364        3.414        0.837      224.786       51.538        0.053      351.942       34.219      861.525
07/03/2013  15:04:00      -97.994      197.435      -21.659       69.723      129.988       46.160     4861.256    16896.805     2130.748        3.647        1.194      220.416       44.604        0.041      351.920       34.183      861.519
07/03/2013  15:05:00       15.260      156.148        3.598       74.976      118.079       60.109     5621.464    13942.674     3613.124        2.390        1.159      156.892       68.470        0.190      351.994       34.313      861.519
07/03/2013  15:06:00       14.526      236.529      -39.800       63.034       72.263       31.784     3973.290     5221.933     1010.244        3.397        0.510      236.975       30.648        0.017      351.686       33.773      861.476
07/03/2013  15:07:00       34.184      293.355      -31.498       76.478      168.217       67.290     5848.865    28296.891     4527.928        6.344        1.934      295.340       86.030        0.085      351.943       34.224      861.433
07/03/2013  15:08:00       52.527      114.220        3.790       78.736       93.867       43.930     6199.420     8811.029     1929.816        1.638        0.847      125.719       50.758        0.163      351.768       33.919      861.408
07/03/2013  15:09:00      -75.740       72.923      -23.286       51.157       70.904       41.038     2617.084     5027.381     1684.088        1.046        0.466      105.140       35.898        0.117      351.985       34.299      861.365
07/03/2013  15:10:00      -74.378       15.404        7.479      122.413       50.674       40.920    14985.028     2567.852     1674.436        1.252        0.961       75.956       61.228        0.650      352.176       34.632      861.312
07/03/2013  15:11:00       99.443      111.502        4.031       76.267       51.522       42.484     5816.730     2654.475     1804.849        1.630        0.514      149.404       34.283        0.053      352.191       34.658      861.311
07/03/2013  15:12:00      113.637      228.651      -26.344       93.044      172.989       65.680     8657.230    29925.354     4313.805        5.438        2.145      255.333       82.549        0.105      352.040       34.392      861.304
07/03/2013  15:13:00       19.709      307.397      -21.701       75.429      136.774       77.047     5689.532    18707.169     5936.185        6.284        1.517      308.028       89.002        0.083      352.206       34.682      861.297
07/03/2013  15:14:00     -157.732      342.522      -57.024      159.316      136.263       68.064    25381.616    18567.698     4632.684        9.701        2.429      377.095       69.637        0.034      352.065       34.435      861.259
07/03/2013  15:15:00       36.794      163.751      -24.906       85.538      114.981       67.013     7316.669    13220.744     4490.768        2.690        1.251      167.834       63.802        0.145      352.350       34.934      861.247
07/03/2013  15:16:00       41.441      290.260      -33.865       83.693      129.085       67.323     7004.464    16663.027     4532.448        5.765        1.410      293.204       66.645        0.052      352.293       34.834      861.239
07/03/2013  15:17:00       -4.261      310.646      -36.656       68.732      129.892       55.743     4724.040    16871.993     3107.268        6.128        1.235      310.675       58.037        0.035      352.408       35.035      861.209
07/03/2013  15:18:00        1.703      404.807      -54.796      123.778      171.416       87.714    15320.925    29383.325     7693.684       10.963        2.620      404.811       94.397        0.054      352.248       34.756      861.203
07/03/2013  15:19:00      -32.348      291.989      -45.185       73.891       71.552       38.967     5459.827     5119.624     1518.420        5.022        0.605      293.776       34.709        0.014      352.318       34.876      861.212
07/03/2013  15:20:00     -123.448      269.037      -29.811       98.163      131.145       68.053     9636.069    17199.139     4631.201        5.998        1.573      296.007       79.972        0.073      352.309       34.862      861.224
07/03/2013  15:21:00     -177.172      253.593      -49.114      107.554      111.564       59.150    11567.799    12446.589     3498.691        6.281        1.376      309.353       68.958        0.050      352.102       34.501      861.193
07/03/2013  15:22:00      -34.575      100.230        5.383      126.748       94.109       67.395    16065.039     8856.596     4542.086        2.036        1.473      106.026       67.874        0.410      352.158       34.601      861.167
07/03/2013  15:23:00       71.845      274.506      -29.300       65.912      163.524       64.917     4344.421    26739.996     4214.154        5.833        1.765      283.752       83.768        0.087      352.197       34.666      861.169
07/03/2013  15:24:00       69.987      155.970       -7.748      102.085       87.956       61.663    10421.401     7736.328     3802.342        2.562        1.098      170.953       58.628        0.118      352.323       34.886      861.136
07/03/2013  15:25:00      139.447       76.412       21.930       77.218       60.682       56.939     5962.609     3682.349     3241.999        1.932        0.644      159.010       29.076        0.033      352.343       34.923      861.098
07/03/2013  15:26:00      184.081      128.204       32.483      115.835       76.910       82.566    13417.779     5915.076     6817.192        3.876        1.308      224.326       48.044        0.046      352.398       35.018      861.077
07/03/2013  15:27:00      215.093      158.089       47.126       82.064       63.163       79.736     6734.446     3989.520     6357.754        4.528        0.854      266.940       28.231        0.011      352.235       34.732      861.062
07/03/2013  15:28:00      181.754      151.329       86.965      100.253       72.417       76.078    10050.601     5244.153     5787.797        4.229        1.054      236.505       53.406        0.051      352.127       34.543      861.023
07/03/2013  15:29:00       73.428       57.753       15.417       66.843       56.379       36.968     4467.982     3178.611     1366.667        0.899        0.451       93.418       19.549        0.044      352.457       35.124      861.011
07/03/2013  15:30:00       64.928      104.668      -12.695       79.496       56.428       42.674     6319.641     3184.111     1821.101        1.333        0.566      123.171       33.072        0.072      352.337       34.914      860.975
07/03/2013  15:31:00       -2.661      144.403      -13.802       70.675       87.159       35.177     4994.962     7596.710     1237.410        1.744        0.691      144.428       32.363        0.050      352.466       35.138      860.974
07/03/2013  15:32:00       11.072      183.841      -13.066       67.117       99.941       47.232     4504.703     9988.217     2230.868        2.540        0.836      184.174       49.496        0.072      352.522       35.235      860.965
07/03/2013  15:33:00      -16.051      229.715      -23.587       50.976       88.158       46.487     2598.547     7771.769     2161.024        3.305        0.627      230.275       37.694        0.027      352.494       35.188      860.953
07/03/2013  15:34:00       -5.322       96.888       -1.742       63.951       68.141       45.242     4089.773     4643.193     2046.864        1.010        0.539       97.034       34.656        0.128      352.619       35.407      860.953
07/03/2013  15:35:00     -144.107      227.517      -34.724       86.040       96.789       47.881     7402.964     9368.085     2292.614        4.640        0.953      269.315       47.177        0.031      352.085       34.470      860.949
07/03/2013  15:36:00      -78.588      117.504       -8.921       89.705       58.978       44.022     8046.965     3478.428     1937.922        1.676        0.673      141.362       43.999        0.097      352.154       34.593      860.904
07/03/2013  15:37:00       66.533      194.932        3.639       79.673      123.939       79.969     6347.748    15360.875     6394.966        3.527        1.405      205.974       77.988        0.143      352.408       35.037      860.873
07/03/2013  15:38:00       72.097      136.953       -7.223       84.726       95.479       61.800     7178.537     9116.264     3819.253        2.206        1.006      154.771       46.255        0.089      352.259       34.777      860.826
07/03/2013  15:39:00      -46.365      250.800      -31.781       93.673       99.863       52.809     8774.629     9972.660     2788.831        4.379        1.077      255.050       41.555        0.027      352.276       34.804      860.804
07/03/2013  15:40:00     -174.462      256.975      -44.787       96.219      122.835       60.540     9258.133    15088.389     3665.047        6.324        1.401      310.601       64.496        0.043      352.320       34.881      860.775
07/03/2013  15:41:00     -178.008      189.877      -46.641       80.766       97.578       47.565     6523.125     9521.498     2262.445        4.411        0.915      260.269       52.930        0.041      352.157       34.595      860.758
07/03/2013  15:42:00      -18.293      145.358      -12.879      131.915      100.290       50.350    17401.635    10057.995     2535.087        2.581        1.500      146.505       54.359        0.138      352.267       34.789      860.738
07/03/2013  15:43:00      113.407       89.489        5.858       83.361       62.791       47.153     6949.059     3942.757     2223.420        1.701        0.656      144.463       36.878        0.065      352.191       34.656      860.725
07/03/2013  15:44:00       10.320       95.898        3.748       49.346       56.809       34.798     2435.039     3227.271     1210.916        0.809        0.344       96.451       33.110        0.118      352.236       34.737      860.701
07/03/2013  15:45:00      156.457      253.647       -8.337      119.579      168.076       87.542    14299.254    28249.502     7663.570        6.954        2.511      298.020       84.941        0.081      352.350       34.934      860.650
07/03/2013  15:46:00       12.378      288.743      -37.860      147.209      134.988       95.039    21670.504    18221.739     9032.385        6.693        2.446      289.009       66.211        0.052      352.516       35.223      860.633
07/03/2013  15:47:00     -192.776      228.740      -47.433       84.585      125.158       46.597     7154.682    15664.433     2171.312        5.836        1.250      299.140       46.883        0.025      352.323       34.884      860.712
07/03/2013  15:48:00     -132.451       -4.851      -14.792      108.513      131.199       45.038    11775.056    17213.173     2028.443        2.439        1.551      132.540       37.457        0.080      352.368       34.965      860.706
07/03/2013  15:49:00      -46.793       33.979       17.088       44.997       97.504       38.195     2024.756     9507.072     1458.864        0.831        0.650       57.828       42.480        0.540      352.502       35.203      860.705
07/03/2013  15:50:00     -242.039       -6.384      -33.707       72.790       95.147       41.105     5298.442     9052.874     1689.588        3.790        0.802      242.123       33.520        0.019      352.369       34.968      860.686
07/03/2013  15:51:00      -62.966       32.800      -17.166       69.092       55.170       33.017     4773.694     3043.680     1090.146        0.712        0.445       70.997       37.153        0.274      352.630       35.427      860.684
07/03/2013  15:52:00     -126.133      -48.934      -26.251       89.803       38.450       34.339     8064.545     1478.401     1179.168        1.486        0.536      135.292       23.363        0.030      352.540       35.269      860.656
07/03/2013  15:53:00      -48.632      -20.034       13.077       61.621       35.727       26.790     3797.202     1276.439      717.692        0.436        0.290       52.597       18.407        0.122      352.412       35.048      860.627
07/03/2013  15:54:00       12.393       -6.545       23.296       55.775       59.497       37.185     3110.836     3539.842     1382.724        0.438        0.402       14.016       42.523        9.205      352.352       34.941      860.596
07/03/2013  15:55:00      -64.031      -54.076       -3.323       92.415       57.355       34.655     8540.561     3289.643     1200.957        1.003        0.652       83.810       26.997        0.104      352.005       34.335      860.590
07/03/2013  15:56:00     -155.637       -3.629       13.903       90.781       66.090       37.455     8241.174     4367.860     1402.847        1.922        0.701      155.679       33.812        0.047      352.487       35.176      860.567
07/03/2013  15:57:00     -157.545     -117.590       -0.320       82.266       65.135       39.950     6767.756     4242.576     1596.000        2.562        0.630      196.591       33.477        0.029      352.355       34.943      860.546
07/03/2013  15:58:00      -70.216      -79.207        2.136       61.689       51.016       29.681     3805.508     2602.640      880.936        0.925        0.364      105.849       31.798        0.090      352.333       34.908      860.523
07/03/2013  15:59:00     -162.643      -67.106       -4.728       60.106       55.491       31.726     3612.788     3079.272     1006.523        1.934        0.385      175.943       21.909        0.016      352.285       34.822      860.502
07/03/2013  16:00:00     -106.212      -28.621       -3.014       53.427       41.172       29.693     2854.396     1695.110      881.656        0.877        0.272      110.001       20.247        0.034      352.474       35.153      860.479
07/03/2013  16:01:00      -21.709      -29.203       24.144       52.373       46.001       28.675     2742.905     2116.084      822.276        0.379        0.284       36.388       31.540        0.751      352.774       35.680      860.464
07/03/2013  16:02:00      -57.325      -96.354       -1.423       36.563       26.990       20.128     1336.862      728.457      405.144        0.752        0.124      112.117       13.766        0.015      352.247       34.756      860.452
07/03/2013  16:03:00       -2.055      -26.241       16.381       40.287       36.488       18.516     1623.074     1331.408      342.835        0.213        0.165       26.322       24.069        0.836      352.274       34.804      860.433
07/03/2013  16:04:00       54.481       86.288        8.385       55.421       56.044       43.836     3071.460     3140.981     1921.569        0.931        0.407      102.048       39.432        0.149      352.281       34.817      860.426
07/03/2013  16:05:00       85.740       59.919       21.918       65.536       48.465       37.754     4294.987     2348.812     1425.336        0.974        0.403      104.602       23.077        0.049      352.415       35.051      860.401
07/03/2013  16:06:00       80.489      121.966        6.498      109.997       71.758       57.759    12099.231     5149.182     3336.044        2.099        1.029      146.130       61.178        0.175      352.663       35.484      860.401
07/03/2013  16:07:00       47.240       60.574        9.022       76.740       48.152       36.648     5889.013     2318.626     1343.044        0.776        0.478       76.817       26.842        0.122      352.596       35.368      860.385
07/03/2013  16:08:00      -57.327      188.512      -36.571       83.817       80.390       44.613     7025.280     6462.500     1990.277        2.782        0.774      197.036       43.649        0.049      352.542       35.272      860.400
07/03/2013  16:09:00     -154.449      253.726      -37.149       65.439       86.451       49.033     4282.232     7473.703     2404.202        5.188        0.708      297.038       44.561        0.023      352.397       35.015      860.404
07/03/2013  16:10:00     -247.280      237.053      -49.307       95.686       96.944       64.783     9155.736     9398.184     4196.802        7.126        1.138      342.552       64.664        0.036      352.415       35.047      860.391
07/03/2013  16:11:00     -190.067      254.273      -49.988       78.246      115.730       46.642     6122.402    13393.488     2175.497        6.248        1.085      317.460       41.328        0.017      352.303       34.849      860.393
07/03/2013  16:12:00     -118.831      139.948      -27.094       66.097       89.379       42.597     4368.766     7988.619     1814.520        2.430        0.709      183.592       34.839        0.036      352.626       35.418      860.375
07/03/2013  16:13:00     -204.663      238.119      -56.282      104.546       97.669       62.885    10929.791     9539.176     3954.514        6.308        1.221      313.986       66.963        0.045      352.525       35.239      860.381
07/03/2013  16:14:00     -156.501      191.969      -29.534      123.932      123.095       64.742    15359.252    15152.417     4191.567        4.845        1.735      247.678       67.925        0.075      352.587       35.350      860.365
07/03/2013  16:15:00      -35.160       84.527        1.833       70.301       58.055       55.137     4942.274     3370.415     3040.056        0.987        0.568       91.548       31.472        0.118      352.822       35.763      860.334
07/03/2013  16:16:00     -185.467       97.446      -27.141       90.996      125.601       55.186     8280.251    15775.562     3045.489        3.586        1.355      209.508       48.611        0.054      352.601       35.373      860.340
07/03/2013  16:17:00     -171.228      137.117      -10.378      101.318      151.932       54.945    10265.405    23083.302     3018.911        4.229        1.818      219.362       52.283        0.057      352.553       35.288      860.343
07/03/2013  16:18:00     -138.719       36.001      -10.619       92.786      118.493       61.350     8609.248    14040.576     3763.833        2.353        1.321      143.314       50.489        0.124      352.530       35.250      860.322
07/03/2013  16:19:00     -122.065      188.393      -21.437       53.677       69.906       40.587     2881.181     4886.885     1647.281        3.013        0.471      224.482       40.304        0.032      352.381       34.988      860.323
07/03/2013  16:20:00      -64.051      168.413      -18.512       59.832       61.761       36.263     3579.890     3814.444     1314.978        2.076        0.435      180.182       37.165        0.043      352.354       34.943      860.291
07/03/2013  16:21:00       12.120       76.393       -8.768       47.962       56.849       23.593     2300.392     3231.849      556.623        0.607        0.304       77.348       16.415        0.045      352.256       34.775      860.260
07/03/2013  16:22:00       83.772       81.983        9.595       63.647       45.248       38.496     4050.955     2047.396     1481.910        1.070        0.379      117.213       28.072        0.057      352.197       34.670      860.227
07/03/2013  16:23:00      -29.329      186.023        3.155       65.162       93.225       51.311     4246.149     8690.830     2632.846        2.552        0.778      188.321       54.724        0.084      352.458       35.124      860.214
07/03/2013  16:24:00      -75.310       69.694        6.663       54.547       71.413       39.090     2975.325     5099.789     1528.050        1.009        0.480      102.610       34.449        0.113      352.544       35.277      860.210
07/03/2013  16:25:00     -126.986      132.391      -22.576       51.711       65.028       39.437     2673.977     4228.672     1555.288        2.131        0.423      183.447       34.119        0.035      352.506       35.210      860.228
07/03/2013  16:26:00     -278.207       25.688      -38.565      163.479      162.587       60.862    26725.436    26434.522     3704.212        6.819        2.843      279.391       64.637        0.054      352.554       35.289      860.241
07/03/2013  16:27:00     -188.949      -11.074      -27.022       96.814       85.902       47.908     9372.885     7379.119     2295.155        2.780        0.952      189.273       44.409        0.055      352.553       35.289      860.217
07/03/2013  16:28:00     -226.609       76.068      -16.033      153.063      241.957       53.143    23428.346    58543.149     2824.205        7.108        4.240      239.036       67.551        0.080      352.556       35.295      860.221
07/03/2013  16:29:00      -58.307      291.345      -27.563       53.469       90.689       41.062     2858.964     8224.519     1686.099        5.090        0.638      297.122       38.116        0.016      352.315       34.871      860.213
07/03/2013  16:30:00     -145.029       31.072      -17.694       70.174      115.080       40.352     4924.380    13243.360     1628.277        2.105        0.990      148.320       30.852        0.043      352.771       35.673      860.200
07/03/2013  16:31:00     -238.094       37.160      -10.077      201.242      160.925       82.500    40498.306    25896.734     6806.255        6.567        3.660      240.977       87.799        0.133      352.909       35.912      860.187
07/03/2013  16:32:00     -225.443       41.614      -27.304      107.323       72.439       51.405    11518.162     5247.400     2642.460        3.635        0.970      229.252       45.773        0.040      352.666       35.487      860.229
07/03/2013  16:33:00     -236.038        8.664      -20.951       99.337       63.648       35.789     9867.880     4051.058     1280.886        3.571        0.760      236.197       31.283        0.018      352.469       35.143      860.204
07/03/2013  16:34:00     -160.937       15.212      -17.657      103.494       70.179       37.939    10711.060     4925.160     1439.382        2.176        0.854      161.654       47.053        0.085      352.818       35.755      860.210
07/03/2013  16:35:00      -87.927       35.042        7.006      114.606       82.174       54.291    13134.475     6752.648     2947.536        1.592        1.142       94.653       71.099        0.564      352.820       35.758      860.198
07/03/2013  16:36:00     -231.184      -52.916      -14.027      111.188       93.972       49.704    12362.866     8830.677     2470.490        4.005        1.183      237.163       53.404        0.051      353.040       36.141      860.176
07/03/2013  16:37:00     -132.700      -52.046       -6.338       86.643      149.375       48.274     7507.074    22313.038     2330.396        2.625        1.608      142.542       47.107        0.109      352.643       35.447      860.159
07/03/2013  16:38:00     -287.705      -68.821      -27.967      118.308       85.410       49.369    13996.752     7294.928     2437.274        5.601        1.186      295.821       26.700        0.008      352.609       35.387      860.166
07/03/2013  16:39:00      -63.313       -6.706        2.598       86.055       59.941       56.638     7405.419     3592.922     3207.913        0.913        0.710       63.667       57.596        0.818      352.790       35.707      860.166
07/03/2013  16:40:00     -153.228      -57.562        2.506       76.267       84.943       53.071     5816.717     7215.259     2816.547        2.132        0.792      163.683       36.030        0.048      352.596       35.368      860.159
07/03/2013  16:41:00      -18.765       72.666       14.046       38.074       48.551       32.772     1449.638     2357.161     1073.999        0.535        0.244       75.049       24.751        0.109      352.699       35.547      860.150
07/03/2013  16:42:00      -12.720       30.924        6.818       43.691       43.726       19.575     1908.910     1911.993      383.177        0.268        0.210       33.438       21.082        0.397      352.813       35.748      860.124
07/03/2013  16:43:00     -169.979        8.150      -21.875       44.421       35.027       26.810     1973.184     1226.911      718.784        1.668        0.196      170.174       15.890        0.009      352.557       35.299      860.095
07/03/2013  16:44:00     -151.665       30.170      -20.032       22.645       38.385       13.652      512.791     1473.389      186.372        1.324        0.109      154.637        8.699        0.003      352.252       34.768      860.071
07/03/2013  16:45:00       -3.799       -7.966       23.004       56.518       31.406       32.953     3194.301      986.328     1085.925        0.294        0.263        8.825       41.055       21.640      352.746       35.632      860.050
07/03/2013  16:46:00       47.934       99.433        0.061       58.134       65.184       53.199     3379.569     4248.935     2830.104        1.132        0.523      110.384       41.812        0.143      352.524       35.241      860.036
07/03/2013  16:47:00      127.657       83.176       17.781       49.588       46.931       39.983     2458.922     2202.520     1598.669        1.489        0.313      152.363       19.062        0.016      352.375       34.980      860.018
07/03/2013  16:48:00      112.799       71.587       -0.142       55.208       35.773       35.782     3047.892     1279.726     1280.354        1.173        0.280      133.598       15.198        0.013      352.354       34.944      860.002
07/03/2013  16:49:00       40.267       17.958       23.430       42.305       49.889       35.737     1789.749     2488.942     1277.161        0.402        0.278       44.090       19.547        0.197      352.471       35.149      860.000
07/03/2013  16:50:00       -7.064       -2.136       17.083       13.469       17.146       13.010      181.418      293.987      169.272        0.050        0.032        7.380       10.359        1.970      352.845       35.804      860.000
07/03/2013  16:51:00      -56.298       49.838        1.948       29.916       53.836       22.814      894.972     2898.271      520.474        0.498        0.216       75.188       19.792        0.069      352.702       35.554      859.999
07/03/2013  16:52:00      -33.460      148.793       -4.573       43.747       50.942       35.030     1913.822     2595.071     1227.077        1.451        0.287      152.509       30.000        0.039      352.586       35.350      860.012
07/03/2013  16:53:00      -14.721       81.326       17.872       31.919       56.157       36.142     1018.829     3153.639     1306.246        0.631        0.274       82.648       31.441        0.145      352.982       36.044      860.026
07/03/2013  16:54:00       -7.302      120.914       -5.536       44.305       87.727       46.794     1962.967     7696.048     2189.650        1.327        0.592      121.134       52.416        0.187      352.969       36.020      860.029
07/03/2013  16:55:00       -4.178      147.035      -14.963       48.540       69.242       39.839     2356.151     4794.405     1587.141        1.530        0.437      147.094       35.924        0.060      352.797       35.718      860.042
07/03/2013  16:56:00      -58.171       27.800       13.688       54.745       80.087       39.875     2997.038     6413.980     1590.034        0.767        0.550       64.472       30.421        0.223      353.150       36.338      860.040
07/03/2013  16:57:00       -4.293       57.259        4.539       35.648       37.928       32.420     1270.766     1438.508     1051.044        0.354        0.188       57.420       27.192        0.224      352.711       35.568      860.044
07/03/2013  16:58:00       22.568       51.321        4.019       23.290       37.481       27.321      542.422     1404.841      746.459        0.293        0.135       56.064       25.075        0.200      352.614       35.400      860.058
07/03/2013  16:59:00       17.080       -9.181       14.855       44.439       38.351       27.959     1974.833     1470.831      781.696        0.241        0.211       19.392       30.833        2.528      352.779       35.689      860.074
07/03/2013  17:00:00       20.074       53.585       22.103       50.400       40.726       26.930     2540.135     1658.603      725.228        0.434        0.246       57.222       20.918        0.134      352.837       35.790      860.090
07/03/2013  17:01:00      -21.110      118.129        2.689       44.463      100.790       38.901     1976.930    10158.555     1513.297        1.403        0.682      120.000       53.657        0.200      352.889       35.879      860.112
07/03/2013  17:02:00      -37.882      142.215      -18.337       50.140       77.912       45.902     2514.035     6070.203     2107.000        1.634        0.535      147.174       30.598        0.043      352.649       35.460      860.127
07/03/2013  17:03:00      -24.412      127.812       -9.392       50.943       50.726       33.738     2595.169     2573.083     1138.273        1.166        0.315      130.123       33.016        0.064      352.704       35.557      860.152
07/03/2013  17:04:00      -10.275       75.888       -4.089       76.751       60.838       38.767     5890.708     3701.225     1502.915        0.849        0.555       76.581       39.436        0.265      352.578       35.336      860.160
07/03/2013  17:05:00       -9.596       60.954       12.942       24.584       47.633       30.460      604.366     2268.869      927.810        0.389        0.190       61.704       27.037        0.192      352.622       35.414      860.150
07/03/2013  17:06:00       72.823       76.605        8.405       85.862       48.999       40.996     7372.356     2400.927     1680.669        1.135        0.573      105.695       30.328        0.082      352.598       35.371      860.132
07/03/2013  17:07:00      123.450      103.889       11.649       84.808       61.345       51.177     7192.410     3763.170     2619.135        1.987        0.679      161.347       34.401        0.045      352.476       35.156      860.107
07/03/2013  17:08:00       61.290       22.357       38.178       40.077       57.775       28.674     1606.133     3337.981      822.215        0.574        0.288       65.241       28.102        0.186      351.892       34.138      860.096
07/03/2013  17:09:00       48.806       43.903       42.873       49.426       78.864       50.227     2442.925     6219.498     2522.763        0.866        0.559       65.647       34.934        0.283      351.987       34.303      860.103
07/03/2013  17:10:00      100.256       29.378       46.419       89.618      111.246       63.935     8031.299    12375.575     4087.666        1.878        1.225      104.471       65.095        0.388      352.030       34.378      860.112
07/03/2013  17:11:00       89.886      -58.543       -5.777       62.719      105.472       52.841     3933.713    11124.323     2792.160        1.469        0.893      107.270       42.394        0.156      351.837       34.037      860.080
07/03/2013  17:12:00      111.866       48.096       86.875       94.931       82.970       62.348     9011.849     6884.077     3887.245        2.107        0.989      121.768       47.870        0.155      351.966       34.264      860.065
07/03/2013  17:13:00       75.270      100.805       49.553       79.439       56.759       72.396     6310.546     3221.576     5241.222        1.653        0.739      125.806       37.391        0.088      352.263       34.783      860.065
07/03/2013  17:14:00      -27.789      112.667      -14.663       21.347       49.546       22.503      455.699     2454.764      506.402        0.855        0.171      116.043       23.402        0.041      352.311       34.871      860.087
07/03/2013  17:15:00       17.233       60.776        2.909       55.681       27.336       21.507     3100.372      747.247      462.570        0.415        0.216       63.172       19.445        0.095      352.233       34.734      860.081
07/03/2013  17:16:00       -4.890      102.769       -8.716       28.904       51.972       21.371      835.455     2701.064      456.702        0.733        0.200      102.886       29.131        0.080      352.365       34.962      860.084
07/03/2013  17:17:00       36.942      128.875      -18.243       47.705       66.885       36.303     2275.737     4473.595     1317.891        1.319        0.403      134.065       33.166        0.061      352.376       34.981      860.080
07/03/2013  17:18:00      -16.522      152.247      -12.803       41.267       78.767       28.640     1702.976     6204.245      820.263        1.617        0.436      153.141       37.999        0.062      352.282       34.818      860.066
07/03/2013  17:19:00      -34.019       36.584      -16.588       53.759       55.667       25.159     2890.080     3098.862      632.987        0.470        0.331       49.957       19.520        0.153      352.336       34.912      860.034
07/03/2013  17:20:00       16.183       29.353       -0.339       28.513       51.245       24.076      812.993     2626.063      579.667        0.257        0.201       33.518       27.658        0.681      351.900       34.150      860.019
07/03/2013  17:21:00       62.571       48.490       16.996       51.686       65.378       29.500     2671.484     4274.230      870.232        0.718        0.391       79.161       18.601        0.055      352.017       34.356      860.011
07/03/2013  17:22:00      115.376       91.614       25.068       90.677       66.297       41.274     8222.294     4395.261     1703.514        1.832        0.716      147.325       31.818        0.047      352.262       34.782      860.006
07/03/2013  17:23:00      122.651      118.101       35.667       83.451       62.856       60.966     6964.077     3950.928     3716.848        2.244        0.732      170.268       27.084        0.025      352.363       34.958      859.996
07/03/2013  17:24:00       81.225       74.676       10.836       53.902       43.406       37.311     2905.386     1884.103     1392.123        0.924        0.309      110.335       19.947        0.033      352.329       34.900      860.009
07/03/2013  17:25:00      125.101       97.402       19.197       90.848       58.791       46.657     8253.433     3456.409     2176.893        1.969        0.694      158.548       26.605        0.028      352.413       35.046      860.005
07/03/2013  17:26:00      106.324      139.049        3.831       96.140       77.062       69.508     9242.823     5938.490     4831.347        2.533        1.001      175.041       54.221        0.096      352.351       34.934      859.993
07/03/2013  17:27:00       22.157      223.032      -34.490       79.474       97.224       35.515     6316.051     9452.428     1261.287        3.422        0.851      224.130       30.260        0.018      352.340       34.916      860.013
07/03/2013  17:28:00       -0.730      227.620      -27.918       38.466       47.028       27.684     1479.598     2211.605      766.395        2.852        0.223      227.621       21.138        0.009      352.341       34.919      860.027
07/03/2013  17:29:00      -44.166      118.076      -14.123       38.084       49.916       25.725     1450.376     2491.591      661.762        1.035        0.230      126.066       24.806        0.039      352.316       34.878      860.011
07/03/2013  17:30:00      -45.297      139.725       -9.804       38.512       49.664       29.460     1483.204     2466.560      867.866        1.324        0.241      146.884       29.438        0.040      352.333       34.906      859.996
07/03/2013  17:31:00     -132.977      125.722      -32.569       47.429       76.915       35.863     2249.519     5915.927     1286.183        2.200        0.473      183.000       28.320        0.024      352.314       34.873      859.980
07/03/2013  17:32:00      -65.057       36.195      -16.713       33.500       36.737       22.400     1122.225     1349.579      501.745        0.440        0.149       74.448       15.492        0.043      352.339       34.917      859.970
07/03/2013  17:33:00      -39.453      209.557      -21.612       65.276       72.329       35.068     4260.925     5231.476     1229.787        2.833        0.536      213.239       44.838        0.044      352.304       34.854      859.974
07/03/2013  17:34:00      -51.906      227.937      -32.064       48.709       55.213       34.337     2372.562     3048.463     1179.032        3.114        0.330      233.772       27.474        0.014      352.367       34.963      859.973
07/03/2013  17:35:00      -35.915      189.265      -21.208       38.762       61.669       33.209     1502.483     3803.011     1102.859        2.198        0.320      192.642       34.028        0.031      352.328       34.897      859.971
07/03/2013  17:36:00      -17.461       87.269       -0.295       44.205       51.362       30.326     1954.068     2638.078      919.640        0.672        0.276       88.999       28.508        0.103      352.340       34.919      859.973
07/03/2013  17:37:00      -35.075      220.277      -23.675       60.367       89.174       39.152     3644.160     7952.058     1532.854        3.172        0.656      223.052       41.948        0.035      352.371       34.972      859.991
07/03/2013  17:38:00       34.790      160.688        5.099       68.315       99.386       55.923     4666.935     9877.512     3127.405        2.236        0.884      164.411       64.927        0.156      352.333       34.906      859.996
07/03/2013  17:39:00      177.831      127.464       33.916       80.987       60.723       58.169     6558.907     3687.332     3383.667        3.132        0.681      218.794       26.568        0.015      352.233       34.728      859.979
07/03/2013  17:40:00      141.577       96.235       18.486      110.702       70.785       54.525    12254.850     5010.467     2973.020        2.494        1.012      171.188       27.274        0.025      352.208       34.686      859.971
07/03/2013  17:41:00      142.904       98.615       21.250       70.561       58.474       52.704     4978.810     3419.196     2777.697        2.088        0.559      173.628       38.824        0.050      352.194       34.661      859.968
07/03/2013  17:42:00       54.951      159.135       -9.543       71.479      104.720       55.986     5109.281    10966.301     3134.446        2.382        0.961      168.355       57.860        0.118      352.163       34.609      859.974
07/03/2013  17:43:00      106.484      149.805       -5.419       86.661       71.718       55.995     7510.200     5143.528     3135.402        2.480        0.789      183.795       44.737        0.059      352.189       34.651      859.949
07/03/2013  17:44:00       61.081      215.816      -10.416      112.334      127.334       55.271    12618.837    16213.976     3054.875        4.115        1.594      224.294       71.448        0.101      352.176       34.629      859.949
07/03/2013  17:45:00       11.880      264.043      -27.704       56.097       99.053       50.662     3146.829     9811.451     2566.589        4.307        0.776      264.310       58.755        0.049      352.166       34.611      859.942
07/03/2013  17:46:00       97.626      143.704       -8.456      100.155       70.411       51.841    10031.113     4957.727     2687.503        2.396        0.884      173.729       43.667        0.063      352.184       34.645      859.944
07/03/2013  17:47:00      101.850       74.562       24.243       64.531       60.533       38.954     4164.310     3664.216     1517.411        1.293        0.467      126.225       25.310        0.040      352.101       34.503      859.939
07/03/2013  17:48:00       99.520       93.046       11.480       65.762       56.660       44.619     4324.583     3210.381     1990.843        1.411        0.476      136.241       36.178        0.071      352.156       34.598      859.928
07/03/2013  17:49:00      136.486       94.348       34.385       60.541       48.551       36.501     3665.157     2357.228     1332.291        1.803        0.368      165.922       22.489        0.018      352.091       34.484      859.931
07/03/2013  17:50:00       88.207       56.936       10.312       54.113       38.195       20.921     2928.268     1458.853      437.705        0.798        0.241      104.986       14.661        0.020      352.129       34.552      859.935
07/03/2013  17:51:00       59.135       60.764        5.237       69.503       51.825       35.364     4830.658     2685.793     1250.598        0.799        0.438       84.790       39.239        0.214      352.214       34.699      859.935
07/03/2013  17:52:00       42.336       84.055        2.831       37.553       74.775       35.211     1410.230     5591.321     1239.790        0.855        0.412       94.115       43.415        0.213      352.223       34.713      859.934
07/03/2013  17:53:00       64.741       46.772       18.474       46.028       54.082       37.977     2118.597     2924.896     1442.232        0.660        0.324       79.869       24.474        0.094      352.147       34.583      859.943
07/03/2013  17:54:00       92.718       82.768       34.696      101.630       67.454       57.453    10328.625     4550.007     3300.883        1.741        0.909      124.287       36.112        0.084      352.165       34.612      859.936
07/03/2013  17:55:00      129.482       72.036       15.458       88.207       54.580       44.370     7780.445     2978.940     1968.731        1.746        0.636      148.171       20.069        0.018      351.880       34.114      859.934
07/03/2013  17:56:00       96.778       62.220       11.412       85.600       56.890       37.296     7327.295     3236.425     1390.959        1.266        0.598      115.053       24.952        0.047      352.114       34.524      859.912
07/03/2013  17:57:00       86.513      160.910      -11.290       66.642       97.860       48.998     4441.145     9576.668     2400.793        2.496        0.821      182.692       57.019        0.097      352.170       34.618      859.915
07/03/2013  17:58:00       84.162       60.985       24.692       45.379       36.439       34.690     2059.226     1327.830     1203.419        0.800        0.230      103.934       18.410        0.031      352.150       34.588      859.889
07/03/2013  17:59:00       14.608       95.714        0.882       38.112       60.437       23.962     1452.492     3652.587      574.197        0.753        0.284       96.822       29.545        0.093      352.123       34.540      859.893
07/03/2013  18:00:00       46.581      120.022       -4.164       49.946       63.504       45.655     2494.637     4032.706     2084.409        1.260        0.431      128.744       43.164        0.112      352.136       34.561      859.892
07/03/2013  18:01:00       72.647      112.859        8.721       75.785       57.204       54.613     5743.305     3272.281     2982.538        1.504        0.600      134.219       42.223        0.099      352.127       34.545      859.894
07/03/2013  18:02:00       25.768      127.715      -12.189       42.983       70.454       38.830     1847.559     4963.738     1507.758        1.272        0.416      130.288       44.410        0.116      352.092       34.485      859.915
07/03/2013  18:03:00       27.189      214.441      -29.764       44.178       71.596       34.618     1951.654     5126.009     1198.424        2.794        0.414      216.158       34.809        0.026      352.088       34.476      859.937
07/03/2013  18:04:00       47.519      183.213      -20.929       51.819       68.896       42.677     2685.231     4746.642     1821.292        2.276        0.463      189.275       43.701        0.053      352.087       34.473      859.945
07/03/2013  18:05:00       26.419       96.127        2.801       37.588       58.842       32.251     1412.832     3462.422     1040.136        0.793        0.296       99.691       34.657        0.121      352.089       34.480      859.955
07/03/2013  18:06:00       49.253       93.758        1.503       37.232       56.058       42.086     1386.250     3142.507     1771.220        0.876        0.315      105.908       40.280        0.145      352.096       34.491      859.956
07/03/2013  18:07:00       41.438      117.321       -9.951       36.872       33.998       25.971     1359.562     1155.860      674.475        0.938        0.159      124.424       21.712        0.030      352.072       34.452      859.954
07/03/2013  18:08:00       74.108       82.988       12.576       85.985       46.775       40.770     7393.447     2187.925     1662.174        1.189        0.562      111.260       36.002        0.105      351.993       34.310      859.962
07/03/2013  18:09:00       74.783       48.784       33.007       52.482       39.202       33.104     2754.376     1536.825     1095.856        0.722        0.269       89.288       15.054        0.028      351.511       33.473      859.940
07/03/2013  18:10:00       39.857      126.791       11.851       69.234       70.476       50.182     4793.393     4966.887     2518.256        1.504        0.614      132.908       52.786        0.158      351.848       34.059      859.955
07/03/2013  18:11:00       71.016       80.941       10.510       52.502       58.529       39.511     2756.436     3425.663     1561.128        0.972        0.387      107.679       36.931        0.118      352.063       34.435      859.956
07/03/2013  18:12:00       22.498      122.604        1.246       84.256       70.720       40.785     7099.065     5001.368     1663.418        1.465        0.688      124.651       43.398        0.121      352.009       34.339      859.948
07/03/2013  18:13:00      -10.564      233.260      -21.290       48.530       56.061       31.404     2355.142     3142.787      986.216        3.073        0.324      233.499       29.675        0.016      352.063       34.431      859.955
07/03/2013  18:14:00      -16.537      278.470      -37.298       48.843       50.732       24.479     2385.633     2573.689      599.240        4.238        0.278      278.960       17.441        0.004      352.068       34.435      859.945
07/03/2013  18:15:00      -19.188      165.280      -16.153       52.395       62.764       37.130     2745.211     3939.325     1378.609        1.800        0.403      166.390       40.002        0.058      352.043       34.398      859.939
07/03/2013  18:16:00      -47.870      194.602      -21.200       39.521       52.619       27.149     1561.900     2768.796      737.055        2.284        0.253      200.403       20.880        0.011      352.011       34.341      859.934
07/03/2013  18:17:00       21.443      229.416      -25.249       43.556       61.902       40.866     1897.084     3831.829     1670.018        3.056        0.370      230.416       39.571        0.029      352.104       34.503      859.938
07/03/2013  18:18:00       19.058      140.727      -15.428       34.982       60.721       35.385     1223.721     3687.073     1252.111        1.328        0.308      142.012       34.790        0.060      352.091       34.485      859.941
07/03/2013  18:19:00       -1.023      165.885      -27.959       21.497       24.384       14.150      462.139      594.586      200.236        1.478        0.063      165.888       11.626        0.005      352.107       34.514      859.947
07/03/2013  18:20:00      -16.739      134.204      -22.757       44.647       37.197       24.312     1993.398     1383.581      591.097        1.139        0.198      135.244       20.920        0.024      352.047       34.408      859.969
07/03/2013  18:21:00        3.710      111.823        6.719       87.916       73.611       38.150     7729.299     5418.617     1455.443        1.358        0.730      111.885       41.518        0.138      351.982       34.293      859.982
07/03/2013  18:22:00       47.065       50.940       -1.880       45.010       34.083       29.112     2025.904     1161.642      847.510        0.442        0.202       69.354       14.522        0.044      351.922       34.190      860.000
07/03/2013  18:23:00       46.460       77.443       15.970       40.625       51.313       38.255     1650.356     2633.071     1463.443        0.708        0.287       90.310       35.028        0.150      351.792       33.962      860.012
07/03/2013  18:24:00       27.026      119.780       -9.913       41.753       46.625       30.753     1743.305     2173.869      945.730        1.002        0.243      122.791       31.388        0.065      351.997       34.319      860.022
07/03/2013  18:25:00        4.325      129.464      -13.507       27.415       46.409       30.472      751.567     2153.788      928.547        1.040        0.192      129.536       32.221        0.062      352.016       34.351      860.026
07/03/2013  18:26:00       -4.299       49.430       -0.208       44.037       34.100       20.784     1939.258     1162.843      431.989        0.300        0.177       49.616       18.350        0.137      352.041       34.396      860.017
07/03/2013  18:27:00       11.310      170.502      -13.769       36.457       43.846       31.120     1329.083     1922.489      968.479        1.680        0.211      170.877       25.413        0.022      351.973       34.278      860.005
07/03/2013  18:28:00        4.937      130.883      -18.956       19.451       29.075       18.917      378.339      845.347      357.842        0.955        0.079      130.976       16.567        0.016      351.981       34.292      859.998
07/03/2013  18:29:00      -11.159      110.885      -15.904       25.217       19.347       12.753      635.908      374.291      162.646        0.692        0.059      111.445       10.387        0.009      351.987       34.304      859.983
07/03/2013  18:30:00       -5.994       97.274       -7.064       27.506       24.062       18.425      756.587      578.965      339.473        0.561        0.084       97.458        8.450        0.008      351.974       34.282      859.981
07/03/2013  18:31:00      -18.482       84.110       -2.607       23.377       26.423       18.722      546.501      698.156      350.512        0.451        0.080       86.117       16.103        0.035      351.952       34.242      859.972
07/03/2013  18:32:00      -26.086       58.882       -4.281       19.753       29.770       16.815      390.168      886.266      282.747        0.286        0.078       64.402       19.165        0.089      351.811       33.993      859.976
07/03/2013  18:33:00       -9.625       35.526        8.354       18.477       19.765       15.409      341.408      390.656      237.442        0.120        0.048       36.807        9.906        0.072      351.847       34.058      859.990
07/03/2013  18:34:00      -31.554       62.686       -0.060       38.462       81.195       24.500     1479.291     6592.705      600.246        0.680        0.434       70.180       29.046        0.171      351.797       33.973      859.996
07/03/2013  18:35:00      -65.215      110.853      -15.405       76.195       46.065       31.834     5805.734     2121.947     1013.410        1.286        0.447      128.614       40.093        0.097      351.914       34.175      860.006
07/03/2013  18:36:00      -97.738       78.155      -21.493       28.287       27.529       15.155      800.161      757.868      229.680        0.895        0.089      125.143       12.416        0.010      351.949       34.237      860.013
07/03/2013  18:37:00       -9.513       73.641       -1.129       22.009       26.974       19.785      484.384      727.579      391.434        0.356        0.080       74.253       18.058        0.059      351.806       33.988      860.014
07/03/2013  18:38:00        1.820      104.248        0.701       34.405       44.625       27.833     1183.723     1991.350      774.650        0.741        0.197      104.264       29.006        0.077      351.828       34.025      860.031
07/03/2013  18:39:00       34.140      116.432      -11.227       33.488       39.661       23.123     1121.459     1573.001      534.668        0.904        0.161      121.334       24.347        0.040      351.979       34.290      860.024
07/03/2013  18:40:00       17.556      123.148      -14.721       19.350       31.238       18.259      374.424      975.825      333.400        0.869        0.084      124.393       18.242        0.022      351.979       34.289      860.012
07/03/2013  18:41:00       17.421       98.479        2.028       43.353       61.980       34.936     1879.513     3841.582     1220.545        0.847        0.347      100.008       36.067        0.130      351.971       34.274      860.012
07/03/2013  18:42:00      -23.374      121.529       -6.066       25.140       34.859       19.713      632.021     1215.147      388.591        0.879        0.112      123.756       19.746        0.025      351.949       34.237      860.009
07/03/2013  18:43:00       11.390       64.588        6.509       30.104       45.790       22.994      906.275     2096.738      528.719        0.394        0.177       65.584       26.975        0.169      351.808       33.989      860.006
07/03/2013  18:44:00       99.962       79.086       18.149       70.155       51.091       38.939     4921.788     2610.336     1516.253        1.281        0.452      127.463       24.210        0.036      351.777       33.935      860.008
07/03/2013  18:45:00       91.609       82.234       20.586       72.623       54.828       61.780     5274.036     3006.061     3816.724        1.384        0.605      123.104       36.167        0.086      351.952       34.241      860.009
07/03/2013  18:46:00      109.119      111.962        7.729       66.419       53.604       49.037     4411.449     2873.377     2404.638        1.709        0.484      156.341       31.293        0.040      351.977       34.283      860.027
07/03/2013  18:47:00      108.745       29.133       26.435       81.251       38.767       35.354     6601.674     1502.879     1249.933        1.136        0.468      112.580       29.239        0.067      351.315       33.131      860.033
07/03/2013  18:48:00       46.153       58.839        7.737       26.878       33.668       29.136      722.420     1133.506      848.913        0.418        0.135       74.781       25.644        0.118      351.427       33.325      860.031
07/03/2013  18:49:00       24.691       50.067       -0.952       29.343       35.971       24.879      861.007     1293.916      618.953        0.295        0.139       55.824       21.126        0.143      351.831       34.029      860.026
07/03/2013  18:50:00       28.380       28.847       -6.911       33.852       25.634       19.464     1145.936      657.118      378.844        0.193        0.109       40.467        8.777        0.047      351.615       33.652      860.029
07/03/2013  18:51:00       49.097       30.800       25.713       26.351       18.880       20.352      694.383      356.444      414.196        0.274        0.073       57.958       10.149        0.031      351.322       33.143      860.023
07/03/2013  18:52:00       29.812        4.801       20.055       26.478       17.197       20.453      701.110      295.747      418.305        0.136        0.071       30.196        9.442        0.098      351.200       32.930      860.004
07/03/2013  18:53:00       43.040       24.174       13.913       39.634       23.882       20.712     1570.858      570.371      428.967        0.260        0.129       49.365       14.164        0.082      350.878       32.368      859.999
07/03/2013  18:54:00       98.603       76.689       19.272       41.137       25.758       23.306     1692.244      663.472      543.168        0.944        0.145      124.915       13.058        0.011      351.626       33.673      859.985
07/03/2013  18:55:00       68.125       43.624        6.652       43.579       34.623       28.837     1899.132     1198.765      831.559        0.526        0.196       80.895       21.494        0.071      351.731       33.854      859.972
07/03/2013  18:56:00       66.606       53.900       16.300       30.870       20.717       24.519      952.988      429.199      601.186        0.479        0.099       85.683       14.094        0.027      351.673       33.755      859.985
07/03/2013  18:57:00       35.628       61.678        6.018       31.773       33.324       24.439     1009.515     1110.461      597.259        0.391        0.136       71.229       22.760        0.102      351.675       33.758      859.992
07/03/2013  18:58:00       23.819       68.235        5.801       28.627       39.711       25.664      819.479     1576.978      658.618        0.416        0.153       72.273       25.231        0.122      351.699       33.802      859.994
07/03/2013  18:59:00       43.573       47.602       11.353       24.940       26.909       23.128      622.019      724.105      534.891        0.309        0.094       64.533       19.066        0.087      351.728       33.853      860.000
07/03/2013  19:00:00       45.641       70.633        1.556       37.735       35.289       30.234     1423.944     1245.311      914.118        0.533        0.179       84.096       24.194        0.083      351.803       33.979      859.997
07/03/2013  19:01:00       43.186       65.506        0.731       34.962       30.872       23.900     1222.349      953.081      571.205        0.445        0.137       78.461       18.188        0.054      351.784       33.947      859.988
07/03/2013  19:02:00       86.445       57.257        8.853       46.435       22.336       23.390     2156.254      498.903      547.095        0.702        0.160      103.688       18.799        0.033      351.416       33.307      859.990
07/03/2013  19:03:00      122.931       84.165       34.154       35.104       32.524       28.325     1232.308     1057.801      802.294        1.323        0.155      148.982       15.167        0.010      351.814       34.000      859.984
07/03/2013  19:04:00       80.513       65.538        6.346       35.888       30.024       40.243     1287.915      901.467     1619.490        0.731        0.190      103.815       22.945        0.049      351.684       33.773      859.983
07/03/2013  19:05:00       28.878       38.817        8.934       33.124       27.331       22.735     1097.229      746.975      516.885        0.239        0.118       48.381       13.215        0.075      351.689       33.782      859.998
07/03/2013  19:06:00       19.951       28.430        9.978       30.684       23.730       21.426      941.524      563.099      459.081        0.163        0.098       34.732       17.957        0.267      351.485       33.425      860.006
07/03/2013  19:07:00      -12.066       55.551        1.012       17.563       14.413       11.845      308.461      207.723      140.294        0.194        0.033       56.846        9.070        0.025      351.580       33.592      860.013
07/03/2013  19:08:00       -8.001       43.746        7.349       13.841       16.454        8.904      191.577      270.743       79.280        0.129        0.027       44.472        6.575        0.022      351.375       33.235      860.025
07/03/2013  19:09:00       -0.766       26.487       13.939        7.911       15.400       14.218       62.581      237.151      202.152        0.070        0.025       26.498       11.151        0.177      350.450       31.624      860.023
07/03/2013  19:10:00      -10.529       24.329        9.441       11.891       12.838        9.422      141.385      164.826       88.769        0.059        0.020       26.509        7.682        0.084      351.525       33.496      860.032
07/03/2013  19:11:00       -7.687       19.385        3.193        7.686        9.767        7.539       59.072       95.398       56.831        0.033        0.011       20.854        3.964        0.036      351.213       32.951      860.036
07/03/2013  19:12:00      -18.090       55.788        0.912       14.633       26.025       10.667      214.130      677.326      113.790        0.222        0.050       58.648        8.473        0.021      351.602       33.630      860.041
07/03/2013  19:13:00      -28.991       19.732        4.299       21.519       13.230       10.538      463.061      175.022      111.055        0.100        0.037       35.069       10.643        0.092      351.637       33.693      860.055
07/03/2013  19:14:00      -37.546        5.805        2.206       44.313       15.264       11.659     1963.622      233.002      135.932        0.189        0.117       37.992       17.229        0.206      351.414       33.301      860.060
07/03/2013  19:15:00      -85.213       25.519       -6.959       37.289       18.381       12.860     1390.463      337.845      165.385        0.493        0.095       88.952       11.732        0.017      351.161       32.863      860.056
07/03/2013  19:16:00      -98.528        9.650      -10.849       32.353       19.381       12.691     1046.731      375.626      161.053        0.575        0.079       98.999        8.684        0.008      351.364       33.215      860.066
07/03/2013  19:17:00      -78.313       -1.944       -3.605       14.852       18.884        8.550      220.585      356.600       73.102        0.340        0.033       78.337        7.313        0.009      351.399       33.276      860.067
07/03/2013  19:18:00      -94.436       -0.580       -0.201       15.956       16.651       11.086      254.582      277.259      122.896        0.479        0.033       94.437        9.392        0.010      351.398       33.275      860.073
07/03/2013  19:19:00     -115.128       18.475       -9.387       29.976       21.606       12.329      898.555      466.801      152.015        0.760        0.076      116.601        5.184        0.002      351.353       33.198      860.082
07/03/2013  19:20:00     -110.648       29.659       -9.930       19.822       21.724       13.056      392.900      471.914      170.452        0.713        0.052      114.554        7.257        0.004      351.278       33.066      860.081
07/03/2013  19:21:00     -133.983       37.966      -11.627       32.061       24.173       14.033     1027.916      584.356      196.930        1.067        0.090      139.258       11.625        0.007      351.264       33.040      860.074
07/03/2013  19:22:00     -145.425       15.035      -17.069       29.316       40.810       18.582      859.423     1665.464      345.301        1.227        0.144      146.200       13.431        0.008      351.202       32.934      860.081
07/03/2013  19:23:00     -149.998       25.537      -18.956       28.993       30.300       17.332      840.623      918.086      300.413        1.278        0.103      152.157       13.421        0.008      351.175       32.887      860.088
07/03/2013  19:24:00     -117.016       25.765      -15.596       28.370       29.020       18.176      804.851      842.135      330.379        0.829        0.099      119.819       14.043        0.014      351.115       32.782      860.080
07/03/2013  19:25:00     -118.558        7.988      -15.193       28.556       38.220       19.576      815.436     1460.732      383.216        0.850        0.133      118.826       16.689        0.020      351.138       32.822      860.085
07/03/2013  19:26:00      -77.272       -2.971       -4.124       33.495       26.318       17.295     1121.893      692.615      299.117        0.405        0.106       77.329       18.294        0.056      351.100       32.754      860.092
07/03/2013  19:27:00      -78.871       13.365       -7.404       22.710       27.835       15.969      515.760      774.778      255.001        0.400        0.077       79.995       11.225        0.020      351.059       32.684      860.091
07/03/2013  19:28:00      -75.611       -7.781        1.631       35.375       34.700       19.728     1251.385     1204.095      389.205        0.431        0.142       76.010       20.741        0.074      350.993       32.569      860.094
07/03/2013  19:29:00      -97.662        2.261       -8.474       28.570       28.943       19.528      816.234      837.718      381.331        0.582        0.102       97.688       13.414        0.019      350.990       32.564      860.100
07/03/2013  19:30:00      -65.316       -1.971       -5.008       40.193       26.163       23.859     1615.489      684.488      569.235        0.358        0.143       65.346       23.811        0.133      350.978       32.543      860.106
07/03/2013  19:31:00      -97.794       11.994       -7.430       36.685       46.596       21.653     1345.801     2171.143      468.836        0.687        0.199       98.527       14.728        0.022      350.883       32.375      860.101
07/03/2013  19:32:00     -125.458       67.479      -21.025       32.084       45.210       28.379     1029.380     2043.922      805.344        1.231        0.194      142.454       15.580        0.012      350.934       32.465      860.113
07/03/2013  19:33:00     -125.845       78.798      -12.860       40.428       35.159       22.411     1634.385     1236.190      502.249        1.279        0.169      148.480       20.095        0.018      350.958       32.507      860.108
07/03/2013  19:34:00     -141.628       47.065      -17.222       28.398       22.343       19.616      806.458      499.206      384.801        1.213        0.085      149.243       11.411        0.006      350.969       32.526      860.098
07/03/2013  19:35:00     -118.847       27.252      -16.415       27.720       26.915       16.036      768.407      724.416      257.161        0.844        0.087      121.931        9.050        0.006      350.921       32.443      860.095
07/03/2013  19:36:00     -132.377       20.685       -8.578       34.797       33.802       19.954     1210.862     1142.574      398.146        1.039        0.138      133.983       19.367        0.021      351.031       32.634      860.088
07/03/2013  19:37:00     -113.972       -4.689      -14.455       31.632       23.561       15.858     1000.559      555.126      251.466        0.751        0.090      114.068       15.842        0.019      350.987       32.556      860.071
07/03/2013  19:38:00      -98.093       15.692       -6.310       33.148       25.969       18.062     1098.782      674.385      326.242        0.600        0.105       99.340       15.700        0.025      350.925       32.450      860.059
07/03/2013  19:39:00     -138.638        8.779      -15.282       28.548       22.430       16.118      814.974      503.095      259.800        1.055        0.079      138.915       16.140        0.013      350.993       32.570      860.056
07/03/2013  19:40:00     -137.955      -20.458      -16.181       37.454       23.058       23.572     1402.778      531.674      555.643        1.110        0.125      139.463       24.497        0.031      350.952       32.499      860.045
07/03/2013  19:41:00      -77.461       -5.856       -6.982       21.085       16.848       12.802      444.596      283.861      163.891        0.349        0.045       77.682       12.719        0.027      350.780       32.197      860.031
07/03/2013  19:42:00      -92.395        9.470       -7.290       21.368       18.232       15.084      456.588      332.421      227.540        0.485        0.051       92.879       12.688        0.019      350.785       32.205      860.038
07/03/2013  19:43:00      -97.593        2.421       -4.923       19.772       20.275       10.483      390.918      411.092      109.900        0.523        0.046       97.623        9.050        0.009      350.830       32.285      860.027
07/03/2013  19:44:00      -54.969      -18.805       -2.512       23.491       22.001       12.726      551.850      484.041      161.953        0.229        0.060       58.097       12.703        0.048      350.612       31.905      860.021
07/03/2013  19:45:00      -90.573        7.847       -3.972       22.465       16.331       10.678      504.683      266.700      114.022        0.458        0.044       90.913        9.169        0.010      350.780       32.198      860.017
07/03/2013  19:46:00      -75.141      -12.337       -0.873       49.074       20.548       15.381     2408.236      422.228      236.576        0.443        0.153       76.147       20.077        0.070      350.725       32.100      860.014
07/03/2013  19:47:00      -65.472       -9.597       -1.239       28.205       20.142       13.695      795.512      405.685      187.549        0.288        0.069       66.171       13.387        0.041      350.587       31.863      860.011
07/03/2013  19:48:00      -44.755      -25.592        2.125       45.993       25.132       17.514     2115.385      631.595      306.747        0.286        0.153       51.556       20.242        0.154      350.627       31.932      860.009
07/03/2013  19:49:00      -53.845      -24.560        5.774       46.869       22.135       18.407     2196.714      489.964      338.830        0.328        0.151       59.182       22.752        0.148      350.825       32.277      860.005
07/03/2013  19:50:00      -21.690      -34.015        3.041       51.282       41.210       23.077     2629.888     1698.225      532.533        0.325        0.243       40.342       25.285        0.393      350.810       32.252      859.991
07/03/2013  19:51:00      -67.116      -54.524        1.899       69.408       45.668       34.272     4817.495     2085.558     1174.582        0.778        0.404       86.472       36.153        0.175      350.876       32.365      859.977
07/03/2013  19:52:00      -82.110      -62.925        7.756       57.478       45.967       31.795     3303.775     2112.997     1010.932        0.859        0.321      103.449       34.503        0.111      350.837       32.296      859.983
07/03/2013  19:53:00     -111.751      -79.499        2.431       60.396       53.181       35.084     3647.721     2828.237     1230.873        1.326        0.385      137.144       36.806        0.072      350.900       32.408      859.979
07/03/2013  19:54:00      -67.764      -53.648        8.227       43.650       32.750       24.213     1905.331     1072.583      586.270        0.555        0.178       86.429       23.528        0.074      350.839       32.300      859.977
07/03/2013  19:55:00     -101.208      -89.354       -3.647       35.600       36.000       25.549     1267.372     1295.990      652.729        1.073        0.161      135.009       19.005        0.020      350.910       32.425      859.975
07/03/2013  19:56:00     -143.443      -79.137       -3.469       91.183       47.884       35.693     8314.308     2292.873     1274.019        1.936        0.594      163.825       42.877        0.068      351.005       32.589      859.985
07/03/2013  19:57:00     -159.851      -83.118       -4.089       58.883       42.767       31.887     3467.155     1828.975     1016.800        1.939        0.316      180.169       32.999        0.034      351.009       32.595      859.988
07/03/2013  19:58:00     -104.517      -41.503       -9.136       49.742       39.028       23.752     2474.294     1523.174      564.146        0.864        0.228      112.456       23.614        0.044      350.897       32.402      859.978
07/03/2013  19:59:00      -82.422      -50.320       -2.374       77.284       61.470       33.431     5972.816     3778.503     1117.599        1.010        0.543       96.568       34.218        0.126      350.875       32.364      859.974
07/03/2013  20:00:00     -111.463      -32.802        4.772       67.153       39.757       25.645     4509.558     1580.649      657.658        1.013        0.337      116.189        9.713        0.007      350.882       32.377      859.966
07/03/2013  20:01:00     -101.703      -56.516        4.781       57.636       36.602       32.055     3321.907     1339.725     1027.549        0.962        0.284      116.351       34.217        0.086      350.838       32.300      859.962
07/03/2013  20:02:00     -166.518      -39.266       -5.623       67.468       59.213       29.413     4551.963     3506.224      865.135        1.911        0.446      171.085       29.247        0.029      350.839       32.297      859.965
07/03/2013  20:03:00     -201.476      -24.795       -5.211       81.852       60.921       37.485     6699.738     3711.411     1405.106        2.652        0.591      202.996       40.988        0.041      350.864       32.341      859.990
07/03/2013  20:04:00     -145.790      -35.339       -1.731       65.524       55.245       35.101     4293.349     3052.028     1232.084        1.554        0.429      150.011       28.289        0.036      350.780       32.197      860.005
07/03/2013  20:05:00     -209.170      -30.227       -8.973       62.153       58.088       33.440     3862.985     3374.263     1118.213        2.655        0.418      211.342       29.746        0.020      350.807       32.241      860.024
07/03/2013  20:06:00     -274.368      -87.490       -7.806      119.195       85.033       51.972    14207.455     7230.558     2701.079        5.356        1.207      287.979       54.805        0.036      350.852       32.320      860.052
07/03/2013  20:07:00     -230.226      -58.745       -3.229       77.942       67.924       39.492     6074.961     4613.628     1559.583        3.435        0.612      237.602       42.728        0.032      350.780       32.194      860.090
07/03/2013  20:08:00     -261.239      -74.118       -9.405       78.806       81.055       46.443     6210.428     6569.975     2156.959        4.438        0.747      271.550       38.564        0.020      350.790       32.213      860.113
07/03/2013  20:09:00     -281.733      -35.266      -24.877      124.231       79.136       65.151    15433.332     6262.481     4244.674        5.358        1.297      283.932       69.056        0.059      350.764       32.168      860.146
07/03/2013  20:10:00     -322.464      -56.593      -25.143      100.592       72.989       39.695    10118.824     5327.464     1575.678        6.242        0.851      327.392       43.275        0.017      350.762       32.162      860.186
07/03/2013  20:11:00     -356.293     -119.786      -16.579       94.140       69.031       45.306     8862.374     4765.307     2052.658        7.862        0.784      375.890       39.841        0.011      350.735       32.117      860.224
07/03/2013  20:12:00     -355.402      -71.074      -32.535       75.298       74.847       45.109     5669.724     5602.102     2034.814        7.286        0.665      362.439       38.462        0.011      350.695       32.046      860.273
07/03/2013  20:13:00     -417.542      -62.823      -45.102      114.385       85.067       51.250    13084.010     7236.314     2626.555       10.163        1.147      422.242       60.127        0.020      350.631       31.935      860.329
07/03/2013  20:14:00     -417.225      -92.244      -39.556      118.591      162.393       78.215    14063.836    26371.454     6117.629       11.534        2.328      427.300       65.728        0.024      350.643       31.957      860.372
07/03/2013  20:15:00     -267.060      119.042      -37.656      190.824      191.070      111.114    36413.824    36507.865    12346.410        8.607        4.263      292.390      120.953        0.171      350.775       32.185      860.406
07/03/2013  20:16:00     -189.441       -8.809        3.006      156.573      107.008       66.974    24515.070    11450.681     4485.551        3.820        2.023      189.646       80.248        0.179      350.747       32.139      860.414
07/03/2013  20:17:00     -267.517       19.025      -14.422      142.469      151.813       69.207    20297.296    23047.206     4789.559        6.013        2.407      268.193       59.206        0.049      350.701       32.059      860.438
07/03/2013  20:18:00     -188.844       53.911      -12.827      162.660      135.742       67.564    26458.155    18426.023     4564.881        4.408        2.472      196.389       75.945        0.150      350.667       31.999      860.455
07/03/2013  20:19:00     -182.379       68.066      -28.808       98.919      105.827       57.681     9784.882    11199.299     3327.083        3.151        1.216      194.667       48.096        0.061      350.708       32.069      860.462
07/03/2013  20:20:00     -181.681       63.777      -19.168      123.439      114.864       57.228    15237.084    13193.659     3275.074        3.457        1.585      192.550       53.351        0.077      350.711       32.076      860.504
07/03/2013  20:21:00     -198.002       91.627      -35.575      102.880      114.147       54.273    10584.353    13029.499     2945.597        3.771        1.328      218.175       57.394        0.069      350.691       32.041      860.517
07/03/2013  20:22:00     -232.208       79.371      -37.108      103.150      125.500       56.735    10639.911    15750.357     3218.867        4.560        1.480      245.398       52.725        0.046      350.673       32.006      860.527
07/03/2013  20:23:00     -157.384        0.568      -39.000      107.123      100.483       61.177    11475.346    10096.865     3742.611        2.580        1.266      157.385       57.933        0.135      350.681       32.023      860.517
07/03/2013  20:24:00     -222.311      151.091      -36.296      150.103      182.407       94.357    22531.011    33272.430     8903.247        6.912        3.235      268.795       67.943        0.064      350.594       31.869      860.507
07/03/2013  20:25:00     -350.285      291.955      -45.868      209.555      191.188      106.203    43913.486    36553.000    11279.104       15.087        4.587      456.001       97.489        0.046      350.650       31.967      860.474
07/03/2013  20:26:00     -301.571      389.170      -66.959      190.355      180.979      103.688    36234.896    32753.412    10751.277       16.329        3.987      492.340      124.066        0.064      350.692       32.039      860.455
07/03/2013  20:27:00     -272.515      187.500      -48.359      159.453      269.271      100.225    25425.380    72506.642    10045.074       10.985        5.399      330.788       86.773        0.069      350.683       32.026      860.440
07/03/2013  20:28:00     -391.530      274.600      -85.934      205.372      214.522      107.053    42177.576    46019.753    11460.436       16.785        4.983      478.227      101.670        0.045      350.731       32.109      860.460
07/03/2013  20:29:00     -223.555       80.280      -30.014      164.822      209.173       70.597    27166.195    43753.184     4983.869        6.660        3.795      237.532       52.982        0.050      350.726       32.101      860.489
07/03/2013  20:30:00     -163.973      102.599      -20.116      128.470      168.578       68.964    16504.559    28418.382     4755.990        4.374        2.484      193.426       68.340        0.125      350.668       31.999      860.513
07/03/2013  20:31:00     -237.229      137.416       -2.460      221.400      138.234       91.858    49018.135    19108.549     8437.826        7.585        3.828      274.154       98.391        0.129      350.722       32.093      860.540
07/03/2013  20:32:00     -204.401       57.722      -28.214      171.970      138.767       89.764    29573.598    19256.186     8057.532        5.139        2.844      212.394       88.752        0.175      350.767       32.171      860.579
07/03/2013  20:33:00     -340.107      264.188      -69.838      120.089      157.381       89.235    14421.427    24768.817     7962.800       11.874        2.358      430.660       76.092        0.031      350.718       32.087      860.600
07/03/2013  20:34:00     -290.630      200.335      -38.156      141.639      145.676       93.045    20061.530    21221.577     8657.391        8.799        2.497      352.987       76.992        0.048      350.679       32.018      860.638
07/03/2013  20:35:00     -309.232      133.170      -41.814      182.010      138.743       90.045    33127.484    19249.702     8108.144        8.778        3.024      336.688       94.742        0.079      350.698       32.052      860.651
07/03/2013  20:36:00     -234.832       76.942      -36.038      129.239      160.693       75.320    16702.820    25822.207     5673.095        5.527        2.410      247.116       74.057        0.090      350.671       32.006      860.661
07/03/2013  20:37:00     -175.534      122.469      -25.123       94.121      119.583       54.652     8858.740    14300.078     2986.793        3.629        1.307      214.035       47.623        0.050      350.615       31.908      860.692
07/03/2013  20:38:00     -197.884      188.192      -30.876      108.799      100.518       49.150    11837.122    10103.850     2415.696        4.994        1.218      273.083       41.247        0.023      350.607       31.891      860.712
07/03/2013  20:39:00     -135.993      194.954      -26.615       78.302      130.511       49.595     6131.174    17033.230     2459.641        4.141        1.281      237.699       51.900        0.048      350.569       31.826      860.707
07/03/2013  20:40:00     -207.314      190.020      -36.664      125.127       94.499       67.526    15656.771     8929.998     4559.779        5.478        1.457      281.224       69.670        0.061      350.534       31.767      860.714
07/03/2013  20:41:00     -233.689      265.400      -41.712      161.096      119.024       84.584    25952.020    14166.675     7154.405        8.702        2.364      353.621       91.885        0.068      350.502       31.708      860.719
07/03/2013  20:42:00     -271.653      294.156      -47.346      119.779      150.660       60.669    14346.983    22698.390     3680.731       10.164        2.036      400.404       53.433        0.018      350.469       31.652      860.713
07/03/2013  20:43:00     -181.528      315.488      -36.636       98.223      171.692       65.225     9647.768    29478.222     4254.352        8.860        2.169      363.985       75.134        0.043      350.481       31.673      860.732
07/03/2013  20:44:00     -199.218      298.086      -49.754      116.126      129.934       68.639    13485.327    16882.965     4711.335        8.304        1.754      358.529       71.918        0.040      350.460       31.637      860.736
07/03/2013  20:45:00     -320.972      285.611      -73.670      159.276      139.719       66.715    25368.793    19521.463     4450.870       11.967        2.467      429.647       59.552        0.019      350.456       31.630      860.746
07/03/2013  20:46:00     -244.240       29.374      -17.754      174.509      111.253       78.075    30453.219    12377.303     6095.639        5.487        2.446      246.000       70.994        0.083      350.454       31.627      860.742
07/03/2013  20:47:00     -214.809       93.975      -33.334      161.809      130.460       77.123    26182.081    17019.801     5947.899        5.261        2.457      234.466       66.645        0.081      350.414       31.558      860.738
07/03/2013  20:48:00     -178.959       86.065       -6.927      154.723      156.287       82.800    23939.189    24425.771     6855.850        4.734        2.761      198.579       81.859        0.170      350.368       31.480      860.742
07/03/2013  20:49:00     -113.140       96.879      -10.659      136.885      144.446       74.511    18737.389    20864.529     5551.874        3.372        2.258      148.950       78.021        0.274      350.330       31.413      860.772
07/03/2013  20:50:00     -207.356      239.317      -30.209      109.181      113.515       70.805    11920.555    12885.670     5013.282        6.549        1.491      316.653       62.398        0.039      350.319       31.394      860.781
07/03/2013  20:51:00     -199.707      222.219      -30.137      151.863      141.169       74.201    23062.413    19928.701     5505.828        6.932        2.425      298.771       63.198        0.045      350.268       31.303      860.775
07/03/2013  20:52:00     -197.446      303.194      -46.417      114.096      131.109       74.278    13017.964    17189.634     5517.214        8.439        1.786      361.817       63.197        0.031      350.271       31.309      860.769
07/03/2013  20:53:00     -216.485      138.454      -29.873      154.516      111.637       55.601    23875.092    12462.779     3091.503        5.317        1.971      256.973       59.184        0.053      350.254       31.279      860.776
07/03/2013  20:54:00     -119.091      126.814      -19.240       89.395       98.373       48.907     7991.539     9677.333     2391.908        2.534        1.003      173.967       44.674        0.066      350.207       31.198      860.782
07/03/2013  20:55:00     -181.016      187.848      -45.929       81.815       67.204       50.063     6693.648     4516.368     2506.290        4.194        0.686      260.871       40.932        0.025      350.214       31.208      860.805
07/03/2013  20:56:00     -119.891      102.408      -16.110       68.027      108.164       42.293     4627.721    11699.492     1788.687        2.161        0.906      157.675       34.758        0.049      350.173       31.140      860.817
07/03/2013  20:57:00     -290.938       84.939      -49.718      123.200      146.570       69.333    15178.220    21482.760     4807.001        6.789        2.073      303.083       60.060        0.039      350.186       31.163      860.813
07/03/2013  20:58:00     -328.107      139.370      -37.193      227.911      170.596       77.012    51943.616    29103.161     5930.860       10.770        4.349      356.480       86.611        0.059      350.170       31.134      860.821
07/03/2013  20:59:00     -294.966       99.860      -31.100      189.544      160.382       99.286    35927.090    25722.522     9857.697        8.471        3.575      311.411      107.930        0.120      350.158       31.111      860.832
07/03/2013  21:00:00     -370.787      158.990      -56.250      167.124      139.163       97.470    27930.370    19366.453     9500.412       11.135        2.840      403.436       90.916        0.051      350.152       31.101      860.855
07/03/2013  21:01:00     -312.645       88.206      -23.572      224.007      136.230      105.634    50179.111    18558.697    11158.561        9.297        3.995      324.849      108.102        0.111      350.135       31.072      860.866
07/03/2013  21:02:00     -215.632       78.513      -39.885       94.143      132.575       69.607     8862.864    17576.097     4845.067        4.276        1.564      229.481       49.311        0.046      350.131       31.064      860.896
07/03/2013  21:03:00     -195.381       66.338      -21.285      109.567       99.980       74.679    12005.031     9996.016     5576.974        3.530        1.379      206.336       59.873        0.084      350.107       31.025      860.912
07/03/2013  21:04:00     -116.742       88.758       -3.521       98.220      123.369       61.180     9647.199    15219.873     3742.940        2.506        1.431      146.652       58.296        0.158      350.081       30.981      860.919
07/03/2013  21:05:00     -203.518      120.482      -24.839      132.617       84.350       66.900    17587.194     7115.006     4475.655        4.286        1.459      236.507       56.505        0.057      350.108       31.025      860.937
07/03/2013  21:06:00     -175.511       52.895      -14.443      145.732       89.019       68.944    21237.839     7924.296     4753.271        3.386        1.696      183.308       70.417        0.148      350.135       31.073      860.946
07/03/2013  21:07:00     -172.586       96.922      -22.263      113.838      112.694       59.437    12959.107    12699.848     3532.760        3.443        1.460      197.939       47.152        0.057      350.103       31.017      860.976
07/03/2013  21:08:00     -156.590      171.915      -33.559       99.545      114.178       55.272     9909.305    13036.662     3054.995        4.060        1.300      232.540       61.478        0.070      350.064       30.949      861.012
07/03/2013  21:09:00     -247.108      260.606      -51.581      151.343      170.766       89.031    22904.617    29161.106     7926.565        9.580        3.000      359.135       86.046        0.057      350.081       30.978      861.010
07/03/2013  21:10:00     -193.745      211.866      -38.114      120.468      147.784       65.900    14512.459    21840.243     4342.804        6.228        2.035      287.096       71.809        0.063      350.009       30.853      861.046
07/03/2013  21:11:00     -285.109       41.471      -50.529      166.412      169.081       78.781    27692.933    28588.524     6206.429        7.401        3.124      288.110       59.976        0.043      350.026       30.882      861.042
07/03/2013  21:12:00     -327.157      174.829      -51.707      151.746      110.607       84.114    23026.950    12233.835     7075.212        9.129        2.117      370.940       76.498        0.043      349.943       30.739      861.060
07/03/2013  21:13:00     -163.176      148.398       -6.014      146.630      153.838       73.884    21500.260    23666.178     5458.852        4.964        2.531      220.564       73.224        0.110      349.949       30.751      861.073
07/03/2013  21:14:00     -224.305      237.238      -57.402      163.685      176.665       90.957    26792.814    31210.609     8273.179        8.807        3.314      326.488      113.573        0.121      349.879       30.629      861.080
07/03/2013  21:15:00     -248.585      130.767      -27.160      173.411      177.431       89.050    30071.469    31481.872     7929.896        7.454        3.474      280.882       91.042        0.105      349.883       30.637      861.090
07/03/2013  21:16:00     -122.975      162.835      -14.946       91.485      123.724       53.030     8369.427    15307.601     2812.215        3.417        1.324      204.054       51.229        0.063      349.755       30.413      861.102
07/03/2013  21:17:00     -124.377       44.377       -7.115      120.990       78.942       51.692    14638.569     6231.909     2672.024        2.051        1.177      132.056       51.886        0.154      349.800       30.493      861.103
07/03/2013  21:18:00     -229.414      108.179      -28.085      100.860      109.443       64.010    10172.827    11977.838     4097.230        4.568        1.312      253.641       64.451        0.065      349.812       30.510      861.108
07/03/2013  21:19:00     -193.705       71.436      -13.104       94.265       86.827       53.795     8885.912     7538.907     2893.954        3.105        0.966      206.457       48.143        0.054      349.737       30.382      861.123
07/03/2013  21:20:00     -215.918       63.500      -28.293      108.729      137.906       59.830    11821.976    19018.062     3579.640        4.293        1.721      225.062       46.302        0.042      349.790       30.474      861.153
07/03/2013  21:21:00     -193.967      118.280      -31.677      140.641      141.294       68.695    19779.805    19963.964     4719.024        4.853        2.223      227.185       90.063        0.157      349.800       30.491      861.164
07/03/2013  21:22:00     -223.711       51.157      -18.166      148.477      105.513       73.541    22045.415    11132.890     5408.220        4.578        1.929      229.485       85.240        0.138      349.764       30.429      861.182
07/03/2013  21:23:00     -180.508      132.597      -39.970      135.697      127.580       60.033    18413.600    16276.637     3603.921        4.502        1.915      223.976       59.639        0.071      349.786       30.466      861.189
07/03/2013  21:24:00     -106.059       12.630       10.301      121.494       73.639       47.771    14760.695     5422.638     2282.077        1.699        1.123      106.808       66.315        0.385      349.712       30.340      861.177
07/03/2013  21:25:00      -81.694       79.248        6.622      153.225       68.913       64.367    23477.926     4748.995     4143.081        2.268        1.619      113.816       68.135        0.358      349.776       30.451      861.169
07/03/2013  21:26:00      -23.004       33.928       -4.258       90.213       66.369       42.896     8138.328     4404.782     1840.064        0.804        0.719       40.991       30.942        0.570      349.820       30.528      861.163
07/03/2013  21:27:00      -79.370      127.925      -20.321      100.583      133.857       56.966    10116.879    17917.698     3245.178        2.717        1.564      150.547       59.538        0.156      349.796       30.487      861.211
07/03/2013  21:28:00     -155.587      203.626      -19.769      106.225      110.908       58.620    11283.667    12300.500     3436.306        4.654        1.351      256.263       62.670        0.060      349.753       30.409      861.263
07/03/2013  21:29:00      -86.312      140.164       -9.854       99.091      147.751       60.386     9819.029    21830.454     3646.517        3.124        1.765      164.608       30.375        0.034      349.761       30.423      861.319
07/03/2013  21:30:00     -238.407      347.943      -51.262      116.361      190.946       80.440    13539.977    36460.546     6470.527       11.849        2.824      421.785       74.925        0.032      349.752       30.408      861.358
07/03/2013  21:31:00     -143.338      236.937      -20.922      106.905      137.114       72.721    11428.588    18800.175     5288.387        5.631        1.776      276.920       79.038        0.081      349.679       30.281      861.386
07/03/2013  21:32:00     -151.828      234.934      -38.242      105.914      146.552       70.755    11217.677    21477.622     5006.264        5.870        1.885      279.725       87.814        0.099      349.652       30.234      861.415
07/03/2013  21:33:00     -119.557      172.036      -19.115       85.500       88.988       53.290     7310.261     7918.778     2839.864        3.116        0.903      209.500       48.322        0.053      349.571       30.094      861.442
07/03/2013  21:34:00     -137.739      129.277      -26.381      113.659       98.857       58.529    12918.377     9772.626     3425.640        3.124        1.306      188.903       59.209        0.098      349.601       30.146      861.462
07/03/2013  21:35:00     -169.338      323.146      -52.205      128.123      101.772       66.857    16415.467    10357.603     4469.854        8.353        1.562      364.827       70.943        0.038      349.701       30.317      861.487
07/03/2013  21:36:00     -169.556      313.417      -44.474      126.984      130.704       72.350    16124.866    17083.521     5234.542        8.369        1.922      356.342       79.346        0.050      349.678       30.278      861.527
07/03/2013  21:37:00     -153.630      182.595      -30.398       91.893      105.400       54.882     8444.235    11109.142     3012.085        4.021        1.128      238.628       40.137        0.028      349.656       30.241      861.578
07/03/2013  21:38:00     -159.752      202.431      -16.296      100.535      127.867       67.470    10107.382    16349.892     4552.165        4.888        1.550      257.874       64.269        0.062      349.613       30.167      861.638
07/03/2013  21:39:00      -74.225      199.127      -22.313       78.523      113.534       53.086     6165.874    12889.952     2818.120        3.376        1.094      212.511       47.948        0.051      349.591       30.129      861.676
07/03/2013  21:40:00     -163.753      116.119      -15.759      104.993      123.761       50.741    11023.443    15316.754     2574.654        3.473        1.446      200.746       49.662        0.061      349.578       30.105      861.700
07/03/2013  21:41:00     -124.806      152.187      -14.557      125.421      173.329       76.020    15730.368    30042.899     5779.103        4.524        2.578      196.819       69.267        0.124      349.544       30.048      861.706
07/03/2013  21:42:00      -81.398      191.820       -5.788       93.050      135.526       69.861     8658.255    18367.305     4880.597        3.767        1.595      208.376       78.966        0.144      349.503       29.976      861.712
07/03/2013  21:43:00     -134.584      222.892      -35.373       83.324       94.327       52.619     6942.935     8897.656     2768.805        4.382        0.930      260.372       49.079        0.036      349.491       29.955      861.756
07/03/2013  21:44:00      -56.416      256.840      -26.012       74.929       92.869       48.818     5614.297     8624.579     2383.165        4.322        0.831      262.963       50.879        0.037      349.479       29.933      861.778
07/03/2013  21:45:00     -176.269      304.945      -60.704      173.321      175.743       83.109    30040.329    30885.538     6907.138        9.778        3.392      352.225       99.045        0.079      349.466       29.911      861.786
07/03/2013  21:46:00     -101.881      209.630      -29.416       67.843      151.382       55.258     4602.682    22916.520     3053.498        4.288        1.529      233.076       54.750        0.055      349.435       29.859      861.807
07/03/2013  21:47:00     -141.012      255.291      -46.071       95.972      112.284       54.958     9210.551    12607.799     3020.330        5.600        1.242      291.646       53.888        0.034      349.421       29.831      861.841
07/03/2013  21:48:00      -38.069      320.879      -38.233       54.468       86.051       41.773     2966.713     7404.697     1744.953        5.899        0.606      323.129       44.688        0.019      349.405       29.805      861.887
07/03/2013  21:49:00      -27.763      257.470      -21.727       69.723      117.833       53.350     4861.360    13884.561     2846.196        4.456        1.080      258.962       61.960        0.057      349.349       29.707      861.928
07/03/2013  21:50:00       75.974      293.957      -17.596      102.598      192.131       88.779    10526.363    36914.241     7881.623        7.390        2.766      303.616      100.669        0.110      349.300       29.625      861.950
07/03/2013  21:51:00       25.548      266.932      -32.002       93.396      121.270       74.401     8722.858    14706.519     5535.499        5.094        1.448      268.152       70.497        0.069      349.240       29.520      861.969
07/03/2013  21:52:00      -10.437      171.063      -17.526       75.955       96.145       52.911     5769.102     9243.907     2799.617        2.374        0.891      171.381       55.559        0.105      349.214       29.476      861.983
07/03/2013  21:53:00      -49.456      299.250      -23.441       56.107       74.392       48.804     3147.959     5534.124     2381.824        5.180        0.553      303.309       42.157        0.019      349.206       29.461      862.001
07/03/2013  21:54:00      -68.951      347.566      -45.698       59.630      101.241       45.000     3555.712    10249.681     2024.980        7.173        0.792      354.339       37.103        0.011      349.217       29.480      862.014
07/03/2013  21:55:00      -28.843      281.226      -27.960       79.187       85.886       41.341     6270.606     7376.467     1709.096        4.803        0.768      282.702       41.763        0.022      349.208       29.462      862.017
07/03/2013  21:56:00       24.802      250.212      -29.217       56.704       58.821       36.316     3215.346     3459.923     1318.848        3.603        0.400      251.438       28.856        0.013      349.212       29.470      862.015
07/03/2013  21:57:00       39.117      110.585       -3.344       44.072      105.106       34.086     1942.370    11047.186     1161.881        1.396        0.708      117.300       37.012        0.100      349.186       29.429      862.017
07/03/2013  21:58:00       66.132       58.324        6.708       87.019       30.046       27.391     7572.260      902.762      750.258        0.852        0.461       88.176       18.126        0.042      349.134       29.340      862.020
07/03/2013  21:59:00      131.661      106.017       23.987      100.801       55.622       58.496    10160.886     3093.763     3421.816        2.291        0.834      169.039       35.566        0.044      349.231       29.505      862.036
07/03/2013  22:00:00       57.440       84.211       34.002       64.431       88.134       60.982     4151.416     7767.682     3718.847        1.359        0.782      101.936       53.736        0.278      349.300       29.627      862.032
07/03/2013  22:01:00        0.979       73.787       -7.297       20.254       28.825       16.908      410.208      830.879      285.888        0.351        0.076       73.793       13.329        0.033      349.190       29.436      862.037
07/03/2013  22:02:00       -9.436       50.036       -0.542       40.877       34.956       21.618     1670.961     1221.950      467.342        0.298        0.168       50.918       18.406        0.131      349.207       29.464      862.054
07/03/2013  22:03:00       -2.121       73.971      -12.163       34.193       58.681       19.952     1169.174     3443.430      398.095        0.532        0.251       74.001       22.564        0.093      349.189       29.433      862.046
07/03/2013  22:04:00       33.536       49.242        8.679       50.582       38.452       30.178     2558.573     1478.525      910.729        0.429        0.247       59.578       22.750        0.146      349.175       29.409      862.029
07/03/2013  22:05:00       28.401       88.128       -3.714       42.504       27.488       26.363     1806.630      755.584      695.014        0.592        0.163       92.591       22.146        0.057      349.202       29.456      862.023
07/03/2013  22:06:00       20.308       68.890        5.294       50.782       42.059       19.150     2578.797     1768.930      366.720        0.495        0.236       71.821       26.322        0.134      349.180       29.418      862.006
07/03/2013  22:07:00       96.590       57.969       13.841       43.446       48.537       29.733     1887.544     2355.808      884.033        0.900        0.256      112.650       18.949        0.028      349.225       29.495      861.990
07/03/2013  22:08:00       37.372       38.006       49.791       45.659       36.741       39.310     2084.728     1349.878     1545.257        0.515        0.249       53.302       36.381        0.466      349.131       29.335      861.990
07/03/2013  22:09:00       -1.256       34.416       41.415       22.996       24.312       21.487      528.823      591.089      461.703        0.224        0.079       34.439       15.094        0.192      349.141       29.352      862.015
07/03/2013  22:10:00       12.992        8.792       31.133       19.402       26.586       13.338      376.429      706.815      177.896        0.124        0.063       15.687       13.571        0.748      349.104       29.288      862.034
07/03/2013  22:11:00       10.229       -6.500        9.549       22.289       18.129       19.088      496.785      328.661      364.361        0.071        0.059       12.120       14.225        1.377      349.033       29.163      862.066
07/03/2013  22:12:00       16.546      -73.479       -8.005       19.825       37.616       19.460      393.044     1414.979      378.708        0.396        0.109       75.319       15.400        0.042      349.031       29.160      862.091
07/03/2013  22:13:00       31.794       33.517       57.363       42.607       51.171       35.065     1815.369     2618.428     1229.555        0.554        0.283       46.198       35.208        0.581      348.946       29.012      862.112
07/03/2013  22:14:00       17.902      -32.620       31.217       32.257       67.763       36.726     1040.510     4591.831     1348.802        0.467        0.349       37.209       41.526        1.245      348.965       29.045      862.129
07/03/2013  22:15:00      -12.099       57.992       79.215       19.087       38.509       23.521      364.302     1482.971      553.218        0.609        0.120       59.241       21.735        0.135      348.901       28.935      862.162
07/03/2013  22:16:00       -3.486       46.379       76.232       27.644       41.915       28.575      764.218     1756.851      816.531        0.566        0.167       46.510       28.865        0.385      348.880       28.899      862.202
07/03/2013  22:17:00       45.573       12.310       55.414       42.764       68.492       36.502     1828.793     4691.153     1332.397        0.657        0.393       47.206       41.530        0.774      348.796       28.752      862.237
07/03/2013  22:18:00      103.201       35.498       24.086       30.827       35.934       31.836      950.310     1291.234     1013.539        0.787        0.163      109.136       21.117        0.037      348.756       28.685      862.259
07/03/2013  22:19:00      143.624       74.313       19.398       76.481       76.184       36.775     5849.356     5803.991     1352.365        1.976        0.650      161.711       24.570        0.023      348.716       28.614      862.272
07/03/2013  22:20:00      153.193       70.604       16.794       49.463       54.536       40.295     2446.570     2974.222     1623.708        1.789        0.352      168.680       31.524        0.035      348.684       28.557      862.257
07/03/2013  22:21:00       93.076       33.761       17.188       53.383       29.261       39.564     2849.728      856.189     1565.341        0.768        0.264       99.010       39.229        0.157      348.678       28.547      862.239
07/03/2013  22:22:00        7.857       28.355       39.152       32.287       33.452       22.837     1042.480     1119.041      521.519        0.254        0.134       29.423       10.494        0.127      348.658       28.513      862.245
07/03/2013  22:23:00       -6.210      -48.131        8.194       26.177       32.875       17.500      685.249     1080.778      306.252        0.225        0.104       48.530       10.403        0.046      348.690       28.569      862.255
07/03/2013  22:24:00      -26.684      -12.313       -4.503       10.032       12.995        7.784      100.645      168.872       60.595        0.061        0.017       29.388        4.118        0.020      348.693       28.581      862.256
07/03/2013  22:25:00        1.564      -24.791       -2.802       14.631       20.039       11.263      214.074      401.548      126.866        0.068        0.037       24.840        8.808        0.126      348.641       28.483      862.248
07/03/2013  22:26:00       12.355      -26.913        2.802       17.419       18.660       13.952      303.436      348.203      194.671        0.087        0.042       29.613       11.978        0.164      348.597       28.412      862.240
07/03/2013  22:27:00        4.138      -22.974        7.579       12.001       18.789       11.335      144.026      353.019      128.478        0.061        0.031       23.344        9.854        0.178      348.578       28.375      862.228
07/03/2013  22:28:00       28.779        6.092       26.814       25.922       27.499       21.574      671.950      756.210      465.430        0.174        0.095       29.417       19.392        0.435      348.536       28.303      862.218
07/03/2013  22:29:00       71.205       46.234       23.057       43.844       40.391       28.130     1922.270     1631.409      791.311        0.604        0.217       84.899       14.219        0.028      348.588       28.394      862.231
07/03/2013  22:30:00       66.709       47.994       16.367       20.324       19.179       14.290      413.076      367.846      204.207        0.400        0.049       82.180       11.221        0.019      348.556       28.338      862.222
07/03/2013  22:31:00       48.154       32.298       -1.357       22.076       21.307       16.309      487.355      454.004      265.990        0.229        0.060       57.982       13.464        0.054      348.660       28.518      862.223
07/03/2013  22:32:00        1.836       19.787       25.333       19.138       22.972       19.779      366.254      527.724      391.192        0.116        0.064       19.872       15.922        0.642      348.612       28.436      862.232
07/03/2013  22:33:00       -0.191       24.863       28.323       15.699       19.449       19.398      246.470      378.260      376.298        0.121        0.050       24.863       11.736        0.223      348.648       28.495      862.229
07/03/2013  22:34:00        3.734       17.114       20.763       21.788       21.537       23.612      474.705      463.826      557.505        0.112        0.075       17.516       18.965        1.172      348.604       28.422      862.227
07/03/2013  22:35:00      -11.920       21.288      -10.922       31.415       28.554       14.408      986.890      815.310      207.585        0.136        0.100       24.398       17.525        0.516      348.600       28.411      862.219
07/03/2013  22:36:00      -23.927       10.370        1.004       28.548       19.313        7.031      815.010      373.011       49.432        0.096        0.062       26.078        4.986        0.037      348.615       28.439      862.224
07/03/2013  22:37:00      -43.143      -16.411        6.859       28.014       21.287       12.595      784.801      453.127      158.629        0.179        0.070       46.159       10.599        0.053      348.475       28.197      862.225
07/03/2013  22:38:00        9.810      -19.025        4.957       11.295       21.603       17.255      127.566      466.676      297.735        0.069        0.045       21.405       16.638        0.604      348.518       28.273      862.233
07/03/2013  22:39:00      -67.015      -51.416        1.491       30.689       25.520       16.616      941.841      651.279      276.088        0.450        0.093       84.467       16.071        0.036      348.453       28.161      862.236
07/03/2013  22:40:00      -71.773      -47.309       -6.889       34.414       34.804       18.223     1184.319     1211.316      332.090        0.508        0.136       85.962       10.523        0.015      348.454       28.162      862.234
07/03/2013  22:41:00      -29.374      -30.793        7.100       31.944       24.708       19.172     1020.426      610.463      367.571        0.193        0.100       42.556       15.845        0.139      348.498       28.238      862.249
07/03/2013  22:42:00      -33.213      -38.297        7.075       42.432       25.219       22.875     1800.463      635.981      523.248        0.279        0.148       50.693       22.089        0.190      348.516       28.268      862.270
07/03/2013  22:43:00      -42.422      -62.100        3.322       33.093       29.522       19.864     1095.153      871.537      394.588        0.401        0.118       75.207       18.481        0.060      348.582       28.383      862.316
07/03/2013  22:44:00       -0.586      -21.157       16.170       27.639       23.984       16.668      763.923      575.242      277.836        0.116        0.081       21.165       13.838        0.427      348.533       28.299      862.361
07/03/2013  22:45:00      -12.691      -14.112        7.076       22.081       16.218       13.227      487.570      263.012      174.941        0.067        0.046       18.980       13.352        0.495      348.487       28.220      862.407
07/03/2013  22:46:00        2.200       11.336       13.235        9.009       19.790       12.246       81.155      391.635      149.974        0.047        0.031       11.547       10.360        0.805      348.397       28.064      862.455
07/03/2013  22:47:00        3.050      -23.527        0.253       11.225       14.707       13.173      126.005      216.286      173.515        0.054        0.026       23.724        9.146        0.149      348.608       28.429      862.488
07/03/2013  22:48:00       21.769      -74.970       14.861        9.679       12.108       13.017       93.684      146.603      169.449        0.336        0.020       78.067        2.954        0.001      348.605       28.423      862.503
07/03/2013  22:49:00      -68.405      -22.446       -5.500       48.189       34.541       18.537     2322.145     1193.078      343.615        0.454        0.193       71.993       13.075        0.033      348.454       28.162      862.527
07/03/2013  22:50:00     -181.478      -42.763       -1.875       46.184       36.813       25.921     2132.966     1355.200      671.883        1.946        0.208      186.448       25.871        0.019      348.342       27.967      862.545
07/03/2013  22:51:00     -108.709      -45.099        2.451       70.023       32.895       21.832     4903.242     1082.097      476.626        1.016        0.323      117.693       21.408        0.033      348.407       28.081      862.558
07/03/2013  22:52:00     -108.863      -31.061       -4.627       46.325       30.461       18.977     2146.000      927.857      360.139        0.813        0.172      113.208       15.235        0.018      348.491       28.224      862.575
07/03/2013  22:53:00      -34.488      -27.864        0.638       32.177       29.900       13.539     1035.384      894.028      183.311        0.204        0.106       44.338       10.229        0.053      348.470       28.190      862.580
07/03/2013  22:54:00      -33.940      -77.504       -1.376       43.490       37.484       17.977     1891.421     1405.084      323.171        0.539        0.181       84.610       21.073        0.062      348.543       28.312      862.594
07/03/2013  22:55:00      -52.481      -65.424       -4.349       35.679       24.878       20.158     1272.975      618.932      406.363        0.468        0.115       83.872       17.094        0.042      348.540       28.308      862.627
07/03/2013  22:56:00      -47.179      -61.826       -3.273       23.014       24.851       12.157      529.653      617.569      147.801        0.368        0.065       77.771        7.927        0.010      348.551       28.327      862.671
07/03/2013  22:57:00      -83.048      -39.564       -1.273       24.359       17.612       15.474      593.347      310.191      239.456        0.480        0.057       91.991        7.782        0.007      348.496       28.237      862.704
07/03/2013  22:58:00      -32.512      -53.030        3.768       42.819       25.591       20.094     1833.479      654.910      403.776        0.339        0.145       62.203       23.647        0.145      348.512       28.259      862.728
07/03/2013  22:59:00      -61.238      -33.112        3.958       50.655       28.472       18.963     2565.901      810.676      359.590        0.430        0.187       69.617       23.638        0.115      348.441       28.138      862.745
07/03/2013  23:00:00      -74.979      -68.546       -7.975       51.620       30.247       14.014     2664.610      914.853      196.385        0.708        0.189      101.589       11.750        0.013      348.483       28.210      862.757
07/03/2013  23:01:00      -85.866      -56.766       -1.423       35.276       29.328       16.202     1244.381      860.135      262.500        0.648        0.118      102.934       15.975        0.024      348.461       28.174      862.755
07/03/2013  23:02:00      -41.682      -67.169        1.023       32.068       30.074       17.242     1028.347      904.422      297.276        0.424        0.112       79.051       15.135        0.037      348.458       28.169      862.760
07/03/2013  23:03:00      -93.199      -57.208        6.552       50.589       39.894       23.636     2559.221     1591.554      558.683        0.835        0.235      109.356       26.189        0.057      348.478       28.202      862.763
07/03/2013  23:04:00     -117.333        5.883      -12.308       25.160       50.216       17.723      633.044     2521.602      314.098        0.871        0.173      117.480       17.664        0.023      348.433       28.124      862.773
07/03/2013  23:05:00     -120.520        2.293       -9.332       30.448       48.098       20.851      927.086     2313.406      434.744        0.915        0.184      120.541       18.265        0.023      348.403       28.076      862.763
07/03/2013  23:06:00     -110.965      -34.763        1.558       30.645       25.402       15.883      939.107      645.246      252.279        0.768        0.092      116.283       13.809        0.014      348.368       28.013      862.773
07/03/2013  23:07:00      -89.519      -24.606        1.560       24.312       20.581       16.097      591.069      423.567      259.106        0.495        0.064       92.839       10.739        0.013      348.350       27.982      862.787
07/03/2013  23:08:00      -98.656      -48.878        3.717       37.563       22.106       15.102     1410.944      488.676      228.064        0.713        0.106      110.101       12.803        0.014      348.390       28.052      862.806
07/03/2013  23:09:00     -120.689      -31.566       -1.350       42.643       31.534       20.981     1818.384      994.382      440.200        0.941        0.163      124.748       18.137        0.021      348.303       27.902      862.802
07/03/2013  23:10:00      -88.529      -35.665       -0.434       29.070       18.231       12.956      845.070      332.378      167.863        0.523        0.067       95.443        8.528        0.008      348.336       27.959      862.783
07/03/2013  23:11:00      -70.786      -37.958       -7.776       32.978       23.721       19.952     1087.569      562.692      398.069        0.428        0.102       80.321       19.363        0.058      348.313       27.917      862.764
07/03/2013  23:12:00      -34.675      -23.875        3.108       25.464       31.934       18.284      648.418     1019.789      334.301        0.189        0.100       42.100       19.711        0.219      348.195       27.714      862.755
07/03/2013  23:13:00      -76.306      -10.292       -3.451       22.310       20.008       14.926      497.743      400.336      222.781        0.353        0.056       76.997       11.334        0.022      348.170       27.670      862.747
07/03/2013  23:14:00     -102.546      -26.262       -8.924       39.716       17.737        9.931     1577.372      314.597       98.627        0.664        0.100      105.856        7.961        0.006      348.229       27.773      862.735
07/03/2013  23:15:00      -66.700      -17.926       -5.039       23.808       16.085        8.876      566.816      258.721       78.787        0.285        0.045       69.067        6.055        0.008      348.153       27.643      862.731
07/03/2013  23:16:00      -60.037      -31.123        4.531       28.083       26.704       15.114      788.678      713.117      228.440        0.316        0.087       67.625       14.440        0.046      348.045       27.455      862.729
07/03/2013  23:17:00      -32.394      -44.872       -8.860       23.605       17.156       13.590      557.211      294.333      184.679        0.209        0.052       55.343       11.815        0.046      348.094       27.539      862.707
07/03/2013  23:18:00       -8.709      -47.313      -11.243       21.115       18.039       19.021      445.847      325.416      361.813        0.179        0.057       48.108        8.536        0.031      348.084       27.523      862.681
07/03/2013  23:19:00      -56.018      -19.972      -16.691        9.974       11.173        8.595       99.482      124.837       73.881        0.206        0.015       59.472        7.202        0.015      348.013       27.399      862.669
07/03/2013  23:20:00      -18.618       10.761        1.659       16.381       12.498        9.292      268.332      156.190       86.342        0.049        0.026       21.504        6.880        0.102      348.012       27.397      862.656
07/03/2013  23:21:00        5.781      -31.342        6.216       10.203       14.812       12.915      104.094      219.393      166.806        0.077        0.025       31.871        6.021        0.036      348.050       27.463      862.622
07/03/2013  23:22:00        3.182       22.849       -5.360       13.345       16.660       12.500      178.091      277.562      156.262        0.059        0.031       23.069        8.944        0.150      348.144       27.626      862.594
07/03/2013  23:23:00       -0.720       29.984       11.137        8.149       12.870       14.280       66.399      165.632      203.913        0.073        0.022       29.992        8.507        0.080      348.058       27.479      862.589
07/03/2013  23:24:00      -25.720       14.263       -8.370        9.865       11.424        8.064       97.317      130.504       65.021        0.061        0.015       29.410        5.017        0.029      348.076       27.506      862.580
07/03/2013  23:25:00      -38.673       17.116       -9.434       10.682       20.518        8.731      114.103      421.009       76.231        0.124        0.031       42.292        8.673        0.042      347.989       27.358      862.565
07/03/2013  23:26:00       -6.971        0.676        1.462       12.516        5.089        5.596      156.641       25.896       31.310        0.013        0.011        7.004        3.116        0.198      347.978       27.338      862.538
07/03/2013  23:27:00       14.896       41.239        3.800       13.243       18.864       10.478      175.369      355.838      109.796        0.129        0.032       43.847        2.799        0.004      348.171       27.672      862.527
07/03/2013  23:28:00        6.632       28.645        0.803       17.842        6.284        5.873      318.348       39.482       34.488        0.063        0.020       29.403        6.223        0.045      348.134       27.608      862.524
07/03/2013  23:29:00      -59.922        9.217       -8.845       18.864       23.177        8.159      355.848      537.156       66.568        0.236        0.048       60.626        9.117        0.023      347.988       27.355      862.520
07/03/2013  23:30:00      -74.842      -12.426       -8.841       26.111       20.683       14.346      681.806      427.788      205.805        0.357        0.066       75.867       11.491        0.023      347.736       26.922      862.514
07/03/2013  23:31:00      -97.099      -33.741       -5.181       17.532       18.445        9.875      307.369      340.215       97.510        0.567        0.037      102.795       10.456        0.010      347.783       27.003      862.513
07/03/2013  23:32:00      -94.196      -45.263       -5.961       24.722       16.654       10.496      611.160      277.369      110.164        0.598        0.050      104.507       10.179        0.009      347.822       27.069      862.512
07/03/2013  23:33:00      -24.609      -17.435        6.497       32.398       27.151       12.151     1049.607      737.161      147.650        0.144        0.097       30.159       14.563        0.233      347.818       27.063      862.491
07/03/2013  23:34:00      -37.364      -21.989        3.123       16.247       14.549       12.104      263.980      211.672      146.518        0.126        0.031       43.354       10.698        0.061      347.905       27.212      862.487
07/03/2013  23:35:00      -40.548      -11.772       -3.162       25.039       26.582       11.129      626.956      706.596      123.862        0.162        0.073       42.222       10.710        0.064      347.804       27.037      862.491
07/03/2013  23:36:00      -11.412      -21.930        2.620       26.878       16.125       16.015      722.445      260.014      256.493        0.093        0.062       24.721        9.206        0.139      347.754       26.956      862.497
07/03/2013  23:37:00      -24.374       -9.240       -6.021       18.702        7.979        5.354      349.750       63.664       28.663        0.058        0.022       26.066        8.052        0.095      347.753       26.951      862.490
07/03/2013  23:38:00      -68.663      -22.413       -8.198       19.380       15.345        9.824      375.590      235.458       96.506        0.300        0.035       72.228        8.056        0.012      347.773       26.987      862.488
07/03/2013  23:39:00      -61.883      -12.168        1.025       23.383       26.730       15.789      546.763      714.486      249.284        0.274        0.076       63.067       13.531        0.046      347.610       26.703      862.493
07/03/2013  23:40:00      -68.381      -25.768        0.384       21.442       21.432       13.323      459.747      459.327      177.503        0.322        0.055       73.075       12.017        0.027      347.506       26.524      862.486
07/03/2013  23:41:00      -83.520      -22.417       -5.280       19.396       23.325       14.112      376.192      544.076      199.157        0.431        0.056       86.476       14.285        0.027      347.538       26.580      862.475
07/03/2013  23:42:00      -66.357      -18.647       -4.095       23.744       23.156       16.172      563.772      536.179      261.547        0.306        0.068       68.927       14.982        0.047      347.526       26.559      862.468
07/03/2013  23:43:00      -83.057      -20.096       -6.527       15.883       18.311        9.292      252.282      335.309       86.336        0.401        0.034       85.453        4.794        0.003      347.537       26.576      862.466
07/03/2013  23:44:00      -96.993      -28.744        0.507       28.071       15.061       14.478      787.961      226.846      209.610        0.573        0.061      101.162       13.781        0.019      347.533       26.572      862.452
07/03/2013  23:45:00      -96.820      -23.091        1.127       26.804       21.492       12.693      718.440      461.904      161.110        0.562        0.067       99.535       13.656        0.019      347.553       26.605      862.430
07/03/2013  23:46:00     -101.144      -34.483        2.010       22.843       22.997       15.018      521.781      528.879      225.552        0.635        0.064      106.860       13.352        0.016      347.527       26.560      862.409
07/03/2013  23:47:00      -97.174      -15.549        1.122       27.040       24.615       16.340      731.171      605.891      267.006        0.564        0.080       98.410       15.083        0.023      347.401       26.343      862.394
07/03/2013  23:48:00      -98.855      -13.821       -3.757       38.530       22.646       17.169     1484.551      512.841      294.768        0.613        0.115       99.817       19.949        0.040      347.383       26.312      862.386
07/03/2013  23:49:00      -91.279      -21.175       -4.995       24.638       23.823       15.510      607.030      567.558      240.566        0.511        0.071       93.703       13.594        0.021      347.377       26.303      862.361
07/03/2013  23:50:00      -87.872      -12.724       -9.679       27.443       19.622       15.573      753.113      385.024      242.504        0.468        0.069       88.789       14.873        0.028      347.337       26.232      862.345
07/03/2013  23:51:00      -85.046      -14.447       -7.612       22.551       16.029       15.193      508.557      256.931      230.822        0.425        0.050       86.264       13.178        0.023      347.421       26.378      862.322
07/03/2013  23:52:00      -91.160      -19.457       -8.106        9.786       11.800        7.641       95.759      139.246       58.386        0.452        0.015       93.213        5.971        0.004      347.494       26.504      862.311
07/03/2013  23:53:00      -90.760      -35.292      -12.749       11.921       11.257        8.092      142.100      126.712       65.489        0.499        0.017       97.380        7.067        0.005      347.529       26.563      862.280
07/03/2013  23:54:00      -87.969      -39.796       -6.397       15.364       22.677       13.478      236.042      514.241      181.664        0.515        0.047       96.552        9.141        0.009      347.364       26.279      862.249
07/03/2013  23:55:00      -70.008      -23.037       -7.216       22.471       17.520       11.454      504.960      306.938      131.191        0.321        0.047       73.701       13.219        0.032      347.292       26.154      862.212
07/03/2013  23:56:00      -34.566       -7.923        0.957       15.218       16.291       12.410      231.602      265.413      154.011        0.095        0.033       35.463        8.401        0.056      347.249       26.081      862.190
07/03/2013  23:57:00      -40.506        1.483       -8.706       23.381       13.406       13.101      546.684      179.732      171.645        0.131        0.045       40.533       14.164        0.122      347.267       26.112      862.174
07/03/2013  23:58:00      -56.194      -17.116       -7.541       26.468       14.785       12.176      700.575      218.604      148.254        0.229        0.053       58.743        8.096        0.019      347.269       26.116      862.146
07/03/2013  23:59:00      -52.248       -6.820        0.400       29.322       21.689       12.767      859.774      470.419      162.996        0.213        0.075       52.691       10.796        0.042      347.189       25.978      862.121
